     2              OBSERVATION DATA    GPS                 RINEX VERSION / TYPE
teqc 1997Jul24 19970814                                     PGM / RUN BY / DATE
                                                            COMMENT
Original Marker Name: 0803                                  COMMENT
Campaign Name: HPGN 1991                                    COMMENT
4-Character Station Name: 0803                              COMMENT
6-Character Antenna Code: TRMSST                            COMMENT
Vertical Measurement Point: BPA                             COMMENT
Vertical Offset to Rinex Ref. Point: 0.0000                 COMMENT
Radial Measurement Point: RRP                               COMMENT
Radial Offset to Rinex Ref. Point: 0.0000                   COMMENT
Antenna Height from Field Measurement: 2.2200 m             COMMENT
Original XYZ: -2324973.0620 -4680644.8717 3644694.9444      COMMENT
New XYZ position is based on association with SCEC monument COMMENT
E1F2W5K9+0011. Position of that monument is believed to be  COMMENT
valid to within 1 m horizontally; vertical accuracy         COMMENT
should be no worse than 3-times this value.                 COMMENT
                                                            COMMENT
Revised Rinex header created by UCSD GPS archive for        COMMENT
GSAC on 19-Apr-1999 (1999:109) 04:49:51 GMT                 COMMENT
For assistance contact dagnew@ucsd.edu or hjohnson@ucsd.edu COMMENT
                                                            COMMENT
HPGN-CALIF STA 08-03 1991                                   MARKER NAME
unknown NATIONAL GEODETIC SURVEY                            OBSERVER / AGENCY
486 TRIMBLE 4000 SST NP 4.30 / SP 4.20                      REC # / TYPE / VERS
17 TR 4000SST L1/L2 GEO                                     ANT # / TYPE
 -2324976.0000 -4680640.0000  3644686.0000                  APPROX POSITION XYZ
        2.2200        0.0000        0.0000                  ANTENNA: DELTA H/E/N
     1     1     0                                          WAVELENGTH FACT L1/2
     3    C1    L1    L2                                    # / TYPES OF OBSERV
     0                                                      INTERVAL
  1991     5     7    18    56   45.000000                  TIME OF FIRST OBS
  1991     5     8     1     1   60.000000                  TIME OF LAST OBS
     0                                                      # OF SATELLITES
                                                            END OF HEADER
 91  5  7 18 56 45.0000000  0  4G18G19G 2G11
  20469217.563          -0.23118        -0.32132
  20737704.867          -0.24717        -0.00332
  23837177.8754         -0.05155        -0.49271
  23509212.5704         -0.89056
 91  5  7 18 57  0.0000000  0  4G18G19G 2G11
  20470441.5234       6434.03548      5013.36462
  20734707.656      -15766.488 7    -12285.37422
  23826138.508      -58015.420 5    -45207.09221
  23501029.3054     -43021.21446        -0.10371
 91  5  7 18 57 15.0000000  0  4G18G19G 2G11
  20471682.695       12950.854 8     10091.38122
  20731706.5084     -31520.43347    -24561.16562
  23815100.875     -116019.756 5    -90405.10521
  23492851.844      -85978.063 6    -33472.85121
 91  5  7 18 57 30.0000000  0  4G18G19G 2G11
  20472938.039       19554.364 8     15236.94722
  20728714.6564     -47257.96847    -36824.16862
  23804069.1954    -174008.86945   -135591.24961
  23484693.570     -128866.986 6    -66892.67421
 91  5  7 18 57 45.0000000  0  4G18G19G 2G11
  20474215.156       26258.106 8     20460.61922
  20725722.6644     -62965.69447    -49063.94962
  23793037.328     -231969.160 5   -180754.94221
  23476543.5784    -171674.08846   -100248.72961
 91  5  7 18 58  0.0000000  0  4G18G19G 2G11
  20475508.117       33057.003 8     25758.43422
  20722739.750      -78648.394 7    -61284.22222
  23782009.1724    -289905.08145   -225899.64561
  23468413.7894    -214403.68746   -133544.40661
 91  5  7 18 58 15.0000000  0  4G18G19G 2G11
  20476821.6414      39957.98248     31135.79062
  20719761.8444     -94299.17247    -73479.62662
  23770992.1334    -347809.60445   -271019.87561
  23460299.2584    -257048.58546   -166774.08561
 91  5  7 18 58 30.0000000  0  4G18G19G 2G11
  20478155.7034      46967.29748     36597.56462
  20716793.4454    -109911.81647    -85645.30962
  23759977.727     -405676.163 5   -316110.53721
  23452199.117     -299602.207 6   -199932.63521
 91  5  7 18 58 45.0000000  0  4G18G19G 2G11
  20479510.0234      54082.47548     42141.82962
  20713825.4924    -125488.84947    -97783.24862
  23748974.4534    -463507.20745   -361173.53461
  23444119.2974    -342066.51046   -233021.58661
 91  5  7 18 58 59.9990000  0  4G18G19G 2G11
  20480883.7144      61307.02848     47771.32362
  20710873.503     -141025.307 7   -109889.56822
  23737981.440     -521294.830 5   -406202.66021
  23436062.925     -384434.511 6   -266035.51221
 91  5  7 18 59 14.9990000  0  4G18G19G 2G11
  20482280.5584      68643.11348     53487.72362
  20707920.9724    -156521.84347   -121964.78462
  23726994.089     -579045.342 5   -451202.90521
  23428012.9874    -426710.08146   -298977.40361
 91  5  7 18 59 29.9990000  0  4G18G19G 2G11
  20483698.5734      76094.51348     59293.98062
  20704980.2534    -171973.06547   -134004.69162
  23716009.409     -636750.218 5   -496167.56421
  23419991.151     -468885.664 6   -331841.39321
 91  5  7 18 59 44.9990000  0  4G18G19G 2G11
  20485138.8314      83662.89248     65191.39162
  20702048.8784    -187377.33847   -146008.01062
  23705036.144     -694407.515 5   -541095.17121
  23411978.823     -510959.307 6   -364625.93921
 91  5  7 18 59 59.9990000  0  4G18G19G 2G11
  20486600.8944      91348.76948     71180.35362
  20699126.6834    -202734.18447   -157974.37862
  23694073.605     -752016.792 5   -585985.34521
  23403997.120     -552930.068 6   -397330.32521
 91  5  7 19  0 14.9990000  0  4G18G19G 2G11
  20488084.6594      99143.63848     77254.24762
  20696211.5264    -218052.08647   -169910.39562
  23683119.3944    -809586.46946   -630844.65761
  23396021.753     -594806.236 6   -429961.00021
 91  5  7 19  0 29.9990000  0  4G18G19G 2G11
  20489590.4094     107054.57848     83418.58262
  20693305.8474    -233323.98647   -181810.56862
  23672174.011     -867109.099 5   -675667.32021
  23388074.6444    -636580.08946   -462511.96461
 91  5  7 19  0 44.9990000  0  4G18G19G 2G11
  20491118.2534     115085.93948     89676.75462
  20690409.5734    -248545.32247   -193671.34462
  23661238.4094    -924579.98246   -720449.64961
  23380148.589     -678246.973 6   -494979.57021
 91  5  7 19  0 59.9990000  0  4G18G19G 2G11
  20492667.9094     123226.26748     96019.83762
  20687521.1984    -263727.64247   -205501.71262
  23650308.058     -982010.699 6   -765200.70821
  23372240.0264    -719818.00146   -527372.48361
 91  5  7 19  1 14.9990000  0  4G18G19G 2G11
  20494237.7144     131476.67948    102448.69662
  20684638.4014    -278869.64247   -217300.66562
  23639388.714    -1039399.525 6   -809919.10421
  23364344.956     -761291.431 6   -559689.33921
 91  5  7 19  1 29.9990000  0  4G18G19G 2G11
  20495829.2924     139839.39548    108965.06262
  20681765.5114    -293969.04247   -229066.42362
  23628472.940    -1096744.120 6   -854603.03821
  23356469.5424    -802664.77546   -591928.22161
 91  5  7 19  1 44.9990000  0  4G18G19G 2G11
  20497442.1124     148316.03848    115570.20762
  20678900.8314    -309024.44447   -240797.89962
  23617570.550    -1154043.099 6   -899251.43121
  23348617.573     -843936.246 6   -624087.71121
 91  5  7 19  1 59.9990000  0  4G18G19G 2G11
  20499076.3784     156906.24548    122263.84362
  20676043.8944    -324036.01047   -252495.21162
  23606676.4014   -1211296.23646   -943864.11661
  23340778.495     -885105.479 6   -656167.54721
 91  5  7 19  2 14.9990000  0  4G18G19G 2G11
  20500734.7144     165617.05848    129051.45462
  20673197.6204    -338996.40347   -264152.65262
  23595790.597    -1268496.096 6   -988435.26121
  23332971.6444    -926164.86146   -688161.78261
 91  5  7 19  2 29.9990000  0  4G18G19G 2G11
  20502411.0894     174429.90548    135918.57462
  20670359.730     -353924.543 7   -275784.95822
  23584912.1204   -1325661.57346  -1032979.61861
  23325176.8084    -967133.01246   -720084.91061
 91  5  7 19  2 44.9990000  0  4G18G19G 2G11
  20504110.3624     183357.13048    142874.81962
  20667523.5034    -368808.01647   -287382.45962
  23574044.245    -1382779.950 6  -1077487.28121
  23317399.2374   -1007997.03446   -751926.93361
 91  5  7 19  2 59.9990000  0  4G18G19G 2G11
  20505829.0974     192388.65748    149912.33862
  20664700.5194    -383656.78947   -298952.92462
  23563177.542    -1439860.861 5  -1121965.74621
  23309635.6124   -1048766.42446   -783695.18161
 91  5  7 19  3 14.9990000  0  4G18G19G 2G11
  20507569.4724     201531.27348    157036.42062
  20661880.6204    -398463.92547   -310490.93762
  23552324.8784   -1496897.35145  -1166409.61261
  23301897.042    -1089434.074 6   -815384.17021
 91  5  7 19  3 29.9990000  0  4G18G19G 2G11
  20509329.4014     210787.80848    164249.26862
  20659074.1204    -413226.50147   -321994.23362
  23541482.8154   -1553886.46345  -1210816.55861
  23294175.4484   -1129996.74146   -846991.35361
 91  5  7 19  3 44.9990000  0  4G18G19G 2G11
  20511114.3944     220160.06948    171552.29362
  20656270.542     -427942.876 7   -333461.52722
  23530649.034    -1610826.295 5  -1255185.09321
  23286483.0654   -1170452.32846   -878515.09761
 91  5  7 19  3 59.9990000  0  4G18G19G 2G11
  20512918.5734     229644.25248    178942.53062
  20653479.0264    -442616.68647   -344895.65762
  23519820.612    -1667720.490 5  -1299518.07221
  23278806.9174   -1210804.28746   -909958.08661
 91  5  7 19  4 14.9990000  0  4G18G19G 2G11
  20514743.8234     239243.45048    186422.38962
  20650696.0974    -457244.70447   -356294.10462
  23509001.8154   -1724565.46345  -1343812.70461
  23271146.9404   -1251049.02046   -941317.52961
 91  5  7 19  4 29.9990000  0  4G18G19G 2G11
  20516593.4014     248947.30248    193983.79162
  20647919.300     -471837.165 7   -367664.83922
  23498191.948    -1781371.358 5  -1388076.87421
  23263508.0814   -1291196.29946   -972601.02861
 91  5  7 19  4 44.9990000  0  4G18G19G 2G11
  20518459.7694     258763.81948    201632.98962
  20645149.6594    -486386.24247   -379001.77762
  23487394.0734   -1838130.28345  -1432304.46661
  23255887.0424   -1331238.03346  -1003802.28361
 91  5  7 19  4 59.9990000  0  4G18G19G 2G11
  20520347.5424     268685.61248    209364.21762
  20642390.2144    -500899.29747   -390310.64262
  23476599.659    -1894849.300 6  -1476500.94921
  23248285.8554   -1371181.09846  -1034926.65061
 91  5  7 19  5 14.9990000  0  4G18G19G 2G11
  20522256.6984     278714.25948    217178.71262
  20639633.4254    -515374.75447   -401590.21362
  23465812.1444   -1951526.69645  -1520665.00861
  23240701.1834   -1411023.66246  -1065972.70961
 91  5  7 19  5 29.9990000  0  4G18G19G 2G11
  20524185.5814     288847.36448    225074.60162
  20636887.0264    -529814.63047   -412842.06062
  23455034.0504   -2008164.55845  -1564798.24461
  23233134.667    -1450767.603 6  -1096941.91921
 91  5  7 19  5 44.9990000  0  4G18G19G 2G11
  20526133.2454     299091.31848    233056.86162
  20634146.0194    -544212.50247   -424061.17462
  23444265.2694   -2064756.23946  -1608895.50861
  23225598.0974   -1490406.03046  -1127828.89961
 91  5  7 19  5 59.9990000  0  4G18G19G 2G11
  20528104.3474     309445.51148    241125.02662
  20631415.3554    -558568.99947   -435248.04862
  23433506.761    -2121302.220 6  -1652957.16021
  23218074.4954   -1529939.15446  -1158633.84061
 91  5  7 19  6 14.9990000  0  4G18G19G 2G11
  20530096.597      319911.769 8    249280.51122
  20628689.3784    -572882.29547   -446401.25862
  23422754.597    -2177800.431 6  -1696981.59321
  23210567.714    -1569364.914 6  -1189355.11021
 91  5  7 19  6 29.9990000  0  4G18G19G 2G11
  20532108.3864     330485.98648    257520.12063
  20625977.1284    -587156.23747   -457523.80862
  23412010.526    -2234254.647 6  -1740971.73521
  23203090.3234   -1608686.78046  -1219995.42461
 91  5  7 19  6 44.9990000  0  4G18G19G 2G11
  20534140.3474     341168.55148    265844.15763
  20623265.3474    -601390.56547   -468615.48162
  23401276.0894   -2290664.26746  -1784927.13661
  23195627.394    -1647904.140 6  -1250554.32021
 91  5  7 19  6 59.9990000  0  4G18G19G 2G11
  20536196.0424     351962.32548    274254.85063
  20620565.2374    -615582.12347   -479673.83562
  23390547.823    -2347025.967 6  -1828845.20121
  23188186.667    -1687013.475 6  -1281029.02221
 91  5  7 19  7 14.9990000  0  4G18G19G 2G11
  20538270.7454     362864.66748    282750.14263
  20617871.7764    -629733.66047   -490701.00062
  23379832.6444   -2403342.46946  -1872728.04961
  23180760.8004   -1726017.16646  -1311421.41961
 91  5  7 19  7 29.9990000  0  4G18G19G 2G11
  20540364.9174     373873.45248    291328.37563
  20615186.9254    -643847.08947   -501698.46962
  23369126.519    -2459615.758 6  -1916577.21321
  23173354.823    -1764916.822 6  -1341732.74421
 91  5  7 19  7 44.9990000  0  4G18G19G 2G11
  20542479.5814     384986.80748    299988.09063
  20612508.4254    -657924.42947   -512667.82162
  23358424.6204   -2515847.65046  -1960394.12361
  23165977.6444   -1803714.19746  -1371964.36561
 91  5  7 19  7 59.9990000  0  4G18G19G 2G11
  20544612.5814     396200.30348    308725.83963
  20609837.5584    -671970.11147   -523612.50562
  23347730.050    -2572042.201 6  -2004181.93321
  23158606.5264   -1842413.32846  -1402119.44961
 91  5  7 19  8 14.9990000  0  4G18G19G 2G11
  20546767.456      407519.905 8    317546.26723
  20607168.4404    -685977.86547   -534527.63462
  23337043.0584   -2628193.08746  -2047935.71661
  23151271.4954   -1881007.61146  -1432192.81161
 91  5  7 19  8 29.9990000  0  4G18G19G 2G11
  20548940.6054     418939.33048    326444.47963
  20604510.0344    -699953.84247   -545418.00562
  23326368.3624   -2684306.43746  -2091660.25161
  23143938.0194   -1919502.92146  -1462189.06561
 91  5  7 19  8 44.9990000  0  4G18G19G 2G11
  20551133.4874     430458.64048    335420.52363
  20601855.7224    -713897.94047   -556283.53062
  23315697.722    -2740382.054 6  -2135355.39921
  23136639.511    -1957898.951 6  -1492107.95021
 91  5  7 19  8 59.9990000  0  4G18G19G 2G11
  20553343.9484     442075.97248    344472.95163
  20599209.0584    -727811.86547   -567125.54562
  23305032.9254   -2796421.34746  -2179022.22861
  23129347.8004   -1996196.90846  -1521950.43061
 91  5  7 19  9 14.9990000  0  4G18G19G 2G11
  20555574.9094     453796.50648    353605.79163
  20596567.5814    -741690.32547   -577939.92762
  23294374.4564   -2852418.93746  -2222656.56161
  23122080.6834   -2034391.36746  -1551712.25861
 91  5  7 19  9 29.9990000  0  4G18G19G 2G11
  20557823.878      465612.775 8    362813.23423
  20593932.5194    -755541.03647   -588732.68362
  23283726.1514   -2908382.44146  -2266264.33561
  23114827.9094   -2072489.58146  -1581399.08461
 91  5  7 19  9 44.9990000  0  4G18G19G 2G11
  20560090.8784     477532.70848    372101.45463
  20591302.6514    -769355.96047   -599497.55662
  23273085.526    -2964303.717 6  -2309839.21221
  23107596.4804   -2110483.22546  -1611004.43161
 91  5  7 19  9 59.9990000  0  4G18G19G 2G11
  20562377.175      489557.646 7    381471.49623
  20588682.0814    -783133.34247   -610233.17562
  23262454.4804   -3020180.84846  -2353379.67761
  23100388.0974   -2148370.22146  -1640526.67161
 91  5  7 19 10 14.9990000  0  4G18G19G 2G11
  20564687.0894     501686.90947    390922.82963
  20586067.0264    -796873.86547   -620940.07062
  23251827.1204   -3076014.44246  -2396886.21861
  23093200.5974   -2186151.04446  -1669966.18761
 91  5  7 19 10 29.9990000  0  4G18G19G 2G11
  20567013.839      513912.823 8    400449.47423
  20583457.4804    -810585.17847   -631624.20962
  23241209.8234   -3131811.88746  -2440364.60461
  23086029.2144   -2223833.00846  -1699328.67561
 91  5  7 19 10 44.9990000  0  4G18G19G 2G11
  20569360.9404     526248.04547    410061.29363
  20580855.4954    -824254.46247   -642275.59562
  23230602.284    -3187560.140 6  -2483804.65521
  23078875.8784   -2261402.90346  -1728603.82861
 91  5  7 19 10 59.9990000  0  4G18G19G 2G11
  20571727.3474     538685.39947    419752.69863
  20578264.6364    -837888.93547   -652899.85262
  23220001.1444   -3243266.46046  -2527212.02161
  23071752.2924   -2298867.62446  -1757797.02861
 91  5  7 19 11 14.9990000  0  4G18G19G 2G11
  20574114.2454     551224.40147    429523.30763
  20575673.6364    -851488.86947   -663497.20362
  23209406.9564   -3298931.08946  -2570586.91261
  23064642.097    -2336227.209 6  -1786908.30721
 91  5  7 19 11 29.9990000  0  4G18G19G 2G11
  20576518.011      563859.402 7    439368.71823
  20573094.0654    -865059.72847   -674071.89462
  23198821.0654   -3354559.32746  -2613933.44561
  23057554.292    -2373486.675 6  -1815941.58021
 91  5  7 19 11 44.9990000  0  4G18G19G 2G11
  20578941.8004     576592.98648    449290.95063
  20570514.6284    -878598.86547   -684621.86862
  23188244.136    -3410148.371 6  -2657249.43121
  23050477.995    -2410643.189 6  -1844894.63721
 91  5  7 19 11 59.9990000  0  4G18G19G 2G11
  20581385.0114     589439.01847    459300.80763
  20567946.9334    -892092.86047   -695136.66762
  23177677.9174   -3465684.38446  -2700524.09361
  23043430.565    -2447682.885 6  -1873756.65921
 91  5  7 19 12 14.9990000  0  4G18G19G 2G11
  20583850.315      602396.802 7    469397.74023
  20565386.4254    -905542.12947   -705616.60962
  23167117.105    -3521167.583 6  -2743757.60921
  23036406.065    -2484605.827 6  -1902527.70021
 91  5  7 19 12 29.9990000  0  4G18G19G 2G11
  20586340.245      615472.102 7    479586.24123
  20562837.5504    -918940.41847   -716056.83362
  23156569.3474   -3576591.85646  -2786945.20961
  23029403.5114   -2521405.64546  -1931202.81561
 91  5  7 19 12 44.9990000  0  4G18G19G 2G11
  20588850.308      628653.855 7    489857.69423
  20560295.2064    -932298.88047   -726466.02062
  23146033.8394   -3631968.18546  -2830095.44061
  23022423.3234   -2558092.97846  -1959790.28161
 91  5  7 19 12 59.9990000  0  4G18G19G 2G11
  20591378.909      641949.092 7    500217.57423
  20557764.4174    -945610.16347   -736838.44462
  23135506.6054   -3687289.18446  -2873202.56561
  23015462.9254   -2594660.52446  -1988284.39961
 91  5  7 19 13 14.9990000  0  4G18G19G 2G11
  20593928.940      655355.335 7    510663.95423
  20555238.0264    -958876.56247   -747175.89462
  23124986.8554   -3742557.17146  -2916268.38061
  23008525.6364   -2631110.20646  -2016686.67161
 91  5  7 19 13 29.9990000  0  4G18G19G 2G11
  20596502.464      668872.315 7    521196.62223
  20552722.3394    -972098.72647   -757478.87562
  23114478.3084   -3797772.32246  -2959293.01761
  23001614.925    -2667442.132 6  -2044997.19521
 91  5  7 19 13 44.9990000  0  4G18G19G 2G11
  20599095.480      682497.034 7    531813.24023
  20550216.8394    -985279.29547   -767749.44262
  23103981.5894   -3852937.28046  -3002278.56061
  22994721.808    -2703658.690 6  -2073217.81621
 91  5  7 19 13 59.9990000  0  4G18G19G 2G11
  20601708.612      696234.217 7    542517.49323
  20547715.2304    -998413.59447   -777983.95762
  23093496.8944   -3908047.20546  -3045221.21961
  22987852.097    -2739754.903 6  -2101344.67321
 91  5  7 19 14 14.9990000  0  4G18G19G 2G11
  20604340.894      710069.732 7    553298.36723
  20545223.6514   -1011515.37747   -788193.13462
  23083015.6204   -3963115.74446  -3088131.61461
  22981004.9094   -2775744.33046  -2129388.31961
 91  5  7 19 14 29.9990000  0  4G18G19G 2G11
  20606995.456      724016.298 7    564165.77723
  20542736.2224   -1024571.94347   -798367.07862
  23072546.6674   -4018130.26346  -3130999.92661
  22974178.1514   -2811614.02146  -2157338.65661
 91  5  7 19 14 44.9990000  0  4G18G19G 2G11
  20609669.862      738066.242 7    575113.73723
  20540262.7304   -1037590.84847   -808511.67562
  23062087.7764   -4073098.24746  -3173831.97261
  22967372.7764   -2847371.17246  -2185201.29761
 91  5  7 19 14 59.9990000  0  4G18G19G 2G11
  20612364.331      752220.171 8    586142.72323
  20537792.5264   -1050571.39347   -818626.37962
  23051637.151    -4128018.692 6  -3216626.97721
  22960589.230    -2883014.948 6  -2212975.61721
 91  5  7 19 15 14.9990000  0  4G18G19G 2G11
  20615077.190      766482.079 8    597255.85123
  20535329.6124   -1063509.43247   -828707.96162
  23041194.073    -4182887.046 6  -3259381.39721
  22953830.214    -2918540.635 6  -2240657.89421
 91  5  7 19 15 29.9990000  0  4G18G19G 2G11
  20617809.542      780846.694 8    608449.00923
  20532873.5814   -1076410.19947   -838760.50362
  23030762.7224   -4237708.69446  -3302099.42161
  22947089.6444   -2953953.23846  -2268252.07561
 91  5  7 19 15 44.9990000  0  4G18G19G 2G11
  20620564.355      795317.122 8    619724.61523
  20530428.6754   -1089270.12647   -848781.21962
  23020339.1124   -4292480.17646  -3344778.34761
  22940373.9254   -2989249.06146  -2295755.25261
 91  5  7 19 15 59.9990000  0  4G18G19G 2G11
  20623340.706      809905.669 7    631092.26223
  20527989.1984   -1102076.86547   -858760.49362
  23009929.933    -4347189.005 6  -3387408.46621
  22933683.4724   -3024415.49446  -2323157.59261
 91  5  7 19 16 14.9990000  0  5G18G16G19G 2G11
  20626136.503      824599.243 8    642541.74523
  23989446.6904         -0.27555
  20525562.3084   -1114843.55547   -868708.55862
  22999527.784    -4401848.132 6  -3429999.85421
  22927013.3554   -3059465.43546  -2350469.16461
 91  5  7 19 16 29.9990000  0  5G18G16G19G 2G11
  20628954.605      839409.305 8    654082.00023
  23982753.2454     -35198.81345
  20523142.7694   -1127558.59547   -878616.37462
  22989137.8474   -4456445.66046  -3472543.23761
  22920368.519    -3094386.961 6  -2377680.67821
 91  5  7 19 16 44.9990000  0  5G18G16G19G 2G11
  20631793.073      854322.623 8    665702.71723
  23976074.1594     -70282.72345
  20520729.9724   -1140235.39547   -888494.39462
  22978757.112    -4510995.002 6  -3515049.08021
  22913746.2374   -3129193.23846  -2404802.38961
 91  5  7 19 16 59.9990000  0  5G18G16G19G 2G11
  20634652.737      869350.581 8    677412.76223
  23969425.3554    -105239.77745
  20518325.2764   -1152862.27747   -898333.51662
  22968387.292    -4565484.210 6  -3557508.06321
  22907144.1904   -3163872.17546  -2431824.87161
 91  5  7 19 17 14.9990000  0  5G18G16G19G 2G11
  20637534.065      884497.164 8    689215.24423
  23962795.378     -140065.856 5
  20515933.9334   -1165434.79847   -908130.27762
  22958030.073    -4619908.989 6  -3599916.83321
  22900570.417    -3198419.027 6  -2458744.42721
 91  5  7 19 17 29.9990000  0  5G18G16G19G 2G11
  20640436.534      899747.570 8    701098.62223
  23956189.0114    -174775.73445
  20513547.9404   -1177967.67647   -917896.14962
  22947684.464    -4674283.957 6  -3642286.80121
  22894020.0974   -3232848.34146  -2485572.39961
 91  5  7 19 17 44.9990000  0  5G18G16G19G 2G11
  20643360.448      915105.367 8    713065.68523
  23949606.0264    -209365.66445        -0.30571
  20511172.8004   -1190457.59947   -927628.55362
  22937346.690    -4728605.448 6  -3684615.08721
  22887491.6594   -3267156.43246  -2512305.90761
 91  5  7 19 17 59.9990000  0  5G18G16G19G 2G11
  20646303.605      930572.831 8    725118.19623
  23943046.5584    -243833.02945    -26857.96861
  20508801.6904   -1202902.00647   -937325.48262
  22927022.4014   -4782870.84446  -3726899.66161
  22880983.6204   -3301340.54846  -2538942.81961
 91  5  7 19 18 14.9990000  0  5G18G16G19G 2G11
  20649266.386      946148.330 8    737254.89823
  23936513.862     -278178.922 5    -53621.00521
  20506444.9874   -1215302.39647   -946988.11962
  22916703.972    -4837081.538 6  -3769141.62821
  22874501.4174   -3335401.83146  -2565484.01861
 91  5  7 19 18 29.9990000  0  5G18G16G19G 2G11
  20652251.456      961831.791 8    749475.72423
  23929999.6514    -312402.98545    -80289.07761
  20504092.1204   -1227658.78947   -956616.46962
  22906399.730    -4891237.269 6  -3811340.75321
  22868046.190    -3369340.035 6  -2591929.30221
 91  5  7 19 18 44.9990000  0  5G18G16G19G 2G11
  20655255.6124     977618.41648    761776.93163
  23923510.573     -346510.074 5   -106866.02121
  20501750.8554   -1239975.67847   -966214.03862
  22896101.3864   -4945342.57646  -3853500.59061
  22861610.3234   -3403159.34946  -2618281.94161
 91  5  7 19 18 59.9990000  0  5G18G16G19G 2G11
  20658282.0194     993521.54948    774168.92463
  23917045.4404    -380486.83145   -133341.43361
  20499416.6754   -1252239.55847   -975770.30062
  22885817.917    -4999383.855 6  -3895610.53921
  22855198.581    -3436846.253 6  -2644531.40021
 91  5  7 19 19 14.9990000  0  5G18G16G19G 2G11
  20661328.183     1009536.364 7    786647.94723
  23910606.9334    -414337.48745   -159718.54461
  20497091.6674   -1264455.31247   -985289.06162
  22875546.659    -5053365.845 6  -3937674.28421
  22848811.1204   -3470405.18546  -2670681.15061
 91  5  7 19 19 29.9990000  0  5G18G16G19G 2G11
  20664396.276     1025661.105 7    799212.62323
  23904184.0194    -448063.41745   -185998.50761
  20494774.1984   -1276624.54847   -994771.57862
  22865284.300    -5107290.195 6  -3979693.11821
  22842453.886    -3503837.488 6  -2696732.23021
 91  5  7 19 19 44.9990000  0  5G18G16G19G 2G11
  20667487.2694    1041894.73247    811862.14663
  23897789.7144    -481665.62145   -212182.03061
  20492469.5654   -1288748.02047  -1004218.43362
  22855033.698    -5161157.536 6  -4021667.52921
  22836114.5344   -3537143.77546  -2722685.10261
 91  5  7 19 19 59.9990000  0  5G18G16G19G 2G11
  20670597.4334    1058236.25847    824595.74663
  23891419.1124    -515144.92445   -238269.78661
  20490167.7534   -1300826.62147  -1013630.32662
  22844793.792    -5214968.652 6  -4063598.12821
  22829798.4334   -3570324.65046  -2748540.25961
 91  5  7 19 20 14.9990000  0  5G18G16G19G 2G11
  20673728.2454    1074683.34748    837411.60563
  23885074.5734    -548503.31845   -264263.32861
  20487879.1904   -1312862.83547  -1023009.18862
  22834564.151    -5268725.886 6  -4105486.74521
  22823503.495    -3603382.179 6  -2774299.30421
 91  5  7 19 20 29.9990000  0  5G18G16G19G 2G11
  20676875.7694    1091229.26447    850304.46963
  23878747.7764    -581747.22045   -290167.69161
  20485594.7614   -1324862.92947  -1032359.90462
  22824343.362    -5322435.323 6  -4147338.11021
  22817242.651    -3636322.398 6  -2799966.92921
 91  5  7 19 20 44.9990000  0  5G18G16G19G 2G11
  20680044.487     1107884.315 7    863282.37723
  23872445.3474    -614866.18645   -315974.66061
  20483321.4174   -1336816.49847  -1041674.37162
  22814134.792    -5376086.419 6  -4189144.02221
  22810992.667    -3669134.638 6  -2825534.82821
 91  5  7 19 20 59.9990000  0  5G18G16G19G 2G11
  20683234.792     1124644.457 7    876342.16723
  23866165.183     -647863.655 5   -341686.94121
  20481053.0344   -1348726.93547  -1050955.22962
  22803934.511    -5429682.580 6  -4230907.12521
  22804772.9094   -3701822.34246  -2851005.69861
 91  5  7 19 21 14.9990000  0  5G18G16G19G 2G11
  20686442.987     1141510.810 7    889484.72423
  23859909.378     -680738.363 5   -367303.59521
  20478796.3624   -1360593.43547  -1060201.84962
  22793746.167    -5483223.085 6  -4272626.84921
  22798581.940    -3734384.362 6  -2876378.62421
 91  5  7 19 21 29.9990000  0  5G18G16G19G 2G11
  20689674.5654    1158484.92647    902711.24963
  23853674.9484    -713488.86045   -392823.44461
  20476545.5894   -1372414.48747  -1069413.05862
  22783569.136    -5536706.325 6  -4314301.96221
  22792405.112    -3766819.020 6  -2901652.30421
 91  5  7 19 21 44.9990000  0  5G18G16G19G 2G11
  20692923.081     1175560.492 7    916016.83023
  23847467.6054    -746120.96845   -418251.09061
  20474305.7614   -1384196.20247  -1078593.60862
  22773400.6594   -5590138.08046  -4355936.95561
  22786255.417    -3799131.835 6  -2926831.04621
 91  5  7 19 21 59.9990000  0  5G18G16G19G 2G11
  20696191.933     1192741.861 7    929404.85523
  23841280.237     -778630.286 5   -443583.03221
  20472071.0974   -1395933.97347  -1087739.92362
  22763245.159    -5643513.707 6  -4397528.21221
  22780133.159    -3831318.089 6  -2951911.16421
 91  5  7 19 22 14.9990000  0  5G18G16G19G 2G11
  20699480.3314    1210027.24347    942873.92663
  23835115.9094    -811017.87045   -468820.08361
  20469846.8154   -1407629.39347  -1096853.23462
  22753098.183    -5696834.683 6  -4439076.88421
  22774030.284    -3863379.186 6  -2976893.75221
 91  5  7 19 22 29.9990000  0  5G18G16G19G 2G11
  20702790.347     1227418.742 7    956425.68823
  23828979.808     -843281.725 5   -493960.72521
  20467627.5424   -1419280.32947  -1105931.88062
  22742962.3784   -5750098.69046  -4480581.16261
  22767954.4254   -3895312.70946  -3001776.94961
 91  5  7 19 22 44.9990000  0  5G18G16G19G 2G11
  20706120.9564    1244913.42147    970057.84763
  23822864.6834    -875424.22745   -519006.83161
  20465421.7304   -1430889.42447  -1114977.92862
  22732837.183    -5803308.449 6  -4522043.17221
  22761903.862    -3927121.112 6  -3026562.63821
 91  5  7 19 22 59.9990000  0  5G18G16G19G 2G11
  20709468.6204    1262504.90547    983765.43963
  23816768.9804    -907451.71045   -543963.34461
  20463216.1594   -1442462.90447  -1123996.22162
  22722719.394    -5856469.964 6  -4563467.59021
  22755870.5344   -3958810.44946  -3051255.55861
 91  5  7 19 23 14.9990000  0  5G18G16G19G 2G11
  20712836.7064    1280198.96947    997552.96563
  23810689.0504    -939358.36845   -568825.66761
  20461023.6444   -1453995.11047  -1132982.34962
  22712613.011    -5909577.591 6  -4604850.01821
  22749865.636    -3990374.767 6  -3075851.06121
 91  5  7 19 23 29.9990000  0  5G18G16G19G 2G11
  20716223.7694    1298000.36447   1011424.12263
  23804648.5114    -971138.70145   -593589.52661
  20458835.1674   -1465480.68447  -1141932.14562
  22702517.956    -5962625.899 6  -4646186.22421
  22743884.370    -4021808.506 6  -3100344.80521
 91  5  7 19 23 44.9990000  0  5G18G16G19G 2G11
  20719629.2304    1315904.39247   1025375.25463
  23798626.0424   -1002797.16545   -618258.46061
  20456658.9804   -1476924.35347  -1150849.28562
  22692433.394    -6015619.338 6  -4687479.67921
  22737926.4484   -4053116.18246  -3124740.32561
 91  5  7 19 23 59.9990000  0  5G18G16G19G 2G11
  20723055.612     1333910.099 7   1039405.61823
  23792623.972    -1034334.769 5   -642833.22821
  20454491.4094   -1488326.74447  -1159734.25862
  22682360.198    -6068558.776 6  -4728731.05121
  22731988.7614   -4084298.26646  -3149037.98361
 91  5  7 19 24 14.9990000  0  5G18G16G19G 2G11
  20726502.9724    1352024.46247   1053520.64463
  23786644.6594   -1065744.57445   -667308.41561
  20452329.5654   -1499681.05447  -1168581.77162
  22672295.480    -6121437.168 6  -4769934.85721
  22726084.6594   -4115347.63346  -3173232.22961
 91  5  7 19 24 29.9990000  0  5G18G16G19G 2G11
  20729968.7454    1370243.51047   1067717.24963
  23780689.2454   -1097030.00145   -691686.63661
  20450179.2924   -1510990.90747  -1177394.63662
  22662245.956    -6174258.092 6  -4811093.88521
  22720196.9174   -4146267.61946  -3197325.65361
 91  5  7 19 24 44.9990000  0  5G18G16G19G 2G11
  20733458.5654    1388574.10747   1082000.77063
  23774763.730    -1128183.928 5   -715962.41721
  20448035.6204   -1522249.56547  -1186167.61062
  22652205.558    -6227014.443 6  -4852202.59321
  22714342.9724   -4177051.02246  -3221312.64361
 91  5  7 19 24 59.9990000  0  5G18G16G19G 2G11
  20736967.2374    1407010.53947   1096366.76163
  23768862.4874   -1159211.38745   -740139.66661
  20445901.3004   -1533462.20847  -1194904.73262
  22642178.237    -6279711.360 6  -4893264.99221
  22708510.1594   -4207702.98346  -3245197.22461
 91  5  7 19 25 14.9990000  0  5G18G16G19G 2G11
  20740494.5264    1425550.54547   1110813.46463
  23762976.6054   -1190114.67645   -764220.15861
  20443775.6054   -1544631.11847  -1203607.77062
  22632161.925    -6332351.110 6  -4934282.84621
  22702701.3004   -4238225.67246  -3268981.07061
 91  5  7 19 25 29.9990000  0  5G18G16G19G 2G11
  20744043.292     1444197.667 7   1125343.62823
  23757119.6444   -1220889.98445   -788200.87561
  20441658.0344   -1555752.54247  -1212273.80662
  22622157.190    -6384929.911 6  -4975253.20321
  22696919.3554   -4268615.00446  -3292661.00261
 91  5  7 19 25 44.9990000  0  5G18G16G19G 2G11
  20747612.2374    1462949.26047   1139955.20163
  23751289.925    -1251539.682 5   -812083.77921
  20439551.5424   -1566828.95347  -1220904.77062
  22612162.339    -6437450.189 6  -5016177.96121
  22691160.151    -4298873.353 6  -3316238.86921
 91  5  7 19 25 59.9990000  0  5G18G16G19G 2G11
  20751199.0344    1481796.04947   1154640.95063
  23745479.1284   -1282073.26245   -835876.16561
  20437448.6054   -1577869.73447  -1229507.96762
  22602177.573    -6489921.026 6  -5057064.20221
  22685422.4484   -4329009.70546  -3339721.68061
 91  5  7 19 26 14.9990000  0  5G18G16G19G 2G11
  20754806.6834    1500755.33847   1169414.36063
  23739692.9644   -1312472.91245   -859564.20861
  20435359.1054   -1588857.11647  -1238069.55662
  22592203.886    -6542324.939 6  -5097898.28421
  22679719.2534   -4359006.37946  -3363095.65061
 91  5  7 19 26 29.9990000  0  5G18G16G19G 2G11
  20758433.1054    1519812.23147   1184263.82363
  23733929.8784   -1342752.77345   -883158.88061
  20433278.3864   -1599805.61447  -1246600.84262
  22582242.7534   -6594676.20946  -5138691.35061
  22674032.6904   -4388877.45946  -3386371.75261
 91  5  7 19 26 44.9990000  0  5G18G16G19G 2G11
  20762079.7064    1538967.60447   1199190.02463
  23728191.3394   -1372912.31645   -906659.81861
  20431198.9724   -1610714.55847  -1255101.31262
  22572291.6284   -6646973.97146  -5179442.72061
  22668370.2614   -4418621.97946  -3409549.24161
 91  5  7 19 26 59.9990000  0  5G18G16G19G 2G11
  20765743.1514    1558229.06147   1214198.89363
  23722474.9724   -1402943.74645   -930060.90261
  20429130.7454   -1621576.05847  -1263564.81162
  22562349.8624   -6699210.33246  -5220146.25561
  22662736.7924   -4448231.87346  -3432621.82661
 91  5  7 19 27 14.9990000  0  5G18G16G19G 2G11
  20769427.3234    1577587.72047   1229283.49763
  23716785.0584   -1432855.30445   -953368.61461
  20427074.2614   -1632398.60947  -1271997.96262
  22552418.894    -6751393.738 6  -5260808.51921
  22657127.9954   -4477715.66546  -3455596.14661
 91  5  7 19 27 29.9990000  0  5G18G16G19G 2G11
  20773130.5974    1597048.28747   1244447.51663
  23711119.9174   -1462642.32345   -976579.26361
  20425020.7374   -1643177.41747  -1280397.02562
  22542501.6124   -6803519.32246  -5301425.72761
  22651539.5034   -4507068.26746  -3478468.23961
 91  5  7 19 27 44.9990000  0  5G18G16G19G 2G11
  20776856.1124    1616621.21447   1259699.08263
  23705477.8784   -1492293.60245   -999684.17061
  20422982.5194   -1653901.73047  -1288753.62462
  22532593.5584   -6855576.21146  -5341989.40961
  22645979.4954   -4536278.77046  -3501229.61561
 91  5  7 19 27 59.9990000  0  5G18G16G19G 2G11
  20780599.6754    1636288.97947   1275024.55063
  23699858.1124   -1521826.61545  -1022696.86961
  20420947.9564   -1664588.95047  -1297081.32262
  22522698.230    -6907581.594 6  -5382512.95821
  22640450.972    -4565364.232 6  -3523893.54421
 91  5  7 19 28 14.9990000  0  5G18G16G19G 2G11
  20784359.7144    1656058.26747   1290429.13063
  23694256.230    -1551234.792 5  -1045612.29721
  20418923.0894   -1675232.54647  -1305375.02362
  22512812.5734   -6959529.05546  -5422991.37361
  22634938.3944   -4594317.90846  -3546454.79761
 91  5  7 19 28 29.9990000  0  5G18G16G19G 2G11
  20788141.7844    1675932.42747   1305915.42363
  23688685.159    -1580514.306 5  -1068427.53521
  20416905.6054   -1685828.84247  -1313631.86962
  22502936.7454   -7011414.75346  -5463421.66261
  22629453.831    -4623135.883 6  -3568910.30821
 91  5  7 19 28 44.9990000  0  5G18G16G19G 2G11
  20791942.3474    1695908.32247   1321480.99563
  23683138.698    -1609667.982 5  -1091144.66621
  20414900.1984   -1696380.73447  -1321854.11562
  22493076.065    -7063241.643 6  -5503806.12821
  22623996.1834   -4651820.97746  -3591262.27561
 91  5  7 19 28 59.9990000  0  5G18G16G19G 2G11
  20795762.6124    1715978.38347   1337119.93863
  23677612.042    -1638703.319 5  -1113769.58921
  20412898.6674   -1706895.58847  -1330047.49962
  22483223.4954   -7115016.96346  -5544150.40861
  22618562.1904   -4680380.30046  -3613516.23561
 91  5  7 19 29 14.9990000  0  5G18G16G19G 2G11
  20799601.7304    1736150.40247   1352838.32663
  23672110.7224   -1667612.43545  -1136296.12361
  20410906.4484   -1717365.33747  -1338205.73862
  22473381.2844   -7166732.46146  -5584448.07961
  22613151.745    -4708805.697 6  -3635665.84321
 91  5  7 19 29 29.9990000  0  5G18G16G19G 2G11
  20803460.3084    1756422.57947   1368634.76163
  23666639.480    -1696396.492 5  -1158725.22721
  20408918.0894   -1727791.77447  -1346330.22862
  22463553.3944   -7218389.94746  -5624700.54761
  22607768.0424   -4737098.80446  -3657712.35961
 91  5  7 19 29 44.9990000  0  5G18G16G19G 2G11
  20807336.3314    1776789.35347   1384504.91263
  23661183.026    -1725060.553 5  -1181060.91121
  20406944.5424   -1738180.00947  -1354424.94662
  22453731.7614   -7269994.53846  -5664911.79661
  22602405.495    -4765264.466 6  -3679659.58221
 91  5  7 19 29 59.9990000  0  5G18G16G19G 2G11
  20811230.3234    1797257.03147   1400453.68063
  23655749.9724   -1753598.22745  -1203298.07961
  20404975.2764   -1748523.80047  -1362485.03762
  22443923.9254   -7321539.88246  -5705076.88461
  22597070.8784   -4793296.26346  -3701502.47561
 91  5  7 19 30 14.9990000  0  5G18G16G19G 2G11
  20815143.6514    1817826.31447   1416481.62963
  23650344.1594   -1782008.85745  -1225436.11861
  20403017.1674   -1758822.12047  -1370509.69562
  22434126.7374   -7373024.80346  -5745194.88261
  22591766.550    -4821192.876 6  -3723240.04521
 91  5  7 19 30 29.9990000  0  5G18G16G19G 2G11
  20819075.4954    1838494.78247   1432586.86363
  23644958.8234   -1810294.72645  -1247477.04661
  20401063.7534   -1769077.28747  -1378500.72862
  22424338.5894   -7424451.75846  -5785267.71861
  22586481.2454   -4848956.57446  -3744874.03861
 91  5  7 19 30 44.9990000  0  5G18G16G19G 2G11
  20823028.2304    1859261.28147   1448768.48563
  23639602.690    -1838456.723 5  -1269421.52521
  20399123.5114   -1779290.34747  -1386458.95062
  22414564.714    -7475821.500 6  -5825295.97421
  22581222.542    -4876588.105 6  -3766405.05121
 91  5  7 19 30 59.9990000  0  5G18G16G19G 2G11
  20827000.0344    1880129.34447   1465029.24263
  23634264.128    -1866490.757 5  -1291266.17521
  20397185.7064   -1789457.13847  -1394381.12262
  22404800.589    -7527130.076 6  -5865276.56721
  22575991.8394   -4904083.29146  -3787829.81661
 91  5  7 19 31 14.9980000  0  5G18G16G19G 2G11
  20830989.0454    1901095.33647   1481366.31563
  23628957.1314   -1894397.08545  -1313011.32761
  20395260.1234   -1799579.52747  -1402268.69362
  22395048.490    -7578376.211 6  -5905208.51021
  22570784.186    -4931442.483 6  -3809148.61121
 91  5  7 19 31 29.9980000  0  5G18G16G19G 2G11
  20835000.7724    1922176.23447   1497792.91963
  23623674.0614   -1922164.88545  -1334648.58261
  20393345.6784   -1809644.25847  -1410111.33962
  22385309.717    -7629552.062 6  -5945085.68421
  22565603.701    -4958654.592 6  -3830352.80621
 91  5  7 19 31 44.9980000  0  5G18G16G19G 2G11
  20839033.123     1943359.122 7   1514298.99423
  23618414.6394   -1949804.32145  -1356185.79761
  20391438.7014   -1819662.16047  -1417917.49062
  22375582.8654   -7680665.67946  -5984914.36261
  22560457.178    -4985729.266 6  -3851449.90021
 91  5  7 19 31 59.9980000  0  5G18G16G19G 2G11
  20843083.2644    1964641.52847   1530882.61663
  23613174.1544   -1977317.08145  -1377624.30761
  20389540.2324   -1829635.38847  -1425688.83862
  22365867.889    -7731719.237 6  -6024696.24221
  22555328.9044   -5012668.43746  -3872441.42261
 91  5  7 19 32 14.9980000  0  6G18G16G 6G19G 2G11
  20847152.3184    1986024.21747   1547544.38463
  23607970.9514   -2004701.77945  -1398963.02861
  23995028.6154     -45747.20645
  20387651.4824   -1839562.92947  -1433424.58362
  22356163.2174   -7782711.47546  -6064430.33861
  22550231.9594   -5039470.76846  -3893326.29361
 91  5  7 19 32 29.9980000  0  6G18G16G 6G19G 2G11
  20851239.6784    2007505.02447   1564282.60663
  23602782.7014   -2031960.44245  -1420203.52361
  23986319.9674     -91489.60345
  20385770.1154   -1849446.75747  -1441126.26762
  22346473.1624   -7833644.35546  -6104118.18861
  22545151.0144   -5066138.03546  -3914105.95061
 91  5  7 19 32 44.9980000  0  6G18G16G 6G19G 2G11
  20855345.0924    2029084.26147   1581097.52863
  23597620.6934   -2059092.75545  -1441345.60061
  23977620.084     -137226.999 5
  20383899.0684   -1859286.37747  -1448793.50362
  22336791.451    -7884517.569 6  -6143759.54321
  22540103.647    -5092669.651 6  -3934779.88421
 91  5  7 19 32 59.9980000  0  6G18G16G 6G19G 2G11
  20859469.6704    2050760.85847   1597988.30763
  23592480.0764   -2086099.53345  -1462389.82461
  23968919.8504    -182960.40945
  20382033.2014   -1869082.47747  -1456426.83162
  22327120.842    -7935331.848 6  -6183354.97221
  22535082.0924   -5119066.24846  -3955348.62161
 91  5  7 19 33 14.9980000  0  6G18G16G 6G19G 2G11
  20863612.4594    2072534.27747   1614954.53863
  23587363.654    -2112981.362 5  -1483336.68221
  23960213.623     -228690.397 5        -0.49931
  20380178.5374   -1878835.69547  -1464026.74162
  22317464.6394   -7986087.43246  -6222904.66561
  22530084.350    -5145328.188 6  -3975812.42521
 91  5  7 19 33 29.9980000  0  6G18G16G 6G19G 2G11
  20867776.6394    2094417.45247   1632006.29563
  23582270.748    -2139724.942 5  -1504175.86421
  23951519.8114    -274403.85145    -35621.24661
  20378331.4204   -1888532.94147  -1471583.03862
  22307818.412    -8036771.105 6  -6262398.32221
  22525116.053    -5171442.199 6  -3996160.96421
 91  5  7 19 33 44.9980000  0  6G18G16G 6G19G 2G11
  20871960.4674    2116406.93847   1649140.88763
  23577209.772    -2166333.148 5  -1524909.52321
  23942820.2324    -320103.78245    -71231.43061
  20376497.9284   -1898177.10847  -1479097.97562
  22298186.678    -8087385.917 6  -6301838.32321
  22520170.326    -5197411.069 6  -4016396.39921
 91  5  7 19 33 59.9980000  0  6G18G16G 6G19G 2G11
  20876166.6314    2138499.94547   1666356.14863
  23572175.522    -2192808.801 5  -1545539.86221
  23934127.764     -365793.203 5   -106833.45721
  20374669.9204   -1907771.02047  -1486573.74962
  22288567.053    -8137934.488 6  -6341226.70521
  22515256.373    -5223237.344 6  -4036520.73121
 91  5  7 19 34 14.9980000  0  6G18G16G 6G19G 2G11
  20880390.7874    2160704.41847   1683658.26763
  23567158.4824   -2219143.71845  -1566060.60061
  23925432.0614    -411463.92745   -142420.92961
  20372859.6074   -1917306.35447  -1494003.88262
  22278960.701    -8188408.656 6  -6380557.10821
  22510369.498    -5248912.762 6  -4056527.51221
 91  5  7 19 34 29.9980000  0  6G18G16G 6G19G 2G11
  20884638.0764    2183016.15047   1701043.95663
  23562172.7404   -2245341.83545  -1586474.71061
  23916743.100     -457120.187 5   -177997.11421
  20371051.0924   -1926787.17847  -1501391.54162
  22269370.318    -8238812.372 6  -6419832.61621
  22505515.779    -5274441.298 6  -4076419.83421
 91  5  7 19 34 44.9980000  0  6G18G16G 6G19G 2G11
  20888901.4904    2205421.34747   1718502.48663
  23557210.7644   -2271416.73745  -1606792.81861
  23908056.6474    -502775.65745   -213572.69461
  20369257.5614   -1936227.14247  -1508747.35862
  22259789.709    -8289159.142 6  -6459063.75221
  22500681.3734   -5299836.29246  -4096208.11161
 91  5  7 19 34 59.9980000  0  6G18G16G 6G19G 2G11
  20893181.8734    2227914.64847   1736029.66463
  23552274.4674   -2297373.16445  -1627018.59761
  23899365.0144    -548435.23745   -249151.46061
  20367467.0294   -1945631.25547  -1516075.24162
  22250217.451    -8339453.923 6  -6498254.38021
  22495873.9904   -5325102.57646  -4115896.08661
 91  5  7 19 35 14.9980000  0  6G18G16G 6G19G 2G11
  20897481.9434    2250509.04147   1753635.61163
  23547360.482    -2323198.078 5  -1647141.93821
  23890681.381     -594085.847 5   -284723.23221
  20365688.5764   -1954986.26547  -1523364.86162
  22240659.217    -8389683.535 6  -6537394.21921
  22491094.6394   -5350226.82946  -4135473.39061
 91  5  7 19 35 29.9980000  0  6G18G16G 6G19G 2G11
  20901799.8504    2273199.93247   1771316.76162
  23542466.107    -2348896.028 5  -1667166.29321
  23881995.701     -639732.279 5   -320291.76521
  20363913.4824   -1964296.80847  -1530619.83362
  22231113.779    -8439852.440 6  -6576486.75721
  22486339.6394   -5375213.39346  -4154943.41761
 91  5  7 19 35 44.9980000  0  6G18G16G 6G19G 2G11
  20906136.5534    2295986.54747   1789072.49562
  23537599.662    -2374467.594 5  -1687092.16521
  23873304.850     -685375.000 4   -355857.43621
  20362152.9824   -1973563.31847  -1537840.49262
  22221577.6934   -8489961.05146  -6615532.30461
  22481605.4824   -5400062.69646  -4174306.47661
 91  5  7 19 35 59.9980000  0  6G18G16G 6G19G 2G11
  20910490.428     2318866.975 7   1806901.32723
  23532763.826    -2399914.566 5  -1706920.99321
  23864626.639     -731015.753 5   -391421.53821
  20360395.4824   -1982787.41747  -1545028.10662
  22212053.2644   -8540010.96146  -6654532.11761
  22476905.1934   -5424776.13746  -4193563.66461
 91  5  7 19 36 14.9980000  0  6G18G16G 6G19G 2G11
  20914863.8974    2341845.84847   1824806.87562
  23527940.701    -2425231.863 5  -1726648.76221
  23855939.8974    -776649.70045   -426980.31961
  20358652.7954   -1991964.23847  -1552178.87862
  22202542.4434   -8589997.19346  -6693482.30861
  22472230.8974   -5449348.71446  -4212711.09761
 91  5  7 19 36 29.9980000  0  6G18G16G 6G19G 2G11
  20919253.3894    2364913.15947   1842781.33162
  23523148.537    -2450429.257 5  -1746283.05921
  23847255.272     -822286.967 5   -462541.73621
  20356913.4824   -2001103.81347  -1559300.62562
  22193040.4824   -8639929.65946  -6732390.60261
  22467577.7404   -5473790.36946  -4231756.51061
 91  5  7 19 36 44.9980000  0  6G18G16G 6G19G 2G11
  20923661.7794    2388078.06747   1860831.84362
  23518378.568    -2475497.331 5  -1765816.66021
  23838574.092     -867918.063 5   -498098.31021
  20355181.9514   -2010196.47047  -1566385.81362
  22183549.7254   -8689798.71146  -6771249.48561
  22462952.1394   -5498091.30046  -4250692.27461
 91  5  7 19 36 59.9980000  0  6G18G16G 6G19G 2G11
  20928089.8504    2411348.38447   1878964.49062
  23513631.779    -2500427.947 5  -1785243.08421
  23829890.6314    -913535.07945   -533643.94361
  20353460.7954   -2019234.22247  -1573428.22062
  22174073.1784   -8739596.47646  -6810052.82161
  22458359.8734   -5522243.34346  -4269512.01361
 91  5  7 19 37 14.9980000  0  6G18G16G 6G19G 2G11
  20932537.3184    2434715.56447   1897172.61062
  23508913.6004   -2525229.46545  -1804568.94261
  23821208.787     -959146.474 4   -569185.15921
  20351750.8184   -2028225.43747  -1580434.35762
  22164608.811    -8789331.012 6  -6848806.89121
  22453790.8034   -5546254.72546  -4288222.14761
 91  5  7 19 37 29.9980000  0  6G18G16G 6G19G 2G11
  20937001.0294    2458175.79447   1915453.23962
  23504221.490    -2549905.748 5  -1823797.23721
  23812529.764    -1004755.933 4   -604724.90321
  20350047.9284   -2037173.85547  -1587407.15062
  22155157.5764   -8839006.20646  -6887514.71261
  22449245.6704   -5570129.01146  -4306825.45461
 91  5  7 19 37 44.9980000  0  6G18G16G 6G19G 2G11
  20941482.6234    2481732.90447   1933809.36162
  23499549.9284   -2574452.48645  -1842924.56561
  23803855.8574   -1050359.65044   -640260.15061
  20348355.3654   -2046075.47547  -1594343.47562
  22145715.8974   -8888617.84346  -6926173.01261
  22444728.4674   -5593862.01546  -4325318.66761
 91  5  7 19 37 59.9980000  0  6G18G16G 6G19G 2G11
  20945985.4044    2505389.29347   1952242.83962
  23494899.928    -2598867.052 5  -1861948.92121
  23795180.5924   -1095954.87844   -675788.77361
  20346667.7404   -2054927.48147  -1601241.13962
  22136287.131    -8938163.278 6  -6964779.73121
  22440239.2564   -5617450.96846  -4343699.65061
 91  5  7 19 38 14.9980000  0  6G18G16G 6G19G 2G11
  20950505.1154    2529136.80147   1970747.32462
  23490276.3264   -2623157.35945  -1880876.40361
  23786500.248    -1141549.644 4   -711317.06121
  20344993.2174   -2063737.75847  -1608106.28762
  22126869.209    -8987650.154 6  -7003340.81621
  22435779.2794   -5640903.56246  -4361974.36461
 91  5  7 19 38 29.9980000  0  6G18G16G 6G19G 2G11
  20955040.0454    2552978.68047   1989325.34562
  23485675.3424   -2647319.98345  -1899704.47061
  23777827.7324   -1187140.57745   -746842.34861
  20343322.9284   -2072502.92147  -1614936.28062
  22117465.600    -9037075.046 6  -7041853.59921
  22431341.1544   -5664216.18246  -4380140.00661
 91  5  7 19 38 44.9980000  0  6G18G16G 6G19G 2G11
  20959595.639     2576922.028 7   2007982.42722
  23481112.693    -2671347.392 5  -1918427.08221
  23769148.357    -1232720.299 4   -782358.91021
  20341667.6544   -2081215.47947  -1621725.28462
  22108071.7174   -9086430.72546  -7080312.45161
  22426931.193    -5687381.359 6  -4398190.76721
 91  5  7 19 38 59.9980000  0  6G18G16G 6G19G 2G11
  20964173.0844    2600971.27347   2026722.03462
  23476559.123    -2695235.254 5  -1937041.01921
  23760485.6864   -1278284.37844   -817863.26561
  20340022.9434   -2089870.86847  -1628469.73562
  22098694.631    -9135712.430 6  -7118713.66121
  22422552.3424   -5710394.40946  -4416122.97161
 91  5  7 19 39 14.9980000  0  6G18G16G 6G19G 2G11
  20968767.8114    2625115.61847   2045535.74062
  23472043.3504   -2718994.37845  -1955554.61961
  23751813.959    -1323843.694 4   -853363.92421
  20338382.1934   -2098479.89947  -1635178.07162
  22089327.686    -9184930.897 6  -7157065.59621
  22418202.928    -5733266.008 6  -4433944.97321
 91  5  7 19 39 29.9980000  0  6G18G16G 6G19G 2G11
  20973379.1704    2649349.63147   2064419.32062
  23467549.272    -2742629.226 5  -1973971.36721
  23743137.5924   -1369402.87743   -888864.48061
  20336749.6624   -2107047.30147  -1641853.96162
  22079973.381    -9234090.709 6  -7195371.83721
  22413877.662    -5756000.615 6  -4451660.20421
 91  5  7 19 39 44.9980000  0  6G18G16G 6G19G 2G11
  20978011.4284    2673683.16147   2083380.44262
  23463076.8034   -2766129.97045  -1992283.64561
  23734469.2014   -1414952.38443   -924357.48661
  20335131.1004   -2115563.20047  -1648489.72262
  22070630.373    -9283181.984 6  -7233624.66821
  22409577.5764   -5778588.19846  -4469260.89161
 91  5  7 19 39 59.9980000  0  6G18G16G 6G19G 2G11
  20982658.1704    2698106.96647   2102411.91163
  23458627.4824   -2789506.13845  -2010498.84261
  23725803.732    -1460501.429 4   -959850.14621
  20333516.6784   -2124036.90647  -1655092.60262
  22061300.818    -9332214.036 6  -7271831.35121
  22405306.022    -5801038.072 6  -4486754.26121
 91  5  7 19 40 14.9980000  0  6G18G16G 6G19G 2G11
  20987323.2254    2722623.12547   2121515.34062
  23454199.240    -2812755.320 5  -2028615.11021
  23717141.662    -1506047.710 4   -995340.64521
  20331916.2094   -2132465.84747  -1661660.60762
  22051981.756    -9381184.214 6  -7309989.81621
  22401061.8424   -5823347.56246  -4504138.25661
 91  5  7 19 40 29.9980000  0  6G18G16G 6G19G 2G11
  20992006.2094    2747231.38247   2140690.53962
  23449803.1074   -2835877.38745  -2046632.32261
  23708474.725    -1551591.515 4  -1030829.19521
  20330319.0374   -2140850.33347  -1668193.96562
  22042676.162    -9430092.899 6  -7348100.37221
  22396841.2644   -5845516.87046  -4521413.00661
 91  5  7 19 40 44.9980000  0  6G18G16G 6G19G 2G11
  20996706.7954    2771932.43447   2159938.04162
  23445427.6934   -2858871.35645  -2064549.67261
  23699809.4044   -1597131.73344  -1066314.96961
  20328733.4284   -2149189.19647  -1674691.77662
  22033380.639    -9478938.931 6  -7386162.10621
  22392651.7324   -5867544.68146  -4538577.49461
 91  5  7 19 40 59.9980000  0  6G18G16G 6G19G 2G11
  21001424.967     2796725.327 7   2179257.10622
  23441075.3114   -2881737.70645  -2082367.63861
  23691144.092    -1642669.066 5  -1101798.49821
  20327152.2954   -2157482.99947  -1681154.47262
  22024096.584    -9527722.707 6  -7424175.32421
  22388486.3814   -5889431.49246  -4555632.12561
 91  5  7 19 41 14.9980000  0  6G18G16G 6G19G 2G11
  21006160.115     2821610.161 7   2198647.81122
  23436746.342    -2904476.310 5  -2100086.04421
  23682472.850    -1688203.304 4  -1137279.61321
  20325585.4044   -2165731.34147  -1687581.74562
  22014825.623    -9576443.770 6  -7462139.68421
  22384346.920    -5911176.843 6  -4572576.51721
 91  5  7 19 41 29.9980000  0  6G18G16G 6G19G 2G11
  21010914.209     2846586.443 7   2218109.77322
  23432442.842    -2927087.435 5  -2117705.10921
  23673812.748    -1733734.683 5  -1172758.50121
  20324024.4754   -2173934.47947  -1693973.79862
  22005567.568    -9625102.311 6  -7500055.32421
  22380234.5454   -5932780.98446  -4589410.88561
 91  5  7 19 41 44.9980000  0  6G18G16G 6G19G 2G11
  21015684.6234    2871659.54647   2237647.18962
  23428164.717    -2949565.757 5  -2135220.72421
  23665145.3654   -1779257.96344  -1208231.05961
  20322472.1004   -2182087.09847  -1700326.48262
  21996320.061    -9673692.917 6  -7537918.02721
  22376153.420    -5954238.337 6  -4606130.85921
 91  5  7 19 41 59.9980000  0  6G18G16G 6G19G 2G11
  21020476.717     2896837.349 7   2257266.18322
  23423918.5454   -2971903.17345  -2152626.45261
  23656483.3034   -1824765.13844  -1243691.07761
  20320929.4124   -2190181.12247  -1706633.50862
  21987085.647    -9722207.627 6  -7575721.59121
  22372096.709    -5975540.752 6  -4622730.10121
 91  5  7 19 42 14.9980000  0  6G18G16G 6G19G 2G11
  21025286.506     2922120.556 7   2276967.31122
  23419695.373    -2994098.494 5  -2169921.53421
  23647836.6234   -1870255.32945  -1279137.85261
  20319403.2874   -2198215.47447  -1712894.03762
  21977868.943    -9770645.482 6  -7613465.26721
  22368073.8264   -5996687.06546  -4639207.71761
 91  5  7 19 42 29.9980000  0  6G18G16G 6G19G 2G11
  21030116.412     2947497.712 7   2296741.64722
  23415494.1394   -3016162.81845  -2187114.55761
  23639177.975    -1915739.516 5  -1314579.94621
  20317882.5844   -2206201.04647  -1719116.55562
  21968665.053    -9819017.279 6  -7651157.46821
  22364075.4904   -6017688.13046  -4655572.14061
 91  5  7 19 42 44.9980000  0  6G18G16G 6G19G 2G11
  21034962.576     2972966.883 7   2316587.68022
  23411319.4284   -3038098.04345  -2204206.89061
  23630524.2324   -1961219.62445  -1350018.86661
  20316372.7174   -2214139.73847  -1725302.54562
  21959472.037    -9867324.676 6  -7688799.49221
  22360109.373    -6038545.728 6  -4671824.77321
 91  5  7 19 42 59.9980000  0  6G18G16G 6G19G 2G11
  21039826.0374    2998529.86347   2336506.81362
  23407168.709    -3059902.292 5  -2221197.29221
  23621863.5224   -2006693.86145  -1385453.22361
  20314869.1784   -2222029.65747  -1731450.53462
  21950292.3034   -9915565.77346  -7726389.85061
  22356167.178    -6059257.841 6  -4687964.04221
 91  5  7 19 43 14.9980000  0  6G18G16G 6G19G 2G11
  21044710.084     3024187.317 7   2356499.55822
  23403039.2324   -3081574.50845  -2238084.69061
  23613213.9514   -2052161.22645  -1420882.21161
  20313379.8734   -2229869.71147  -1737559.66162
  21941125.076    -9963739.583 6  -7763927.77821
  22352253.6544   -6079823.35346  -4703989.07361
 91  5  7 19 43 29.9980000  0  6G18G16G 6G19G 2G11
  21049607.834     3049928.099 7   2376557.23522
  23398945.6864   -3103125.79545  -2254877.92361
  23604563.592    -2097632.975 5  -1456314.61421
  20311893.3974   -2237671.05547  -1743638.62662
  21931968.748   -10011857.117 6  -7801421.85421
  22348365.326    -6100253.261 6  -4719908.44121
 91  5  7 19 43 44.9980000  0  6G18G16G 6G19G 2G11
  21054523.967     3075758.107 7   2396684.43422
  23394873.217    -3124549.841 5  -2271571.99521
  23595907.3184   -2143102.44745  -1491745.25661
  20310419.2564   -2245427.06547  -1749682.26362
  21922824.420   -10059911.911 6  -7838867.03521
  22344506.389    -6120540.866 6  -4735716.91721
 91  5  7 19 43 59.9980000  0  6G18G16G 6G19G 2G11
  21059456.334     3101676.507 7   2416880.51222
  23390819.5064   -3145847.22045  -2288167.37361
  23587257.1314   -2188570.68745  -1527174.93261
  20308952.8264   -2253138.58847  -1755691.24562
  21913691.537   -10107904.584 6  -7876263.81321
  22340675.725    -6140686.809 6  -4751415.01121
 91  5  7 19 44 14.9980000  0  6G18G16G 6G19G 2G11
  21064405.029     3127683.807 7   2437145.86522
  23386784.709    -3167017.437 5  -2304663.64921
  23578610.3574   -2234037.06345  -1562603.14161
  20307493.0454   -2260804.90247  -1761664.99162
  21904570.842   -10155834.541 6  -7913611.72321
  22336864.0294   -6160690.46646  -4767002.24561
 91  5  7 19 44 29.9980000  0  6G18G16G 6G19G 2G11
  21069372.014     3153786.845 7   2457485.81422
  23382780.7404   -3188053.48045  -2321055.35961
  23569956.514    -2279494.746 5  -1598024.59621
  20306042.3894   -2268419.15047  -1767598.17062
  21895462.264   -10203694.719 6  -7950905.26621
  22333084.193    -6180544.715 6  -4782473.04121
 91  5  7 19 44 44.9980000  0  6G18G16G 6G19G 2G11
  21074356.920     3179981.246 7   2477896.95722
  23378806.662    -3208959.523 5  -2337345.78321
  23561309.3264   -2324947.85545  -1633442.50361
  20304604.2014   -2275985.27647  -1773493.85162
  21886367.217   -10251488.989 6  -7988147.44521
  22329335.740    -6200253.566 6  -4797830.54121
 91  5  7 19 44 59.9980000  0  6G18G16G 6G19G 2G11
  21079358.428     3206265.714 7   2498378.27422
  23374855.1234   -3229736.63245  -2353535.77261
  23552655.998    -2370397.356 5  -1668857.56721
  20303171.7954   -2283504.20247  -1779352.75662
  21877284.740   -10299218.576 6  -8025339.22621
  22325616.498    -6219817.909 6  -4813075.44921
 91  5  7 19 45 14.9980000  0  6G18G16G 6G19G 2G11
  21084376.428     3232641.314 7   2518930.61422
  23370921.467    -3250383.575 5  -2369624.28721
  23544008.209    -2415842.146 5  -1704268.95521
  20301752.7014   -2290974.64147  -1785173.87662
  21868213.037   -10346882.182 6  -8062479.59121
  22321918.7254   -6239236.17946  -4828206.52461
 91  5  7 19 45 29.9980000  0  6G18G16G 6G19G 2G11
  21089413.475     3259104.215 7   2539550.97422
  23367019.029    -3270903.916 5  -2385614.17321
  23535366.076    -2461286.013 5  -1739679.62621
  20300337.7644   -2298400.17847  -1790960.01162
  21859157.217   -10394483.328 6  -8099571.28621
  22318253.037    -6258512.129 6  -4843226.69821
 91  5  7 19 45 44.9980000  0  6G18G16G 6G19G 2G11
  21094465.147     3285654.091 7   2560239.10422
  23363140.7324   -3291297.70945  -2401505.45861
  23526712.7644   -2506728.93345  -1775089.56061
  20298935.1154   -2305780.90447  -1796711.22962
  21850108.451   -10442021.951 6  -8136614.26221
  22314606.482    -6277645.741 6  -4858135.96621
 91  5  7 19 45 59.9980000  0  6G18G16G 6G19G 2G11
  21099535.084     3312292.141 7   2580995.94722
  23359283.912    -3311563.292 5  -2417296.83321
  23518068.303    -2552169.382 5  -1810497.59721
  20297537.0454   -2313115.25147  -1802426.30762
  21841076.514   -10489496.362 6  -8173607.20321
  22310995.420    -6296635.294 6  -4872932.98021
 91  5  7 19 46 14.9980000  0  6G18G16G 6G19G 2G11
  21104621.740     3339024.902 7   2601826.58722
  23355450.9514   -3331694.11345  -2432983.18361
  23509420.5924   -2597600.82345  -1845898.58661
  20296153.7324   -2320396.68447  -1808100.14962
  21832053.865   -10536899.770 6  -8210544.82421
  22307407.4284   -6315473.96946  -4887612.42161
 91  5  7 19 46 29.9980000  0  6G18G16G 6G19G 2G11
  21109726.756     3365852.805 7   2622731.35922
  23351649.795    -3351689.537 5  -2448564.05821
  23500777.889    -2643022.532 5  -1881291.98421
  20294775.7174   -2327624.24547  -1813732.01662
  21823048.795   -10584231.532 6  -8247426.60821
  22303856.7404   -6334161.00746  -4902173.70861
 91  5  7 19 46 44.9980000  0  6G18G16G 6G19G 2G11
  21114849.256     3392770.390 7   2643706.02122
  23347867.803    -3371554.907 5  -2464043.54721
  23492135.443    -2688439.983 5  -1916682.09721
  20293412.5764   -2334803.30847  -1819326.09562
  21814052.748   -10631497.108 6  -8284256.82821
  22300325.9984   -6352701.77246  -4916621.01661
 91  5  7 19 46 59.9980000  0  6G18G16G 6G19G 2G11
  21119990.639     3419782.824 7   2664754.59022
  23344107.436    -3391284.879 5  -2479417.57821
  23483494.201    -2733847.820 5  -1952064.68821
  20292053.4674   -2341928.35447  -1824878.08362
  21805072.2794  -10678690.99346  -8321031.17861
  22296828.967    -6371090.666 6  -4930949.97721
 91  5  7 19 47 14.9980000  0  6G18G16G 6G19G 2G11
  21125148.553     3446890.754 7   2685877.56822
  23340382.279    -3410878.616 5  -2494685.42021
  23474854.451    -2779245.171 5  -1987439.14021
  20290710.1314   -2348998.55047  -1830387.33162
  21796106.748   -10725812.293 6  -8357748.97121
  22293356.3344   -6389326.81246  -4945159.92661
 91  5  7 19 47 29.9980000  0  6G18G16G 6G19G 2G11
  21130323.717     3474089.369 7   2707071.20622
  23336673.4754   -3430341.03345  -2509850.94361
  23466218.506    -2824636.662 5  -2022808.99321
  20289373.6704   -2356018.43047  -1835857.36362
  21787151.357   -10772865.267 6  -8394413.52721
  22289916.1074   -6407414.68046  -4959254.33461
 91  5  7 19 47 44.9980000  0  6G18G16G 6G19G 2G11
  21135517.506     3501376.251 7   2728333.62722
  23332996.115    -3449673.867 5  -2524915.49021
  23457582.553    -2870024.244 5  -2058175.80721
  20288048.4204   -2362989.81947  -1841289.61862
  21778210.865   -10819851.999 6  -8431026.46421
  22286502.0374   -6425356.07246  -4973234.59861
 91  5  7 19 47 59.9980000  0  6G18G16G 6G19G 2G11
  21140724.623     3528744.248 7   2749659.25822
  23329339.686    -3468884.253 5  -2539884.65221
  23448943.8264   -2915415.33445  -2093545.33061
  20286727.4984   -2369919.96347  -1846689.73562
  21769280.3574  -10866779.56846  -8467593.29961
  22283115.4514   -6443158.09146  -4987106.26261
 91  5  7 19 48 14.9980000  0  6G18G16G 6G19G 2G11
  21145947.381     3556195.004 7   2771049.37222
  23325709.0454   -3487970.39045  -2554756.96861
  23440306.100    -2960807.960 5  -2128916.08221
  20285419.0374   -2376806.94647  -1852056.21762
  21760360.951   -10913645.948 7  -8504112.45021
  22279752.2484   -6460818.74746  -5000867.77961
 91  5  7 19 48 29.9980000  0  6G18G16G 6G19G 2G11
  21151189.3814    3583737.18947   2792510.72562
  23322106.475    -3506923.314 5  -2569525.49021
  23431666.2794   -3006193.10045  -2164281.02461
  20284116.4124   -2383641.52847  -1857381.87062
  21751457.764   -10960442.211 6  -8540576.97821
  22276420.0684   -6478328.82146  -5014511.95861
 91  5  7 19 48 44.9980000  0  6G18G16G 6G19G 2G11
  21156448.4044    3611367.09447   2814040.43662
  23318522.5614   -3525746.60145  -2584192.97461
  23423037.0454   -3051574.51045  -2199643.02561
  20282827.0144   -2390427.40647  -1862669.56962
  21742563.9364  -11007171.89947  -8576989.62461
  22273113.0294   -6495691.92546  -5028041.61561
 91  5  7 19 48 59.9980000  0  6G18G16G 6G19G 2G11
  21161721.131     3639077.558 7   2835632.91722
  23314966.0684   -3544447.33245  -2598764.97761
  23414397.756    -3096959.245 5  -2235007.61821
  20281544.1074   -2397171.49347  -1867924.70762
  21733683.9204  -11053841.87347  -8613355.74061
  22269835.5224   -6512914.93846  -5041462.11361
 91  5  7 19 49 14.9980000  0  6G18G16G 6G19G 2G11
  21167013.2324    3666876.17947   2857294.09562
  23311428.443    -3563017.317 5  -2613235.10021
  23405754.959    -3142339.254 4  -2270368.55821
  20280269.3424   -2403865.87047  -1873141.10562
  21724815.1234  -11100444.08947  -8649669.06161
  22266586.8654   -6529989.78946  -5054767.15861
 91  5  7 19 49 29.9980000  0  6G18G16G 6G19G 2G11
  21172316.990     3694760.217 7   2879021.83422
  23307926.982    -3581459.426 5  -2627605.59521
  23397125.193    -3187717.356 5  -2305727.99121
  20279005.2874   -2410513.13247  -1878320.79562
  21715960.0064  -11146981.27247  -8685931.70661
  22263368.2094   -6546919.23546  -5067958.90261
 91  5  7 19 49 44.9980000  0  6G18G16G 6G19G 2G11
  21177640.4204    3722731.10647   2900817.24362
  23304436.9674   -3599772.21045  -2641875.31761
  23388486.5844   -3233092.00544  -2341084.72261
  20277749.3034   -2417111.58947  -1883462.45462
  21707116.4674  -11193451.76447  -8722142.38261
  22260174.5684   -6563701.52346  -5081035.98361
 91  5  7 19 49 59.9980000  0  6G18G16G 6G19G 2G11
  21182977.8114    3750779.69347   2922673.19662
  23300970.7254   -3617964.12845  -2656050.83261
  23379854.928    -3278471.941 4  -2376445.57221
  20276502.1544   -2423669.92247  -1888572.84562
  21698283.5764  -11239864.19847  -8758307.81761
  22257009.4204   -6580345.23246  -5094005.07661
 91  5  7 19 50 14.9980000  0  6G18G16G 6G19G 2G11
  21188330.8734    3778914.99347   2944596.71762
  23297539.3814   -3636025.92945  -2670124.96961
  23371218.131    -3323847.679 4  -2411803.16821
  20275262.9204   -2430178.66747  -1893644.59762
  21689465.8814  -11286209.16147  -8794420.67961
  22253868.3184   -6596840.78046  -5106858.71961
 91  5  7 19 50 29.9980000  0  6G18G16G 6G19G 2G11
  21193701.5374    3807129.93247   2966582.29962
  23294118.975    -3653965.010 5  -2684103.49521
  23362582.7954   -3369226.55244  -2447163.19961
  20274030.2564   -2436644.96747  -1898683.27762
  21680657.7564  -11332493.80147  -8830486.53361
  22250755.8734   -6613195.26246  -5119602.43861
 91  5  7 19 50 44.9980000  0  6G18G16G 6G19G 2G11
  21199085.3814    3835423.75247   2988629.34562
  23290731.7874   -3671781.58845  -2697986.53861
  23353948.4044   -3414608.98344  -2482526.00561
  20272810.1234   -2443069.24947  -1903689.21362
  21671860.9754  -11378718.30947  -8866505.53961
  22247669.0144   -6629409.08946  -5132236.56461
 91  5  7 19 50 59.9980000  0  6G18G16G 6G19G 2G11
  21204484.8814    3863800.19147   3010740.76762
  23287362.459    -3689471.809 5  -2711771.15121
  23345313.873    -3459991.024 5  -2517888.49021
  20271593.4904   -2449447.38747  -1908659.19162
  21663077.7254  -11424878.75347  -8902474.62461
  22244611.881    -6645478.147 6  -5144757.87521
 91  5  7 19 51 14.9980000  0  6G18G16G 6G19G 2G11
  21209901.3654    3892269.59047   3032924.62362
  23284031.451    -3707025.285 5  -2725449.19521
  23336674.326    -3505362.247 5  -2553242.58121
  20270393.5064   -2455768.98847  -1913585.12062
  21654306.9904  -11470964.56847  -8938385.56061
  22241582.2874   -6661391.96246  -5157158.22561
 91  5  7 19 51 29.9980000  0  6G18G16G 6G19G 2G11
  21215339.0374    3920833.63347   3055182.22962
  23280717.795    -3724439.963 5  -2739019.07421
  23328043.936    -3550720.718 4  -2588586.71421
  20269202.8344   -2462031.94947  -1918465.35662
  21645552.576   -11516973.756 7  -8974236.78821
  22238586.3974   -6677148.48046  -5169436.00861
 91  5  7 19 51 44.9980000  0  6G18G16G 6G19G 2G11
  21220792.475     3949495.540 7   3077516.09722
  23277417.2564   -3741712.34745  -2752478.10961
  23319414.3034   -3596062.87445  -2623918.13861
  20268020.3424   -2468232.66147  -1923297.08162
  21636811.654   -11562902.724 7  -9010025.50721
  22235616.404    -6692744.116 6  -5181588.42821
 91  5  7 19 51 59.9980000  0  6G18G16G 6G19G 2G11
  21226265.3114    3978249.98247   3099922.05962
  23274162.334    -3758848.002 5  -2765830.56821
  23310790.5224   -3641394.05345  -2659241.00061
  20266849.9674   -2474376.34747  -1928084.37362
  21628085.7484  -11608756.48047  -9045755.61961
  22232681.0764   -6708183.95946  -5193619.44761
 91  5  7 19 52 14.9980000  0  6G18G16G 6G19G 2G11
  21231754.2954    4007099.81647   3122402.36362
  23270932.5144   -3775843.42945  -2779073.78761
  23302171.936    -3686711.079 5  -2694552.86521
  20265694.6154   -2480459.71547  -1932824.66562
  21619374.5144  -11654532.03547  -9081424.79161
  22229773.4364   -6723464.77346  -5205526.55161
 91  5  7 19 52 29.9980000  0  6G18G16G 6G19G 2G11
  21237261.3504    4036030.28847   3144945.49162
  23267719.162    -3792713.239 5  -2792219.08221
  23293545.9364   -3732028.40645  -2729864.91161
  20264542.5294   -2486497.12447  -1937529.13762
  21610677.076   -11700243.644 7  -9117044.14321
  22226894.506    -6738600.924 6  -5217320.92921
 91  5  7 19 52 44.9980000  0  6G18G16G 6G19G 2G11
  21242781.1154    4065046.38347   3167555.34362
  23264535.529    -3809452.580 5  -2805262.77121
  23284914.7404   -3777341.21445  -2765173.48261
  20263406.0924   -2492483.66747  -1942193.98562
  21601991.022   -11745886.410 7  -9152609.85321
  22224041.193    -6753587.392 6  -5228998.67421
 91  5  7 19 52 59.9980000  0  6G18G16G 6G19G 2G11
  21248320.3114    4094152.67547   3190235.47962
  23261380.3264   -3826056.64745  -2818200.99861
  23276295.4044   -3822644.58745  -2800474.71561
  20262278.4124   -2498414.37047  -1946815.31762
  21593318.811   -11791455.320 7  -9188118.01121
  22221215.076    -6768419.099 6  -5240555.82221
 91  5  7 19 53 14.9980000  0  6G18G16G 6G19G 2G11
  21253876.9514    4123348.70047   3212985.53462
  23258245.7254   -3842525.55545  -2831033.95961
  23267677.3504   -3867938.56045  -2835768.59761
  20261159.9674   -2504289.13147  -1951393.05962
  21584662.428   -11836950.356 7  -9223568.60322
  22218422.2644   -6783096.21146  -5251992.50761
 91  5  7 19 53 29.9980000  0  6G18G16G 6G19G 2G11
  21259448.6784    4152630.28347   3235802.25562
  23255128.522    -3858863.409 5  -2843764.77321
  23259065.4044   -3913227.35345  -2871058.44861
  20260049.8974   -2510112.20447  -1955930.52562
  21576017.420   -11882375.714 7  -9258964.90421
  22215660.795    -6797622.763 6  -5263311.88021
 91  5  7 19 53 44.9980000  0  6G18G16G 6G19G 2G11
  21265039.4674    4182006.67547   3258692.85562
  23252048.717    -3875060.772 5  -2856386.11221
  23250450.4044   -3958501.63245
  20258956.3264   -2515873.95147  -1960420.20462
  21567388.756   -11927721.702 7
  22212924.303    -6811989.243 6  -5274506.51721
 91  5  7 19 53 59.9980000  0  6G18G16G 6G19G 2G11
  21270646.2564    4211473.39547   3281653.84062
  23248998.4124   -3891121.81145  -2868901.23161
  23241839.3894   -4003765.31245
  20257870.0924   -2521578.37247  -1964865.21262
  21558772.834   -11972992.311 7
  22210222.678    -6826199.591 6  -5285579.48421
 91  5  7 19 54 14.9980000  0  6G18G16G 6G19G 2G11
  21276267.9204    4241023.77347   3304680.01162
  23245965.607    -3907052.931 5  -2881315.11121
  23233223.9824   -4049025.08545
  20256794.9754   -2527232.02347  -1969270.65662
  21550172.334   -12018194.134 7
  22207545.4044   -6840260.35146  -5296535.89561
 91  5  7 19 54 29.9980000  0  6G18G16G 6G19G 2G11
  21281909.9824    4270666.49147   3327778.13762
  23242954.7724   -3922845.53545  -2893621.05761
  23224609.186    -4094271.969 5  -3012131.72021
  20255726.0374   -2532825.80447  -1973629.45762
  21541584.982   -12063318.262 7  -9399958.76222
  22204904.592    -6854162.453 6  -5307368.67721
 91  5  7 19 54 44.9980000  0  6G18G16G 6G19G 2G11
  21287567.7874    4300396.50147   3350944.27962
  23239982.3344   -3938504.48145  -2905822.84761
  23215997.4124   -4139510.88645  -3047382.73161
  20254675.0064   -2538364.68247  -1977945.46962
  21533011.0294  -12108369.35647  -9435063.42862
  22202283.279    -6867910.721 6  -5318081.59121
 91  5  7 19 54 59.9980000  0  6G18G16G 6G19G 2G11
  21293242.4904    4330222.47047   3374185.19862
  23237026.9514   -3954020.75645  -2917913.47761
  23207392.787    -4184733.007 5  -3082620.64421
  20253633.0294   -2543839.62247  -1982211.66662
  21524455.139   -12153338.581 7  -9470104.30322
  22199699.7094   -6881496.29746  -5328667.71961
 91  5  7 19 55 14.9980000  0  6G18G16G 6G19G 2G11
  21298936.5454    4360139.74647   3397497.26262
  23234100.1004   -3969398.97445  -2929896.52161
  23198794.7874   -4229942.79945  -3117848.93361
  20252602.6314   -2549254.94447  -1986431.40162
  21515913.834   -12198230.468 7  -9505084.90622
  22197145.7094   -6894923.55646  -5339130.49561
 91  5  7 19 55 29.9980000  0  6G18G16G 6G19G 2G11
  21304644.240     4390134.977 6   3420870.07122
  23231196.303    -3984652.265 5  -2941782.22821
  23190194.795    -4275153.401 5  -3153077.86621
  20251578.8654   -2554623.75347  -1990614.89662
  21507380.615   -12243057.937 7  -9540015.32122
  22194616.272    -6908205.516 6  -5349480.04621
 91  5  7 19 55 44.9980000  0  6G18G16G 6G19G 2G11
  21310370.1544    4420223.14146   3444315.29562
  23228317.7254   -3999765.44545  -2953558.74761
  23181589.678    -4320349.342 5  -3188295.39121
  20250571.0454   -2559930.61947  -1994750.12262
  21498865.772   -12287805.488 7  -9574883.46222
  22192116.951    -6921326.628 6  -5359704.26321
 91  5  7 19 55 59.9980000  0  6G18G16G 6G19G 2G11
  21316114.1074    4450401.08946   3467830.48062
  23225470.842    -4014741.535 5  -2965228.44321
  23172991.334    -4365533.697 5  -3223503.86021
  20249571.0764   -2565178.47747  -1998839.36862
  21490366.084   -12332476.087 7  -9609691.63922
  22189651.131    -6934290.068 6  -5369805.61921
 91  5  7 19 56 14.9980000  0  6G18G16G 6G19G 2G11
  21321872.662     4480663.030 6   3491411.10322
  23222647.498    -4029586.250 5  -2976795.78021
  23164396.201    -4410712.287 5  -3258707.85821
  20248584.4044   -2570373.02047  -2002887.07362
  21481878.186   -12377075.561 7  -9644444.39222
  22187213.6004   -6947101.40746  -5379788.45161
 91  5  7 19 56 29.9980000  0  6G18G16G 6G19G 2G11
  21327649.3734    4511016.57746   3515063.12262
  23219852.107    -4044291.742 5  -2988254.61821
  23155797.2794   -4455877.15845  -3293901.15661
  20247607.7954   -2575506.21547  -2006886.97462
  21473407.209   -12421595.743 7  -9679135.36222
  22184810.4984   -6959752.65446  -5389646.54161
 91  5  7 19 56 44.9980000  0  6G18G16G 6G19G 2G11
  21333438.514     4541452.038 6   3538778.96122
  23217075.443    -4058867.251 5  -2999612.21021
  23147212.6074   -4501037.61545  -3329091.01361
  20246641.3114   -2580587.43247  -2010846.36862
  21464948.186   -12466045.846 7  -9713771.72522
  22182430.014    -6972253.043 6  -5399387.07721
 91  5  7 19 56 59.9980000  0  6G18G16G 6G19G 2G11
  21339247.912     4571972.097 6   3562560.72022
  23214328.115    -4073309.785 5  -3010866.15621
  23138620.8184   -4546190.73845  -3364275.18261
  20245683.0764   -2585613.68747  -2014762.94062
  21456503.506   -12510422.942 7  -9748351.19922
  22180080.053    -6984599.554 6  -5409007.70521
 91  5  7 19 57 14.9980000  0  6G18G16G 6G19G 2G11
  21345071.326     4602574.695 6   3586406.80122
  23211597.1704   -4087621.80145  -3022018.38061
  23130025.100    -4591338.722 5  -3399455.32821
  20244737.2324   -2590586.99847  -2018638.25662
  21448071.982   -12554729.139 7  -9782875.42222
  22177757.490    -6996794.419 6  -5418510.17621
 91  5  7 19 57 29.9980000  0  6G18G16G 6G19G 2G11
  21350909.772     4633263.287 6   3610319.88622
  23208904.459    -4101799.580 5  -3033066.04721
  23121426.732    -4636477.726 5  -3434628.49621
  20243801.186    -2595503.354 7  -2022469.19022
  21439655.045   -12598960.503 7  -9817341.34222
  22175467.7564   -7008833.63847  -5427891.35361
 91  5  7 19 57 44.9980000  0  6G18G16G 6G19G 2G11
  21356766.154     4664036.741 6   3634299.09822
  23206231.373    -4115844.196 5  -3044009.92421
  23112846.170    -4681608.655 5  -3469795.34421
  20242878.1784   -2600363.66147  -2026256.44762
  21431252.170   -12643117.918 7  -9851749.63422
  22173206.5064   -7020718.12147  -5437151.96361
 91  5  7 19 57 59.9980000  0  6G18G16G 6G19G 2G11
  21362637.639     4694893.118 6   3658342.92422
  23203578.467    -4129757.073 5  -3054851.15321
  23104257.014    -4726733.249 5  -3504957.27021
  20241961.9754   -2605169.31047  -2030001.11862
  21422863.701   -12687202.966 7  -9886101.53822
  22170975.193    -7032449.393 7  -5446293.18921
 91  5  7 19 58 14.9980000  0  6G18G16G 6G19G 2G11
  21368526.0614    4725835.10446   3682453.46462
  23200962.4284   -4143535.58445  -3065587.70061
  23095668.4754   -4771848.56545  -3540111.96561
  20241058.3424   -2609917.58847  -2033701.07962
  21414489.022   -12731212.930 7  -9920394.93222
  22168773.170    -7044024.638 7  -5455312.84621
 91  5  7 19 58 29.9980000  0  6G18G16G 6G19G 2G11
  21374431.303     4756864.066 6   3706631.76922
  23198366.537    -4157177.992 5  -3076218.17421
  23087089.2324   -4816952.92345  -3575258.11561
  20240167.0764   -2614606.66747  -2037354.91262
  21406127.100   -12775145.810 7  -9954628.26422
  22166597.3114   -7055442.02247  -5464209.47861
 91  5  7 19 58 44.9980000  0  6G18G16G 6G19G 2G11
  21380350.545     4787971.021 6   3730870.84822
  23195794.8654   -4170693.00945  -3086749.36561
  23078508.826    -4862055.140 5  -3610402.58521
  20239284.7254   -2619245.14747  -2040969.31262
  21397779.670   -12819010.356 7  -9988808.35222
  22164455.498    -7066710.304 7  -5472989.93821
 91  5  7 19 58 59.9980000  0  6G18G16G 6G19G 2G11
  21386285.818     4819164.706 6   3755177.51322
  23193246.9284   -4184072.28545  -3097174.82961
  23069925.3034   -4907146.35645  -3645538.51261
  20238411.1004   -2623824.12347  -2044537.35362
  21389448.139   -12862797.710 7 -10022928.28022
  22162339.873    -7077820.594 7  -5481647.28421
 91  5  7 19 59 14.9980000  0  6G18G16G 6G19G 2G11
  21392239.178     4850440.892 6   3779548.46022
  23190734.2404   -4197319.27545  -3107497.18861
  23061344.865    -4952230.404 5  -3680668.83621
  20237553.5844   -2628347.34346  -2048061.94262
  21381128.990   -12906511.638 7 -10056991.00622
  22160254.0224   -7088776.73247  -5490184.51161
 91  5  7 19 59 29.9980000  0  6G18G16G 6G19G 2G11
  21398206.264     4881802.182 6   3803985.72422
  23188226.232    -4210431.537 5  -3117714.55621
  23052767.264    -4997304.610 5  -3715791.50721
  20236700.1154   -2632812.09747  -2051540.97962
  21372826.217   -12950149.259 7 -10090994.26322
  22158200.053    -7099575.914 7  -5498599.44121
 91  5  7 19 59 44.9980000  0  6G18G16G 6G19G 2G11
  21404191.357     4913245.867 7   3828487.18722
  23185762.186    -4223411.797 5  -3127829.08721
  23044192.8654   -5042371.63745  -3750908.57161
  20235865.0374   -2637221.13646  -2054976.59862
  21364536.576   -12993713.385 7 -10124940.25622
  22156173.420    -7110220.870 7  -5506894.19521
 91  5  7 19 59 59.9980000  0  6G18G16G 6G19G 2G11
  21410190.912     4944774.656 6   3853054.97522
  23183317.2404   -4236256.91945  -3137838.30061
  23035617.662    -5087428.461 5  -3786017.67721
  20235034.7014   -2641571.18547  -2058366.25362
  21356260.506   -13037200.847 7 -10158826.50722
  22154178.998    -7120708.437 7  -5515066.30821
 91  5  7 20  0 14.9980000  0  6G18G16G 6G19G 2G11
  21416206.295     4976385.721 6   3877686.86422
  23180902.904    -4248969.596 5  -3147744.31021
  23027045.8894   -5132477.37945  -3821120.62861
  20234217.4674   -2645864.46746  -2061711.67362
  21347998.272   -13080613.832 7 -10192654.72622
  22152211.561    -7131040.915 7  -5523117.56321
 91  5  7 20  0 29.9980000  0  6G18G16G 6G19G 2G11
  21422238.209     5008079.917 6   3902383.53222
  23178497.365    -4261548.772 5  -3157546.32521
  23018475.9754   -5177517.35045  -3856216.61561
  20233410.6074   -2650099.85047  -2065011.97662
  21339752.303   -13123951.280 7 -10226424.08522
  22150276.881    -7141217.126 7  -5531047.06121
 91  5  7 20  0 44.9980000  0  6G18G16G 6G19G 2G11
  21428284.162     5039855.165 6   3927143.35322
  23176130.2564   -4273996.34445  -3167245.70961
  23009911.6234   -5222550.44145  -3891307.24261
  20232615.9824   -2654279.41246  -2068268.78262
  21331518.115   -13167215.138 7 -10260136.10222
  22148369.998    -7151239.184 7  -5538856.43421
 91  5  7 20  0 59.9980000  0  6G18G16G 6G19G 2G11
  21434343.850     5071701.663 6   3951958.69622
  23173793.076    -4286321.936 5  -3176850.13521
  23001333.7874   -5267586.12445  -3926399.87261
  20231828.7404   -2658412.45547  -2071489.33762
  21323298.131   -13210415.046 7 -10293798.28922
  22146489.397    -7161116.606 7  -5546553.11421
 91  5  7 20  1 14.9980000  0  6G18G16G 6G19G 2G11
  21440420.068     5103631.104 6   3976838.66822
  23171473.6314   -4298514.00245  -3186350.46461
  22992764.7564   -5312612.63345  -3961485.37261
  20231055.8654   -2662487.32746  -2074664.56662
  21315092.443   -13253539.026 7 -10327401.31322
  22144637.6704   -7170837.62747  -5554127.91961
 91  5  7 20  1 29.9980000  0  6G18G16G 6G19G 2G11
  21446512.147     5135638.886 6   4001779.68322
  23169178.6314   -4310576.79545  -3195750.09761
  22984199.256    -5357634.305 5  -3996567.06921
  20230290.6704   -2666507.91646  -2077797.49762
  21306899.186   -13296591.272 7 -10360948.44022
  22142818.787    -7180406.444 6  -5561584.13221
 91  5  7 20  1 44.9970000  0  6G18G16G 6G19G 2G11
  21452616.048     5167720.783 6   4026778.45422
  23166906.4544   -4322511.86345  -3205050.17361
  22975636.314    -5402650.029 5  -4031644.17821
  20229534.9854   -2670476.06746  -2080889.56262
  21298719.931   -13339570.869 7 -10394438.95722
  22141025.478    -7189824.384 6  -5568922.76421
 91  5  7 20  1 59.9970000  0  6G18G16G 6G19G 2G11
  21458735.478     5199881.505 6   4051838.64122
  23164657.532    -4334320.199 5  -3214251.51421
  22967069.501    -5447665.149 5  -4066720.78721
  20228789.5794   -2674391.36546  -2083940.44662
  21290554.696   -13382482.741 7 -10427876.70422
  22139262.4704   -7199092.05546  -5576144.31461
 91  5  7 20  2 14.9970000  0  6G18G16G 6G19G 2G11
  21464870.6814    5232118.00346   4076957.87562
  23162434.439    -4346001.175 5  -3223353.62221
  22958504.704    -5492677.095 5  -4101794.94521
  20228055.2204   -2678253.97946  -2086950.27962
  21282402.439   -13425324.575 7 -10461259.87022
  22137528.126    -7208209.183 6  -5583248.55621
 91  5  7 20  2 29.9970000  0  6G18G16G 6G19G 2G11
  21471020.9394    5264436.19446   4102140.76162
  23160237.103    -4357548.870 5  -3232351.83321
  22949940.524    -5537679.808 5  -4136861.87121
  20227331.7044   -2682057.77546  -2089914.27862
  21274264.243   -13468090.218 7 -10494583.67222
  22135822.6494   -7217169.65246  -5590230.72561
 91  5  7 20  2 44.9970000  0  6G18G16G 6G19G 2G11
  21477184.5714    5296830.23646   4127382.75762
  23158066.1964   -4368969.06045  -3241250.72761
  22941375.876    -5582679.014 5  -4171926.08821
  20226615.8214   -2685808.37046  -2092836.81962
  21266138.946   -13510785.358 7 -10527852.53722
  22134146.993    -7225979.181 6  -5597095.28321
 91  5  7 20  2 59.9970000  0  6G18G16G 6G19G 2G11
  21483365.0564    5329306.49546   4152688.81762
  23155913.9704   -4380255.16445  -3250045.13961
  22932813.4464   -5627668.06945  -4206982.41061
  20225914.5014   -2689499.01746  -2095712.64962
  21258029.142   -13553403.259 7 -10561061.21422
  22132497.892    -7234631.129 6  -5603837.04521
 91  5  7 20  3 14.9970000  0  6G18G16G 6G19G 2G11
  21489560.7434    5361859.23346   4178054.46862
  23153793.7434   -4391412.64245  -3258739.30061
  22924253.149    -5672652.411 5  -4242035.02321
  20225223.4464   -2693135.17746  -2098546.02362
  21249933.337   -13595949.216 7 -10594213.83422
  22130882.587    -7243130.868 6  -5610460.20021
 91  5  7 20  3 29.9970000  0  6G18G16G 6G19G 2G11
  21495770.3844    5394494.98646   4203484.80861
  23151698.290    -4402434.904 5  -3267328.09921
  22915691.8994   -5717625.26845  -4277078.69361
  20224542.7124   -2696710.14946  -2101331.72462
  21241851.8844  -13638416.56547 -10627305.20362
  22129294.0874   -7251471.60446  -5616959.46861
 91  5  7 20  3 44.9970000  0  6G18G16G 6G19G 2G11
  21501996.6574    5427213.95446   4228979.98361
  23149624.282    -4413321.744 5  -3275811.37721
  22907141.4934   -5762586.20245  -4312113.08061
  20223875.9464   -2700223.27246  -2104069.22362
  21233784.853   -13680804.735 7 -10660334.87122
  22127737.485    -7259652.873 6  -5623334.46321
 91  5  7 20  3 59.9970000  0  6G18G16G 6G19G 2G11
  21508240.3924    5460021.83946   4254544.45161
  23147580.9704   -4424067.41745  -3284184.69061
  22898589.446    -5807529.368 5  -4347133.61821
  20223222.1264   -2703668.64646  -2106753.92962
  21225735.282   -13723107.864 7 -10693298.27322
  22126209.274    -7267668.939 6  -5629580.73721
 91  5  7 20  4 14.9970000  0  6G18G16G 6G19G 2G11
  21514497.9464    5492901.43546   4280164.79061
  23145563.8064   -4434688.97745  -3292461.25661
  22890029.735    -5852471.805 5  -4382153.57721
  20222573.7674   -2707063.13246  -2109398.98362
  21217697.626   -13765342.742 7 -10726208.49522
  22124715.6654   -7275536.61646  -5635711.38861
 91  5  7 20  4 29.9970000  0  6G18G16G 6G19G 2G11
  21520767.7674    5525854.37146   4305842.28161
  23143562.204    -4445184.385 5  -3300639.51721
  22881477.548    -5897411.461 5  -4417171.39621
  20221933.8764   -2710404.79046  -2112002.87762
  21209674.165   -13807507.403 7 -10759064.00122
  22123245.939    -7283253.960 6  -5641724.88821
 91  5  7 20  4 44.9970000  0  6G18G16G 6G19G 2G11
  21527053.4154    5558882.23947   4331578.15161
  23141585.0174   -4455552.11145  -3308718.32061
  22872929.7904   -5942346.58945  -4452185.66361
  20221310.6964   -2713691.63346  -2114564.05362
  21201664.517   -13849600.042 7 -10791863.39122
  22121809.2744   -7290819.21846  -5647619.88461
 91  5  7 20  4 59.9970000  0  6G18G16G 6G19G 2G11
  21533352.4394    5591990.03546   4357376.31861
  23139646.9784   -4465786.67445  -3316693.33061
  22864382.9464   -5987271.76645  -4487192.19361
  20220695.8214   -2716918.18546  -2117078.25262
  21193668.2124  -13891615.26047 -10824602.45162
  22120397.0874   -7298227.08146  -5653392.23461
 91  5  7 20  5 14.9970000  0  6G18G16G 6G19G 2G11
  21539668.9234    5625177.53746   4383236.56961
  23137722.087    -4475888.488 5  -3324564.92921
  22855842.470    -6032187.137 5  -4522191.06521
  20220095.7674   -2720084.45746  -2119545.48062
  21185687.946   -13933553.145 7 -10857281.25122
  22119020.431    -7305477.679 6  -5659042.03721
 91  5  7 20  5 29.9970000  0  6G18G16G 6G19G 2G11
  21545997.5404    5658439.61446   4409154.94761
  23135830.649    -4485862.495 5  -3332336.89521
  22847291.314    -6077097.570 5  -4557186.09621
  20219501.8764   -2723195.29446  -2121969.50962
  21177721.4934  -13975418.40847 -10889903.46562
  22117668.3374   -7312575.77346  -5664573.00861
 91  5  7 20  5 44.9970000  0  6G18G16G 6G19G 2G11
  21552341.0014    5691774.06046   4435129.71361
  23133944.157    -4495710.742 5  -3340010.89721
  22838744.5404   -6122004.99845  -4592178.78161
  20218921.8844   -2726252.57446  -2124351.80962
  21169768.251   -14017213.201 7 -10922470.76422
  22116341.9234   -7319523.41946  -5669986.74961
 91  5  7 20  5 59.9970000  0  6G18G16G 6G19G 2G11
  21558699.899     5725183.859 6   4461163.18721
  23132098.9934   -4505430.38845  -3347584.69261
  22830199.181    -6166906.394 5  -4627166.77421
  20218347.0954   -2729253.07946  -2126689.86762
  21161830.0014  -14058934.27347 -10954980.62462
  22115052.8994   -7326317.50746  -5675280.83961
 91  5  7 20  6 14.9970000  0  6G18G16G 6G19G 2G11
  21565071.446     5758665.335 6   4487252.51421
  23130259.689    -4515024.688 5  -3355060.80321
  22821655.110    -6211805.102 5  -4662152.67421
  20217790.8924   -2732200.08646  -2128986.23862
  21153903.9394  -14100584.94347 -10987435.62262
  22113786.6814   -7332961.36546  -5680457.85761
 91  5  7 20  6 29.9970000  0  6G18G16G 6G19G 2G11
  21571456.235     5792219.711 6   4513398.64921
  23128465.876    -4524492.280 5  -3362438.18221
  22813110.860    -6256699.505 5  -4697135.20821
  20217240.2984   -2735092.11546  -2131239.77062
  21145991.1184  -14142163.71647 -11019834.59762
  22112554.243    -7339453.484 6  -5685516.63821
 91  5  7 20  6 44.9970000  0  6G18G16G 6G19G 2G11
  21577855.962     5825851.896 6   4539605.41721
  23126690.720    -4533828.270 5  -3369713.03621
  22804569.759    -6301584.624 5  -4732110.51421
  20216699.6424   -2737924.14746  -2133446.55162
  21138093.4234  -14183665.43547 -11052173.52962
  22111347.5484   -7345788.84946  -5690453.28061
 91  5  7 20  6 59.9970000  0  6G18G16G 6G19G 2G11
  21584269.915     5859560.520 6   4565871.74421
  23124930.814    -4543033.428 5  -3376885.90021
  22796029.306    -6346461.317 5  -4767079.25621
  20216171.0564   -2740697.00646  -2135607.22162
  21130210.3924  -14225090.92947 -11084453.06962
  22110168.939    -7351968.446 6  -5695268.53621
 91  5  7 20  7 14.9970000  0  6G18G16G 6G19G 2G11
  21590700.5244    5893344.77646   4592197.01361
  23123211.431    -4552108.930 5  -3383957.77821
  22787494.524    -6391330.386 5  -4802042.06321
  20215656.8454   -2743411.21646  -2137722.19462
  21122341.1184  -14266440.84147 -11116673.70862
  22109025.5714   -7357992.97146  -5699962.96261
 91  5  7 20  7 29.9970000  0  6G18G16G 6G19G 2G11
  21597144.337     5927210.972 6   4618586.12121
  23121507.9624   -4561048.51745  -3390923.71761
  22778958.1494   -6436185.14545  -4836993.71261
  20215151.3844   -2746060.15746  -2139786.30662
  21114489.8214  -14307708.68147 -11148830.40262
  22107907.689    -7363855.891 6  -5704531.46121
 91  5  7 20  7 44.9970000  0  6G18G16G 6G19G 2G11
  21603602.4934    5961147.35146   4645029.92461
  23119831.376    -4569863.369 5  -3397792.47121
  22770424.5014   -6481037.19845  -4871943.26161
  20214658.6964   -2748655.19046  -2141808.40962
  21106649.1424  -14348905.96647 -11180932.11762
  22106819.110    -7369568.779 7  -5708983.04721
 91  5  7 20  7 59.9970000  0  6G18G16G 6G19G 2G11
  21610075.1814    5995158.32146   4671531.84461
  23118184.712    -4578549.121 5  -3404560.61821
  22761883.9464   -6525881.90245  -4906887.07961
  20214175.3684   -2751191.57346  -2143784.81862
  21098823.9154  -14390027.92347 -11212975.13662
  22105763.8064   -7375126.97347  -5713314.09461
 91  5  7 20  8 14.9970000  0  6G18G16G 6G19G 2G11
  21616561.509     6029251.040 6   4698097.46921
  23116561.8144   -4587098.22745  -3411222.33361
  22753358.0404   -6570711.68045  -4941819.27261
  20213705.8684   -2753661.58646  -2145709.50462
  21091013.9154  -14431067.08147 -11244953.63262
  22104737.689    -7380522.949 6  -5717518.73421
 91  5  7 20  8 29.9970000  0  6G18G16G 6G19G 2G11
  21623063.946     6063413.751 6   4724717.62621
  23114955.2204   -4595522.70745  -3417786.88461
  22744827.9934   -6615538.19445  -4976748.93161
  20213245.5874   -2756077.23446  -2147591.82862
  21083218.3924  -14472034.95947 -11276876.59162
  22103741.3294   -7385768.50147  -5721606.17461
 91  5  7 20  8 44.9970000  0  6G18G16G 6G19G 2G11
  21629578.7744    6097658.11146   4751401.41261
  23113377.962    -4603810.356 5  -3424244.82721
  22736301.603    -6660349.326 5  -5011666.58221
  20212798.6894   -2758426.11246  -2149422.12662
  21075437.9154  -14512919.25847 -11308734.42662
  22102771.4784   -7390851.35346  -5725566.83561
 91  5  7 20  8 59.9970000  0  6G18G16G 6G19G 2G11
  21636110.118     6131974.163 6   4778141.05221
  23111824.454    -4611970.949 5  -3430603.78821
  22727770.3454   -6705154.69145  -5046579.74361
  20212364.2744   -2760717.81146  -2151207.86862
  21067671.6424  -14553729.75047 -11340534.74862
  22101835.7744   -7395781.31447  -5729408.34761
 91  5  7 20  9 14.9970000  0  5G18G 6G19G 2G11
  21642653.642     6166363.203 6   4804937.56521
  22719248.2594   -6749953.10845  -5081487.49461
  20211937.1344   -2762950.88046  -2152947.92762
  21059920.3604  -14594465.20147 -11372276.59662
  22100924.0794   -7400557.20747  -5733129.81561
 91  5  7 20  9 29.9970000  0  6G18G16G 6G19G 2G11
  21649211.642     6200827.197 6   4831792.49021
  23108787.220          -0.04215
  22710725.6894   -6794742.28345  -5116388.06261
  20211522.8844   -2765123.11046  -2154640.58162
  21052182.7744  -14635123.40947 -11403958.25762
  22100048.157    -7405176.679 7  -5736729.39021
 91  5  7 20  9 44.9970000  0  6G18G16G 6G19G 2G11
  21655782.892     6235356.455 6   4858698.26621
  23107315.470       -7781.666 5
  22702200.829    -6839531.486 5  -5151288.63121
  20211122.2824   -2767243.83946  -2156293.10062
  21044459.5094  -14675713.57647 -11435586.89662
  22099191.774    -7409649.183 6  -5740214.44621
 91  5  7 20  9 59.9970000  0  6G18G16G 6G19G 2G11
  21662366.845     6269953.223 6   4885656.64721
  23105854.376      -15440.166 5        -0.20131
  22693679.157    -6884318.344 5  -5186187.37721
  20210726.1734   -2769310.49447  -2157903.49062
  21036748.4314  -14716233.15747 -11467160.53762
  22098374.634    -7413972.263 7  -5743583.06221
 91  5  7 20 10 14.9970000  0  6G18G16G 6G19G 2G11
  21668964.946     6304623.234 6   4912672.09421
  23104413.939      -22969.819 5     -5867.50721
  22685158.689    -6929096.786 5  -5221079.56521
  20210345.5484   -2771316.89346  -2159466.92662
  21029052.1574  -14756676.19647 -11498674.53462
  22097579.235    -7418139.963 6  -5746830.60821
 91  5  7 20 10 29.9970000  0  6G18G16G 6G19G 2G11
  21675575.603     6339361.066 6   4939740.39521
  23103002.0714     -30376.13445    -11638.72761
  22676635.0954   -6973872.09945  -5255969.32061
  20209974.0564   -2773268.24747  -2160987.46862
  21021369.3994  -14797047.95447 -11530132.98862
  22096813.4074   -7422157.62846  -5749961.24361
 91  5  7 20 10 44.9970000  0  6G18G16G 6G19G 2G11
  21682198.571     6374162.236 6   4966858.04921
  23101628.290      -37663.323 5    -17317.10821
  22668116.829    -7018648.691 5  -5290860.06321
  20209612.4314   -2775168.76446  -2162468.39762
  21013699.5714  -14837352.72847 -11561539.24262
  22096080.2594   -7426029.50746  -5752978.28961
 91  5  7 20 10 59.9970000  0  6G18G16G 6G19G 2G11
  21688832.7904    6409026.61246   4994024.95261
  23100265.0874     -44831.04945    -22902.40961
  22659596.8844   -7063425.87145  -5325751.27061
  20209258.1494   -2777018.01147  -2163909.37462
  21006044.3374  -14877590.10347 -11592892.98262
  22095369.1424   -7429755.34246  -5755881.51761
 91  5  7 20 11 14.9970000  0  6G18G16G 6G19G 2G11
  21695479.4464    6443960.85946   5021246.30261
  23098920.603      -51872.812 5    -28389.54221
  22651074.767    -7108196.978 5  -5360637.75021
  20208919.7824   -2778808.94547  -2165304.91762
  20998399.9624  -14917753.11347 -11624188.77662
  22094688.298    -7433328.303 6  -5758665.62521
 91  5  7 20 11 29.9970000  0  5G18G 6G19G 2G11
  21702139.6494    6478959.53746   5048517.84961
  22642555.3144   -7152967.36545  -5395523.66061
  20208588.2354   -2780547.04347  -2166659.29062
  20990770.1494  -14957847.15747 -11655430.82862
  22094034.2284   -7436753.91746  -5761334.92561
 91  5  7 20 11 44.9970000  0  6G18G16G 6G19G 2G11
  21708812.814     6514022.914 6   5075839.82321
  23096307.2674         -0.65755
  22634038.478    -7197736.118 5  -5430408.30121
  20208269.1344   -2782231.35647  -2167971.75162
  20983152.8144  -14997871.39047 -11686618.48362
  22093412.9854   -7440031.30146  -5763888.71461
 91  5  7 20 11 59.9970000  0  6G18G16G 6G19G 2G11
  21715497.6494    6549149.84046   5103211.30361
  23095034.4854      -6680.48745
  22625520.9934   -7242504.25745  -5465292.46861
  20207958.2284   -2783862.79947  -2169243.01762
  20975550.3374  -15037826.63747 -11717752.38262
  22092815.2434   -7443161.48846  -5766327.81261
 91  5  7 20 12 14.9970000  0  6G18G16G 6G19G 2G11
  21722195.8534    6584348.49446   5130638.67861
  23093790.478      -13232.049 5        -0.49831
  22617000.564    -7287263.700 5  -5500169.86321
  20207660.0874   -2785433.05047  -2170466.59662
  20967961.9234  -15077704.67647 -11748826.12062
  22092251.915    -7446136.330 6  -5768645.85521
 91  5  7 20 12 29.9970000  0  6G18G16G 6G19G 2G11
  21728905.8924    6619613.94246   5158118.10061
  23092564.931      -19659.731 5     -5009.15221
  22608481.751    -7332018.623 5  -5535043.72521
  20207369.579    -2786946.268 7  -2171645.74022
  20960387.4234  -15117509.74047 -11779842.99662
  22091714.5954   -7448960.24846  -5770846.30061
 91  5  7 20 12 44.9970000  0  6G18G16G 6G19G 2G11
  21735630.5794    6654940.23146   5185644.92261
  23091367.4394     -25969.63645     -9926.01361
  22599967.110    -7376774.730 5  -5569918.51121
  20207091.4784   -2788408.35547  -2172785.03562
  20952825.5794  -15157247.80747 -11810807.66762
  22091205.509    -7451639.107 6  -5772933.70421
 91  5  7 20 12 59.9970000  0  6G18G16G 6G19G 2G11
  21742363.3924    6690329.19846   5213220.59361
  23090189.9704     -32160.34145    -14750.01161
  22591446.9314   -7421530.28445  -5604792.86961
  20206824.4394   -2789817.35347  -2173882.96662
  20945275.681   -15196916.905 7 -11841718.59822
  22090724.360    -7454171.102 6  -5774906.67321
 91  5  7 20 13 14.9970000  0  6G18G16G 6G19G 2G11
  21749111.8064    6725785.57746   5240848.78061
  23089032.7744     -38226.39645    -19476.83461
  22582932.923    -7466280.042 5  -5639662.73021
  20206569.056    -2791167.905 7  -2174935.35722
  20937741.7044  -15236511.77647 -11872571.68362
  22090267.7984   -7456551.08246  -5776761.19061
 91  5  7 20 13 29.9970000  0  6G18G16G 6G19G 2G11
  21755869.9314    6761300.36946   5268522.50061
  23087902.423      -44176.843 5    -24113.61221
  22574415.290    -7511033.078 5  -5674535.12521
  20206317.454    -2792468.917 7  -2175949.14522
  20930220.0174  -15276041.54647 -11903374.04562
  22089844.079    -7458788.159 6  -5778504.35521
 91  5  7 20 13 44.9970000  0  6G18G16G 6G19G 2G11
  21762640.4394    6796884.53746   5296250.26261
  23086792.837      -50000.489 5    -28651.57021
  22565903.853    -7555777.729 5  -5709400.97821
  20206086.2744   -2793708.96847  -2176915.42962
  20922711.814   -15315494.675 7 -11934116.68622
  22089446.7124   -7460870.90546  -5780127.26661
 91  5  7 20 13 59.9970000  0  6G18G16G 6G19G 2G11
  21769423.2284    6832535.16246   5324029.81861
  23085710.5094     -55700.57045    -33093.25361
  22557384.5244   -7600516.54145  -5744262.30461
  20205859.821    -2794890.362 7  -2177836.00822
  20915218.5244  -15354873.51947 -11964801.44362
  22089082.610    -7462801.849 6  -5781631.88621
 91  5  7 20 14 14.9970000  0  6G18G16G 6G19G 2G11
  21776219.134     6868245.246 6   5351855.69721
  23084647.5094     -61284.12445    -37444.12561
  22548879.5874   -7645256.67545  -5779124.65061
  20205645.649    -2796020.315 7  -2178716.50822
  20907737.853   -15394185.178 7 -11995433.84722
  22088737.9704   -7464588.23946  -5783023.87061
 91  5  7 20 14 29.9970000  0  6G18G16G 6G19G 2G11
  21783024.5484    6904017.03546   5379729.66861
  23083609.8994     -66748.11845    -41701.81461
  22540368.353    -7689995.308 5  -5813985.82121
  20205439.9394   -2797095.86746  -2179554.60762
  20900271.2044  -15433426.98047 -12026011.81262
  22088429.6814   -7466227.24146  -5784301.01061
 91  5  7 20 14 44.9970000  0  6G18G16G 6G19G 2G11
  21789844.9624    6939848.78246   5407650.35361
  23082595.5244     -72094.17145    -45867.63961
  22531847.6184   -7734733.95245  -5848847.01661
  20205245.024    -2798118.428 7  -2180351.42422
  20892816.3604  -15472600.41447 -12056536.50662
  22088144.0404   -7467720.50846  -5785464.58661
 91  5  7 20 14 59.9970000  0  6G18G16G 6G19G 2G11
  21796675.5484    6975740.84646   5435618.04061
  23081595.5794     -77322.46845    -49941.69561
  22523337.0794   -7779472.13845  -5883707.83561
  20205063.923    -2799087.464 6  -2181106.52822
  20885375.6264  -15511705.08947 -12087007.62162
  22087886.3994   -7469067.76646  -5786514.38761
 91  5  7 20 15 14.9970000  0  6G18G16G 6G19G 2G11
  21803519.634     7011699.053 6   5463637.26321
  23080629.149      -82426.517 5    -53918.91521
  22514824.8684   -7824203.68845  -5918563.50561
  20204888.798    -2799996.799 7  -2181815.10922
  20877948.1264  -15550734.68947 -12117420.23662
  22087658.3454   -7470262.87746  -5787445.63761
 91  5  7 20 15 29.9970000  0  6G18G16G 6G19G 2G11
  21810376.056     7047722.120 6   5491707.02621
  23079674.6344     -87407.47445    -57800.22761
  22506311.923    -7868929.551 5  -5953414.71921
  20204726.1574   -2800847.29447  -2182477.84062
  20870533.7284  -15589690.12347 -12147775.05762
  22087463.0094   -7471306.80746  -5788259.09061
 91  5  7 20 15 44.9970000  0  6G18G16G 6G19G 2G11
  21817240.1034    7083808.50146   5519826.12961
  23078752.079      -92267.172 5    -61587.06721
  22497803.7204   -7913651.00945  -5988262.52861
  20204576.407    -2801640.135 7
  20863134.8764  -15628572.73747 -12178073.13362
  22087290.7284   -7472200.81846
 91  5  7 20 15 59.9970000  0  6G18G16G 6G19G 2G11
  21824120.1104    7119959.06946   5547995.24261
  23077849.228      -97004.712 5    -65278.71721
  22489292.4854   -7958366.96245  -6023106.03861
  20204433.610    -2802374.165 7
  20855750.5794  -15667381.33547 -12208313.54262
  22087151.4934   -7472944.07846
 91  5  7 20 16 14.9970000  0  6G18G16G 6G19G 2G11
  21831010.2674    7156165.75646   5576208.08761
  23076968.4934    -101627.69545    -68881.11061
  22480781.4394   -8003085.10345  -6057951.24861
  20204306.985    -2803056.939 7  -2184199.68322
  20848378.3764  -15706123.60147 -12238502.25862
  22087038.0094   -7473544.27746  -5790002.56161
 91  5  7 20 16 29.9970000  0  6G18G16G 6G19G 2G11
  21837912.439     7192431.700 6   5604467.10721
  23076108.7824    -106133.08045    -72391.86161
  22472274.4544   -8047802.06445  -6092795.56061
  20204188.4784   -2803685.27146  -2184689.30462
  20841019.1654  -15744796.36447 -12268636.81562
  22086945.3764   -7473998.33146  -5790356.38561
 91  5  7 20 16 44.9970000  0  6G18G16G 6G19G 2G11
  21844824.2984    7228750.32746   5632767.16761
  23075274.7744    -110527.52445    -75816.16561
  22463765.415    -8092524.350 5  -6127643.99021
  20204076.110    -2804265.282 7  -2185141.27222
  20833671.7434  -15783405.93147 -12298722.12962
  22086891.3994   -7474312.71546  -5790601.35761
 91  5  7 20 16 59.9970000  0  6G18G16G 6G19G 2G11
  21851747.1344    7265131.48946   5661115.97061
  23074464.423     -114800.678 5    -79145.94821
  22455255.853    -8137241.409 5  -6162488.36421
  20203973.064    -2804786.781 7  -2185547.64522
  20826338.3144  -15821941.81647 -12328750.02462
  22086860.0644   -7474477.09646
 91  5  7 20 17 14.9970000  0  6G18G16G 6G19G 2G11
  21858681.939     7301577.097 6   5689514.97721
  23073668.548     -118950.639 5    -82379.74721
  22446745.6424   -8181951.28445  -6197327.13261
  20203889.392    -2805247.539 7  -2185906.69122
  20819018.9934  -15860402.15147 -12358719.05662
  22086855.3844   -7474489.42346
 91  5  7 20 17 29.9970000  0  6G18G16G 6G19G 2G11
  21865630.446     7338083.129 6   5717961.06921
  23072908.6734    -122981.10345    -85520.41961
  22438241.790    -8226657.476 5  -6232163.04621
  20203810.962    -2805651.042 7  -2186221.12022
  20811714.0014  -15898790.49247 -12388631.98462
  22086880.5794   -7474353.49346
 91  5  7 20 17 44.9970000  0  6G18G16G 6G19G 2G11
  21872588.439     7374653.296 6   5746457.13621
  23072165.204     -126888.771 5    -88565.42021
  22429731.024    -8271356.288 5  -6266993.19121
  20203746.603    -2805993.472 7  -2186487.96022
  20804423.0564  -15937103.04847 -12418485.85962
  22086936.5244   -7474065.72546
 91  5  7 20 17 59.9970000  0  6G18G16G 6G19G 2G11
  21879557.579     7411281.498 6   5774998.42921
  23071439.1424    -130679.50245    -91519.31061
  22421226.517    -8316053.602 5  -6301822.18021
  20203694.2124   -2806280.54747  -2186711.66462
  20797146.7744  -15975345.64147 -12448285.21762
  22087020.3764   -7473631.90546  -5790070.89561
 91  5  7 20 18 14.9970000  0  6G18G16G 6G19G 2G11
  21886538.985     7447961.212 6   5803579.86321
  23070740.4314    -134359.69145    -94387.06861
  22412718.4074   -8360755.41645  -6336654.67061
  20203647.0244   -2806518.37847  -2186896.99662
  20789880.2124  -16013524.33347 -12478034.77862
  22087126.4544   -7473058.34446  -5789623.97561
 91  5  7 20 18 29.9970000  0  6G18G16G 6G19G 2G11
  21893530.064     7484701.603 6   5832208.56321
  23070063.2204    -137920.04145    -97161.42961
  22404216.204    -8405452.286 5  -6371483.31321
  20203612.4934   -2806697.41147  -2187036.50862
  20782629.9704  -16051629.77247 -12507727.26962
  22087264.1184   -7472335.71046  -5789060.88961
 91  5  7 20 18 44.9970000  0  6G18G16G 6G19G 2G11
  21900532.696     7521495.558 6   5860879.00821
  23069408.6494    -141367.42945    -99847.76261
  22395708.3684   -8450150.85545  -6406313.27761
  20203588.040    -2806824.315 7
  20775391.3144  -16089668.60847 -12537367.85462
  22087430.5094   -7471470.72946  -5788386.89161
 91  5  7 20 18 59.9970000  0  6G18G16G 6G19G 2G11
  21907546.040     7558355.802 6   5889601.11521
  23068777.8684    -144689.40445   -102436.36861
  22387201.1574   -8494838.46045  -6441134.69861
  20203578.431    -2806886.280 7
  20768169.0564  -16127627.91347 -12566946.47162
  22087626.2204   -7470450.80746  -5787592.15861
 91  5  7 20 19 14.9970000  0  6G18G16G 6G19G 2G11
  21914574.9704    7595283.63146   5918375.86961
  23068169.540     -147884.660 5   -104926.24521
  22378701.7514   -8539513.53745  -6475946.36461
  20203578.759    -2806881.732 7
  20760958.4934  -16165506.34947 -12596462.07162
  22087847.2594   -7469274.49046  -5786675.55561
 91  5  7 20 19 29.9970000  0  6G18G16G 6G19G 2G11
  21921611.001     7632264.671 6   5947192.09921
  23067582.337     -150967.093 5   -107328.20721
  22370200.4074   -8584190.01445  -6510759.11561
  20203587.899    -2806824.643 7
  20753763.3604  -16203317.97647 -12625925.61562
  22088098.0794   -7467955.93146  -5785648.11961
 91  5  7 20 19 44.9970000  0  6G18G16G 6G19G 2G11
  21928662.9854    7669311.59846   5976059.65861
  23067022.6264    -153923.82245   -109632.22061
  22361703.1734   -8628854.95545  -6545562.87161
  20203614.946    -2806701.984 7
  20746583.7044  -16241049.64747 -12655326.85862
  22088380.2044   -7466482.19846  -5784499.76661
 91  5  7 20 19 59.9970000  0  6G18G16G 6G19G 2G11
  21935723.970     7706424.589 6   6004978.70021
  23066479.415     -156754.892 5   -111838.31621
  22353202.1894   -8673507.93245  -6580357.30561
  20203645.6654   -2806513.29747
  20739419.3214  -16278701.10547 -12684665.59062
  22088690.9544   -7464853.15846  -5783230.39661
 91  5  7 20 20 14.9970000  0  6G18G16G 6G19G 2G11
  21942798.720     7743606.358 6   6033951.34621
  23065965.353     -159457.607 5   -113944.39121
  22344712.9234   -8718145.85446  -6615140.01961
  20203696.5644   -2806255.41647
  20732269.3064  -16316269.20447 -12713939.37262
  22089030.2354   -7463065.77546  -5781837.63861
 91  5  7 20 20 29.9970000  0  6G18G16G 6G19G 2G11
  21949886.0714    7780851.65346   6062973.47361
  23065478.0094    -162036.92145   -115954.31661
  22336218.962    -8762773.603 5  -6649914.81521
  20203757.2204   -2805932.99047  -2186440.92262
  20725135.9074  -16353758.93447 -12743152.08962
  22089399.751    -7461125.097 6  -5780325.43221
 91  5  7 20 20 44.9970000  0  6G18G16G 6G19G 2G11
  21956985.6424    7818161.65946   6092046.02361
  23065004.829     -164491.574 5   -117867.11621
  22327726.3144   -8807389.89345  -6684680.65661
  20203833.8454   -2805544.77247  -2186138.42462
  20718016.6344  -16391168.86947 -12772302.62862
  22089797.243    -7459030.032 6  -5778692.92521
 91  5  7 20 20 59.9970000  0  6G18G16G 6G19G 2G11
  21964099.5324    7855535.15946   6121168.05861
  23064567.1344    -166822.87245   -119683.77361
  22319237.314    -8851995.698 6  -6719438.34321
  20203918.0174   -2805091.84847  -2185785.51062
  20710913.0954  -16428500.15647 -12801391.89062
  22090225.4154   -7456781.62846  -5776940.93361
 91  5  7 20 21 14.9970000  0  6G18G16G 6G19G 2G11
  21971224.6814    7892973.22946   6150340.40261
  23064143.0714    -169029.54545   -121403.33261
  22310755.3294   -8896589.56346  -6754186.72661
  20204017.4854   -2804572.50047  -2185380.82562
  20703824.4074  -16465751.17947 -12830418.60262
  22090682.899    -7454378.543 6  -5775068.41221
 91  5  7 20 21 29.9970000  0  6G18G16G 6G19G 2G11
  21978360.712     7930470.008 6   6179558.49721
  23063749.142     -171117.066 5   -123030.03421
  22302266.2354   -8941176.68745  -6788929.85561
  20204127.5014   -2803991.86547  -2184928.39562
  20696749.9394  -16502927.29047 -12859386.94462
  22091170.4154   -7451826.07646  -5773079.47961
 91  5  7 20 21 44.9970000  0  6G18G16G 6G19G 2G11
  21985508.4544    7968036.54146   6208830.94961
  23063372.985     -173074.748 5   -124555.56721
  22293785.782    -8985745.965 6  -6823659.08121
  20204252.8454   -2803338.89747  -2184419.59462
  20689691.610   -16540017.418 7 -12888288.28822
  22091682.9544   -7449113.42646  -5770965.73861
 91  5  7 20 21 59.9970000  0  6G18G16G 6G19G 2G11
  21992668.5324    8005665.17946   6238151.78061
  23063028.0244    -174910.16345   -125985.83861
  22285306.7984   -9030304.99145  -6858380.31361
  20204387.2354   -2802621.16747  -2183860.33162
  20682648.001   -16577029.013 7 -12917128.43822
  22092230.1964   -7446248.00246  -5768732.94661
 91  5  7 20 22 14.9970000  0  6G18G16G 6G19G 2G11
  21999840.985     8043351.674 6   6267517.70121
  23062699.8064    -176627.32645   -127323.97361
  22276828.314    -9074857.482 6  -6893096.43221
  20204536.8684   -2801842.44847  -2183253.54862
  20675619.962   -16613966.027 7 -12945910.46722
  22092804.6894   -7443233.85946  -5766384.27061
 91  5  7 20 22 29.9970000  0  6G18G16G 6G19G 2G11
  22007022.5094    8081094.90346   6296927.83061
  23062397.1494    -178227.59545   -128571.01361
  22268350.743    -9119404.315 6  -6927808.17521
  20204694.0174   -2801003.50347  -2182599.83462
  20668604.696   -16650829.371 7 -12974635.09822
  22093406.0404   -7440072.13046  -5763920.59961
 91  5  7 20 22 44.9970000  0  6G18G16G 6G19G 2G11
  22014217.0094    8118901.46346   6326387.30761
  23062117.0484    -179703.99145   -129721.52061
  22259876.860    -9163938.552 6  -6962510.09621
  20204869.6494   -2800097.37547  -2181893.76962
  20661605.4314  -16687612.05347 -13003296.87162
  22094037.6424   -7436756.04446  -5761336.64261
 91  5  7 20 22 59.9970000  0  6G18G16G 6G19G 2G11
  22021424.2044    8156772.05746   6355896.69161
  23061864.228     -181055.555 5   -130774.75821
  22251404.032    -9208459.352 6  -6997201.53621
  20205052.2204   -2799122.89847  -2181134.44462
  20654621.556   -16724313.147 7 -13031895.07422
  22094698.5874   -7433284.72046  -5758631.71861
 91  5  7 20 23 14.9970000  0  6G18G16G 6G19G 2G11
  22028641.8214    8194702.22546   6385452.48861
  23061619.024     -182286.733 5   -131734.17021
  22242936.9314   -9252970.69646  -7031885.61461
  20205252.7124   -2798084.22547  -2180325.10162
  20647652.603   -16760936.764 7 -13060432.90822
  22095387.3844   -7429662.35046  -5755809.09761
 91  5  7 20 23 29.9970000  0  6G18G16G 6G19G 2G11
  22035871.3454    8232688.90246   6415052.30561
  23061409.931     -183400.755 5   -132602.30821
  22234468.345    -9297475.308 6  -7066564.45421
  20205461.0404   -2796984.27747  -2179468.00662
  20640696.321   -16797485.666 7 -13088912.51622
  22096102.3844   -7425891.94546  -5752871.12861
 91  5  7 20 23 44.9970000  0  6G18G16G 6G19G 2G11
  22043112.3844    8270740.02646   6444702.36761
  23061220.540     -184389.734 5   -133373.01221
  22225995.5324   -9341965.14145  -7101231.75561
  20205683.212    -2795814.577 7  -2178556.56722
  20633757.103   -16833951.744 7 -13117327.59522
  22096853.2674   -7421965.51046  -5749811.57361
 91  5  7 20 23 59.9970000  0  6G18G16G 6G19G 2G11
  22050364.7594    8308852.41546   6474400.14061
  23061056.2434    -185256.63445   -134048.59561
  22217538.0324   -9386442.82346  -7135889.60761
  20205915.8214   -2794577.76047  -2177592.82262
  20626833.118   -16870337.543 7 -13145680.11522
  22097631.4234   -7417885.94246  -5746632.70161
 91  5  7 20 24 14.9970000  0  6G18G16G 6G19G 2G11
  22057627.985     8347020.370 6   6504141.23221
  23060919.3604    -186006.95345   -134633.35761
  22209072.5564   -9430913.87946  -7170542.29661
  20206167.556    -2793279.468 7  -2176581.18122
  20619925.290   -16906648.878 7 -13173974.61122
  22098433.462    -7413658.918 6  -5743338.92621
 91  5  7 20 24 29.9970000  0  6G18G16G 6G19G 2G11
  22064902.079     8385239.696 6   6533922.33421
  23060800.439     -186644.943 5   -135130.55321
  22200611.3684   -9475382.20346  -7205192.83761
  20206422.1034   -2791923.65547  -2175524.71562
  20613028.181   -16942889.731 7 -13202214.18922
  22099265.4314   -7409288.51146  -5739933.41061
 91  5  7 20 24 44.9970000  0  6G18G16G 6G19G 2G11
  22072184.0094    8423514.94346   6563747.01761
  23060695.7434    -187166.08345   -135536.72061
  22192150.1654   -9519843.17946  -7239837.66761
  20206694.392    -2790505.421 7  -2174419.60922
  20606145.798   -16979055.407 7 -13230395.19122
  22100124.4154   -7404770.11146  -5736412.59061
 91  5  7 20 24 59.9970000  0  6G18G16G 6G19G 2G11
  22079477.3604    8461846.21446   6593615.36161
  23060616.7904    -187570.13845   -135851.65761
  22183693.134    -9564296.129 6  -7274476.25321
  20206973.298    -2789024.305 7  -2173265.50622
  20599277.243   -17015145.216 7 -13258517.07022
  22101012.0954   -7400103.37146  -5732776.17161
 91  5  7 20 25 14.9970000  0  6G18G16G 6G19G 2G11
  22086786.923     8500240.355 6   6623532.68721
  23060570.720     -187849.970 5   -136069.75921
  22175237.6494   -9608733.88246  -7309102.97461
  20207270.860    -2787472.979 7  -2172056.69322
  20592425.267   -17051151.906 7 -13286574.18822
  22101931.3994   -7395281.26846  -5729018.70261
 91  5  7 20 25 29.9970000  0  6G18G16G 6G19G 2G11
  22094101.5404    8538685.06146   6653489.41461
  23060535.087     -188017.853 5
  22166777.649    -9653168.278 6  -7343727.09721
  20207575.735    -2785863.275 7  -2170802.39422
  20585587.329   -17087087.733 7 -13314576.08222
  22102876.3064   -7390315.96246  -5725149.63061
 91  5  7 20 25 44.9970000  0  6G18G16G 6G19G 2G11
  22101427.3294    8577181.60346   6683486.54461
  23060526.8604    -188072.50345
  22158326.5404   -9697597.88646  -7378347.47761
  20207897.048    -2784193.456 7  -2169501.24322
  20578761.985   -17122950.928 7 -13342521.38522
  22103844.0954   -7385205.89646  -5721167.77061
 91  5  7 20 25 59.9970000  0  6G18G16G 6G19G 2G11
  22108763.2824    8615728.41846   6713522.82561
  23060541.1654    -188015.36645
  22149871.220    -9742024.037 6  -7412965.16621
  20208220.915    -2782465.087 7  -2168154.47722
  20571952.056   -17158743.039 7 -13370411.29522
  22104844.4704   -7379952.92046  -5717074.54461
 91  5  7 20 26 14.9970000  0  6G18G16G 6G19G 2G11
  22116108.3604    8654325.93746   6743598.64361
  23060571.7124    -187846.21945
  22141415.649    -9786445.888 6  -7447579.51921
  20208564.306    -2780677.241 7  -2166761.36822
  20565154.368   -17194463.177 7 -13398245.12222
  22105874.3294   -7374556.16046  -5712869.28361
 91  5  7 20 26 29.9970000  0  6G18G16G 6G19G 2G11
  22123461.0244    8692971.88446   6773712.17061
  23060624.493     -187567.323 5
  22132964.8604   -9830865.53046  -7482192.14561
  20208918.181    -2778831.882 7  -2165323.44322
  20558368.423   -17230113.443 7 -13426024.50622
  22106925.6964   -7369017.82646  -5708553.69961
 91  5  7 20 26 44.9970000  0  6G18G16G 6G19G 2G11
  22130824.970     8731667.414 6   6803864.34721
  23060692.7594    -187177.18045   -135546.00661
  22124512.6494   -9875281.38846  -7516801.80261
  20209277.673    -2776927.644 7  -2163839.63622
  20551599.618   -17265692.422 7 -13453748.34322
  22108009.5954   -7363336.78646  -5704126.92261
 91  5  7 20 26 59.9970000  0  6G18G16G 6G19G 2G11
  22138199.9854    8770423.49946   6834063.70761
  23060797.314     -186664.926 5   -135146.94421
  22116063.665    -9919682.203 6  -7551399.76921
  20209654.782    -2774953.086 7  -2162301.04022
  20544844.868   -17301188.886 7 -13481407.87922
  22109116.9154   -7357501.89046  -5699580.25461
 91  5  7 20 27 14.9970000  0  6G18G16G 6G19G 2G11
  22145583.0644    8809220.75446   6864295.14361
  23060904.2594    -186049.84645   -134667.72661
  22107613.1184   -9964087.18346  -7586000.95861
  20210037.251    -2772927.255 6  -2160722.48622
  20538102.149   -17336621.882 7 -13509017.96122
  22110257.8994   -7351532.31246  -5694928.62961
 91  5  7 20 27 29.9970000  0  6G18G16G 6G19G 2G11
  22152975.071     8848070.728 6   6894567.66621
  23061050.6344    -185320.34345   -134099.39261
  22099164.868   -10008484.266 6  -7620596.01221
  20210438.165    -2770838.059 6  -2159094.56022
  20531374.071   -17371979.689 7 -13536569.45622
  22111418.3214   -7345416.44346  -5690163.02461
 91  5  7 20 27 44.9970000  0  6G18G16G 6G19G 2G11
  22160377.0874    8886968.30246   6924877.27861
  23061199.782     -184481.658 4   -133445.95521
  22090713.8534  -10052878.30446  -7655188.67761
  20210845.290    -2768690.433 7  -2157421.10122
  20524659.009   -17407267.006 7 -13564066.02522
  22112609.9784   -7339159.18646  -5685287.23761
 91  5  7 20 27 59.9970000  0  6G18G16G 6G19G 2G11
  22167788.064     8925913.132 6   6955223.70421
  23061379.415     -183533.753 5   -132707.40421
  22082271.9784  -10097269.32646  -7689779.00061
  20211263.149    -2766484.506 7  -2155702.21722
  20517956.712   -17442484.059 7 -13591507.83822
  22113828.9234   -7332760.82646  -5680301.51161
 91  5  7 20 28 14.9970000  0  6G18G16G 6G19G 2G11
  22175209.915     8964912.929 6   6985612.96621
  23061579.7434    -182468.95845   -131877.80261
  22073823.5644  -10141649.21346  -7724360.64561
  20211697.712    -2764212.015 6  -2153931.46122
  20511270.548   -17477622.762 7 -13618888.60322
  22115074.8844   -7326213.46646  -5675199.66761
 91  5  7 20 28 29.9970000  0  6G18G16G 6G19G 2G11
  22182641.618     9003958.617 6   7016037.98921
  23061815.032     -181296.138 5   -130963.99421
  22065380.485   -10186026.827 6  -7758940.52021
  20212139.618    -2761881.541 7  -2152115.52422
  20504597.040   -17512691.876 7 -13646215.14222
  22116343.8214   -7319525.90746  -5669988.58961
 91  5  7 20 28 44.9970000  0  6G18G16G 6G19G 2G11
  22190079.4704    9043050.54746   7046499.04161
  23062056.3064    -180015.07845   -129965.86161
  22056935.314   -10230401.272 6  -7793517.93121
  20212596.782    -2759492.588 6  -2150254.02022
  20497936.993   -17547690.771 7 -13673486.96422
  22117642.9074   -7312697.79546  -5664667.98061
 91  5  7 20 28 59.9970000  0  6G18G16G 6G19G 2G11
  22197528.118     9082191.252 6   7076998.10421
  23062318.4784    -178623.32845   -128881.48161
  22048492.4544  -10274770.10546  -7828090.95161
  20213066.368    -2757042.366 6  -2148344.77422
  20491291.079   -17582616.919 7 -13700702.09522
  22118970.1814   -7305726.71146  -5659235.97461
 91  5  7 20 29 14.9970000  0  6G18G16G 6G19G 2G11
  22204985.2124    9121373.84546   7107529.80361
  23062615.368     -177127.656 5   -127716.13021
  22040049.5014  -10319139.80846  -7862664.66161
  20213540.196    -2754537.440 6  -2146392.90222
  20484657.439   -17617476.829 7 -13727865.61722
  22120321.3764   -7298619.42646  -5653697.82461
 91  5  7 20 29 29.9970000  0  6G18G16G 6G19G 2G11
  22212450.915     9160605.853 6   7138099.99721
  23062908.0014    -175520.24345   -126463.70161
  22031606.4544  -10363502.34546  -7897232.80061
  20214027.767    -2751969.783 7  -2144392.15022
  20478037.196   -17652262.525 7 -13754971.30622
  22121702.2124   -7291368.14546  -5648047.47861
 91  5  7 20 29 44.9970000  0  6G18G16G 6G19G 2G11
  22219925.821     9199888.005 6   7168709.28221
  23063245.8214    -173800.67045   -125123.87361
  22023167.235   -10407856.811 6  -7931794.63221
  20214529.618    -2749338.482 6  -2142341.80222
  20471432.337   -17686973.299 7 -13782018.61822
  22123109.6104   -7283972.22746  -5642284.42661
 91  5  7 20 29 59.9970000  0  6G18G16G 6G19G 2G11
  22227410.267     9239213.604 6   7199352.40721
  23063588.017     -171975.521 5   -123701.75121
  22014726.7124  -10452209.53646  -7966355.11061
  20215039.274    -2746649.735 7  -2140246.69822
  20464840.134   -17721615.175 7 -13809012.24022
  22124541.8924   -7276438.05946  -5636413.64561
 91  5  7 20 30 14.9970000  0  6G18G16G 6G19G 2G11
  22234902.681     9278587.462 6   7230033.14721
  23063954.1104    -170039.89245   -122193.57961
  22006287.6734  -10496555.23646  -8000910.11661
  20215564.189    -2743898.336 6  -2138102.76922
  20458261.790   -17756183.380 7 -13835948.45722
  22126005.3844   -7268760.68346  -5630431.27761
 91  5  7 20 30 29.9970000  0  6G18G16G 6G19G 2G11
  22242402.056     9318000.757 6   7260744.60521
  23064351.907     -168002.322 5   -120605.97921
  21997848.798   -10540902.444 6  -8035466.30821
  20216097.907    -2741092.720 6  -2135916.59522
  20451696.071   -17790686.160 7 -13862833.69522
  22127491.3684   -7260948.75746  -5624344.05761
 91  5  7 20 30 44.9970000  0  6G18G16G 6G19G 2G11
  22249910.9074    9357453.16546   7291486.54061
  23064749.0404    -165863.45445   -118939.43261
  21989408.5874  -10585251.36746  -8070023.81461
  20216643.392    -2738233.142 6  -2133688.36222
  20445143.048   -17825124.036 7 -13889668.35222
  22129002.9394   -7253002.75246  -5618152.37361
 91  5  7 20 30 59.9970000  0  6G18G16G 6G19G 2G11
  22257424.548     9396941.619 6   7322256.56021
  23065179.4394    -163625.87045   -117195.94461
  21980969.571   -10629604.422 6  -8104584.55421
  20217192.712    -2735321.905 6  -2131419.88522
  20438601.064   -17859499.412 7 -13916454.31122
  22130541.8374   -7244925.39646  -5611858.32361
 91  5  7 20 31 14.9970000  0  6G18G16G 6G19G 2G11
  22264946.9784    9436475.01846   7353061.60661
  23065623.384     -161280.926 5   -115368.80621
  21972530.8534  -10673952.67046  -8139141.55261
  20217761.5324   -2732349.99646  -2129104.13162
  20432073.626   -17893803.323 7 -13943184.58322
  22132105.0014   -7236707.75346  -5605454.97061
 91  5  7 20 31 29.9970000  0  6G18G16G 6G19G 2G11
  22272478.798     9476051.116 6   7383899.91821
  23066088.6494    -158831.00845   -113459.90261
  21964090.814   -10718298.091 6  -8173696.34021
  20218341.782    -2729319.517 6  -2126742.73722
  20425558.399   -17928037.952 7 -13969860.86722
  22133695.2594   -7228352.22746  -5598944.16761
 91  5  7 20 31 44.9970000  0  6G18G16G 6G19G 2G11
  22280016.962     9515662.504 6   7414765.72421
  23066575.985     -156283.193 5   -111474.65521
  21955649.876   -10762647.800 6  -8208254.48021
  20218925.798    -2726237.302 6  -2124341.02322
  20419056.220   -17962210.253 7 -13996488.58522
  22135308.2124   -7219865.95346  -5592331.48761
 91  5  7 20 31 59.9960000  0  6G18G16G 6G19G 2G11
  22287563.5044    9555313.81746   7445662.65061
  23067076.231     -153630.472 5   -109407.73621
  21947213.4494  -10806990.93946  -8242807.48161
  20219520.770    -2723096.037 6  -2121893.29822
  20412567.309   -17996310.204 7 -14023059.92722
  22136949.1134   -7211242.17046  -5585611.65161
 91  5  7 20 32 14.9960000  0  6G18G16G 6G19G 2G11
  22295116.5204    9595009.19946   7476593.90161
  23067603.574     -150873.360 5   -107259.42321
  21938774.0744  -10851334.03246  -8277360.46961
  20220131.770    -2719895.612 6  -2119399.47622
  20406090.231   -18030343.037 7 -14049578.96822
  22138618.0204   -7202480.49546  -5578784.37561
 91  5  7 20 32 29.9960000  0  6G18G16G 6G19G 2G11
  22302679.5664    9634748.63946   7507559.50361
  23068137.1524    -148009.64044   -105028.02961
  21930340.2544  -10895671.46246  -8311909.02861
  20220748.816    -2716633.619 6  -2116857.67922
  20399627.379   -18064303.807 7 -14076041.85922
  22140313.9104   -7193578.99246  -5571848.13661
 91  5  7 20 32 44.9960000  0  6G18G16G 6G19G 2G11
  22310247.2384    9674521.00246   7538550.74161
  23068714.457     -145050.362 5   -102722.20721
  21921897.7314  -10940014.07646  -8346461.64461
  20221382.137    -2713320.788 6  -2114276.27822
  20393177.629   -18098203.387 7 -14102457.06622
  22142031.1454   -7184548.66046  -5564811.51761
 91  5  7 20 32 59.9960000  0  6G18G16G 6G19G 2G11
  22317824.1844    9714330.61746   7569570.99961
  23069291.207     -141990.952 4   -100338.32921
  21913462.457   -10984357.049 6  -8381014.52621
  20222023.285    -2709952.443 6  -2111651.61022
  20386739.496   -18132037.337 7 -14128821.13622
  22143775.6914   -7175385.13946  -5557671.11461
 91  5  7 20 33 14.9960000  0  6G18G16G 6G19G 2G11
  22325405.9104    9754177.85546   7600620.58861
  23069890.043     -138831.428 4    -97876.47421
  21905022.457   -11028700.195 6  -8415567.55621
  20222674.684    -2706528.333 6  -2108983.48822
  20380313.582   -18165805.203 7 -14155133.70722
  22145541.7384   -7166088.10446  -5550426.67461
 91  5  7 20 33 29.9960000  0  6G18G16G 6G19G 2G11
  22332999.191     9794071.579 6   7631706.37021
  23070510.590     -135562.720 4    -95329.53021
  21896584.9964  -11073033.88146  -8450113.19961
  20223336.746    -2703038.869 6  -2106264.43722
  20373901.762   -18199497.711 7 -14181387.56522
  22147340.9734   -7156648.54246  -5543071.17461
 91  5  7 20 33 44.9960000  0  6G18G16G 6G19G 2G11
  22340595.1764    9834000.55146   7662819.66161
  23071160.0204    -132195.88845    -92706.11461
  21888149.1214  -11117368.80246  -8484659.82161
  20224013.926    -2699494.717 6  -2103502.77922
  20367501.590   -18233125.476 7 -14207590.97122
  22149160.4654   -7147077.20946  -5535613.00161
 91  5  7 20 33 59.9960000  0  6G18G16G 6G19G 2G11
  22348201.145     9873968.861 6   7693963.58021
  23071817.106     -128727.066 4    -90003.24021
  21879713.910   -11161700.731 6  -8519204.10421
  20224699.559    -2695891.638 6  -2100695.20122
  20361116.520   -18266684.152 7 -14233740.54022
  22151007.6134   -7137370.08146  -5528049.00561
 91  5  7 20 34 14.9960000  0  6G18G16G 6G19G 2G11
  22355812.832     9913966.595 6   7725130.42321
  23072496.801     -125165.509 5
  21871276.5824  -11206039.09046  -8553753.39661
  20225394.285    -2692239.083 6
  20354742.051   -18300183.364 7 -14259843.77522
  22152879.8244   -7127536.86846  -5520386.77161
 91  5  7 20 34 29.9960000  0  6G18G16G 6G19G 2G11
  22363431.8794    9954003.26846   7756327.60261
  23073189.3324    -121502.01544
  21862839.7934  -11250374.27946  -8588300.22161
  20226098.895    -2688527.292 6
  20348380.285   -18333613.508 7 -14285893.19122
  22154776.1064   -7117568.13846  -5512618.93861
 91  5  7 20 34 44.9960000  0  6G18G16G 6G19G 2G11
  22371059.191     9994080.403 6   7787556.32521
  23073907.441     -117735.440 4
  21854403.2854  -11294704.57246  -8622843.23661
  20226820.496    -2684754.701 6
  20342031.582   -18366973.178 7 -14311887.68922
  22156699.3404   -7107462.72346  -5504744.59361
 91  5  7 20 34 59.9960000  0  6G18G16G 6G19G 2G11
  22378692.770    10034197.445 6   7818816.13721
  23074648.2774    -113865.83045
  21845968.7314  -11339029.88046  -8657382.35761
  20227547.285    -2680920.916 6
  20335696.160   -18400262.207 7 -14337827.14422
  22158647.9814   -7097220.58246  -5496763.71161
 91  5  7 20 35 14.9960000  0  6G18G16G 6G19G 2G11
  22386335.3874   10074351.57846   7850104.83561
  23075402.5434    -109896.00245    -75330.16461
  21837533.6294  -11383352.73746  -8691919.59261
  20228289.496    -2677028.697 6  -2085996.90722
  20329375.613   -18433483.273 7 -14363713.64422
  22160621.3094   -7086844.61846  -5488678.55761
 91  5  7 20 35 29.9960000  0  6G18G16G 6G19G 2G11
  22393981.8014   10114539.31646   7881419.73961
  23076173.074     -105829.732 4    -72161.72921
  21829099.981   -11427676.539 6  -8726457.52821
  20229038.387    -2673081.441 7  -2082921.14522
  20323065.207   -18466639.803 7 -14389549.85822
  22162620.5664   -7076338.35646  -5480491.87361
 91  5  7 20 35 44.9960000  0  6G18G16G 6G19G 2G11
  22401635.8634   10154767.38146   7912766.07661
  23076967.918     -101659.956 5    -68912.65121
  21820666.5984  -11471993.85646  -8760990.44361
  20229804.152    -2669071.510 6  -2079796.54622
  20316769.527   -18499724.610 7 -14415330.17922
  22164649.9344   -7065694.67646  -5472198.10661
 91  5  7 20 35 59.9960000  0  6G18G16G 6G19G 2G11
  22409299.6914   10195037.55846   7944145.21161
  23077781.8564     -97384.97245    -65581.58761
  21812235.777   -11516302.741 6  -8795516.76421
  20230578.254    -2664997.007 6  -2076621.62622
  20310488.410   -18532735.705 7 -14441053.06722
  22166696.6604   -7054911.78746  -5463795.86361
 91  5  7 20 36 14.9960000  0  6G18G16G 6G19G 2G11
  22416970.621    10235339.598 6   7975549.18221
  23078612.0204     -93015.14545    -62176.63661
  21803800.0744  -11560613.16646  -8830044.30361
  20231364.793    -2660868.110 6  -2073404.32522
  20304218.231   -18565683.075 7 -14466726.29623
  22168776.051    -7044000.050 6  -5455293.22621
 91  5  7 20 36 29.9960000  0  6G18G16G 6G19G 2G11
  22424644.4884   10275670.08046   8006975.31361
  23079465.4574     -88553.87345    -58700.39161
  21795370.902   -11604928.248 6  -8864575.45421
  20232158.402    -2656687.793 6  -2070146.95722
  20297959.949   -18598569.857 7 -14492352.32022
  22170876.4104   -7032962.83146  -5446692.80461
 91  5  7 20 36 44.9960000  0  6G18G16G 6G19G 2G11
  22432325.004    10316039.368 5   8038431.67921
  23080327.832      -83990.705 4    -55144.78021
  21786935.676   -11649237.148 6  -8899101.80321
  20232967.051    -2652445.303 6  -2066841.14722
  20291715.309   -18631385.421 7 -14517922.84023
  22173002.285    -7021789.654 6  -5437986.45421
 91  5  7 20 36 59.9960000  0  6G18G16G 6G19G 2G11
  22440016.402    10356444.575 5   8069916.03621
  23081215.3244     -79328.45244    -51511.93461
  21778508.1604  -11693542.42446  -8933625.31661
  20233785.129    -2648143.103 7  -2063488.80422
  20285483.3244  -18664132.42347 -14543439.94363
  22175153.4264   -7010483.20046  -5429176.24061
 91  5  7 20 37 14.9960000  0  6G18G16G 6G19G 2G11
  22447713.9494   10396890.07445   8101431.79661
  23082127.246      -74562.899 5    -47798.64121
  21770078.1064  -11737839.16946  -8968142.18561
  20234616.887    -2643776.314 6  -2060086.13422
  20279266.449   -18696805.860 7 -14568899.72023
  22177331.973    -6999038.768 6  -5420258.51521
 91  5  7 20 37 29.9960000  0  6G18G16G 6G19G 2G11
  22455416.723    10437374.343 5   8132977.74321
  23083056.777      -69695.349 5    -44005.88921
  21761649.934   -11782128.746 6  -9002653.47421
  20235459.356    -2639346.224 7  -2056634.14322
  20273062.387   -18729407.196 7 -14594303.31423
  22179536.621    -6987458.015 6  -5411234.56821
 91  5  7 20 37 44.9960000  0  6G18G16G 6G19G 2G11
  22463126.496    10477894.608 5   8164551.75421
  23084002.738      -64728.499 5    -40135.69821
  21753223.699   -11826413.744 6  -9037161.19021
  20236314.277    -2634855.398 7  -2053134.81722
  20266872.832   -18761939.200 7 -14619652.88523
  22181763.824    -6975743.887 6  -5402106.70121
 91  5  7 20 37 59.9960000  0  6G18G16G 6G19G 2G11
  22470845.3014   10518449.92345   8196153.05861
  23084957.9654     -59663.34244    -36188.92761
  21744795.0664  -11870694.45946  -9071665.57461
  20237178.543    -2630304.191 7  -2049588.44522
  20260694.277   -18794402.356 7 -14644948.80923
  22184020.4654   -6963897.07746  -5392875.42761
 91  5  7 20 38 14.9960000  0  6G18G16G 6G19G 2G11
  22478570.637    10559040.300 5   8227781.69521
  23085938.4654     -54499.85244    -32165.49761
  21736371.0124  -11914970.54546  -9106166.34161
  20238058.645    -2625692.145 7  -2045994.66422
  20254529.574   -18826796.264 7 -14670190.77023
  22186299.996    -6951917.297 6  -5383540.55621
 91  5  7 20 38 29.9960000  0  6G18G16G 6G19G 2G11
  22486300.7624   10599669.40845   8259440.49161
  23086946.840      -49234.236 5    -28062.54621
  21727944.4734  -11959238.10146  -9140660.48461
  20238945.465    -2621015.608 7  -2042350.63422
  20248379.832   -18859117.173 7 -14695375.85223
  22188603.926    -6939801.085 6  -5374099.37421
 91  5  7 20 38 44.9960000  0  6G18G16G 6G19G 2G11
  22494039.6454   10640335.18645   8291127.88361
  23087967.106      -43868.618 5    -23881.64121
  21719525.5904  -12003498.89046  -9175149.33361
  20239851.176    -2616276.199 7  -2038657.61022
  20242242.082   -18891366.871 7 -14720505.44423
  22190935.613    -6927550.384 6  -5364553.38921
 91  5  7 20 38 59.9960000  0  6G18G16G 6G19G 2G11
  22501785.6764   10681037.53745   8322843.74961
  23089005.684      -38403.144 4    -19622.93121
  21711099.7854  -12047752.65846  -9209632.72161
  20240765.793    -2611473.622 7  -2034915.36622
  20236118.973   -18923545.456 7 -14745579.62223
  22193293.7544   -6915165.26446  -5354902.66261
 91  5  7 20 39 14.9960000  0  6G18G16G 6G19G 2G11
  22509538.543    10721778.034 5   8354589.34821
  23090068.918      -32836.080 5    -15285.10021
  21702682.738   -12091997.397 6  -9244109.06921
  20241691.832    -2606606.044 7  -2031122.47322
  20230009.262   -18955650.725 7 -14770596.67223
  22195676.848    -6902644.011 6  -5345145.86521
 91  5  7 20 39 29.9960000  0  6G18G16G 6G19G 2G11
  22517298.160    10762564.436 5   8386370.72621
  23091150.5204     -27160.03445    -10862.27561
  21694266.098   -12136225.093 6  -9278572.13721
  20242632.238    -2601665.248 7  -2027272.52022
  20223915.988   -18987674.747 7 -14795550.40923
  22198084.840    -6889978.799 6  -5335276.88621
 91  5  7 20 39 44.9960000  0  6G18G16G 6G19G 2G11
  22525069.2464   10803390.09045   8418182.68761
  23092249.254      -21381.474 5     -6359.59421
  21685851.738   -12180441.849 6  -9313026.69421
  20243583.965    -2596657.434 7  -2023370.35722
  20217835.543   -19019623.867 7 -14820445.78723
  22200517.8794   -6877176.19246  -5325300.84761
 91  5  7 20 39 59.9960000  0  6G18G16G 6G19G 2G11
  22532847.4344   10844255.93245   8450025.95361
  23093366.2384     -15499.40345     -1776.28761
  21677443.1844  -12224646.67046  -9347471.92461
  20244551.941    -2591581.477 7  -2019415.08622
  20211770.371   -19051496.942 7 -14845281.90423
  22202985.559    -6864235.307 6  -5315217.06221
 91  5  7 20 40 14.9960000  0  6G18G16G 6G19G 2G11
  22540630.6134   10885156.13545   8481896.00461
  23094504.598       -9519.711 5      2883.10121
  21669029.5514  -12268844.95446  -9381912.08661
  20245526.340    -2586442.933 7  -2015411.05622
  20205718.129   -19083299.565 7 -14870063.12423
  22205472.606    -6851161.907 6  -5305030.01621
 91  5  7 20 40 29.9960000  0  6G18G16G 6G19G 2G11
  22548421.770    10926101.983 5   8513801.62921
  23095665.4024      -3430.94345      7627.45761
  21660623.7314  -12313024.84946  -9416337.90761
  20246519.2384   -2581230.01047  -2011349.05962
  20199683.059   -19115020.099 7 -14894780.38123
  22207988.262    -6837944.531 6  -5294730.78521
 91  5  7 20 40 44.9960000  0  6G18G16G 6G19G 2G11
  22556218.465    10967078.409 5   8545731.06721
  23096842.8094       2752.36745     12445.49961
  21652217.535   -12357201.218 6  -9450760.97721
  20247522.848    -2575957.338 7  -2007240.51022
  20193659.395   -19146673.374 7 -14919445.23023
  22210528.574    -6824598.059 6  -5284330.95721
 91  5  7 20 40 59.9960000  0  6G18G16G 6G19G 2G11
  22564024.637    11008090.213 5   8577688.07421
  23098033.098        9034.329 4     17340.48921
  21643810.0514  -12401368.86346  -9485177.26661
  20248536.488    -2570619.997 7  -2003081.56522
  20187648.270   -19178254.453 7 -14944053.82123
  22213092.9264   -6811117.81846  -5273826.88761
 91  5  7 20 41 14.9960000  0  6G18G16G 6G19G 2G11
  22571833.301    11049134.679 5   8609670.54321
  23099250.504       15412.233 5     22310.13721
  21635409.1524  -12445530.14146  -9519588.57161
  20249565.668    -2565220.207 7  -1998873.96122
  20181653.5904  -19209765.68447 -14968607.98663
  22215682.785    -6797506.555 6  -5263220.73321
 91  5  7 20 41 29.9960000  0  6G18G16G 6G19G 2G11
  22579649.684    11090219.361 5   8641684.34121
  23100484.3094      21893.65645     27360.45161
  21627005.676   -12489677.082 6  -9553988.72921
  20250608.9024   -2559750.07546  -1994611.54362
  20175671.6064  -19241199.32348 -14993101.69263
  22218298.512    -6783756.649 6  -5252506.53221
 91  5  7 20 41 44.9960000  0  6G18G16G 6G19G 2G11
  22587476.6454   11131339.58145   8673725.81661
  23101735.106       28474.166 5     32488.01821
  21618607.082   -12533814.279 6  -9588381.28521
  20251661.176    -2554214.165 6  -1990297.87022
  20169703.3634  -19272559.86647 -15017538.44063
  22220941.910    -6769872.828 6  -5241687.99821
 91  5  7 20 41 59.9960000  0  6G18G16G 6G19G 2G11
  22595308.9654   11172491.45245   8705791.97961
  23103008.2314      35149.48245     37689.46161
  21610209.277   -12577945.065 6  -9622768.83421
  20252724.1994   -2548615.76847  -1985935.51162
  20163748.2384  -19303850.92047 -15041921.03963
  22223606.5664   -6755858.74246  -5230767.93861
 91  5  7 20 42 14.9960000  0  6G18G16G 6G19G 2G11
  22603145.3564   11213678.94045   8737885.89561
  23104294.5434      41923.97345     42968.14961
  21601814.3244  -12622064.92446  -9657147.87961
  20253804.5124   -2542950.44046  -1981520.99762
  20157808.4654  -19335067.77547 -15066245.82563
  22226301.074    -6741710.176 6  -5219743.09921
 91  5  7 20 42 29.9960000  0  6G18G16G 6G19G 2G11
  22610989.262    11254897.385 5   8770003.90621
  23105605.020       48792.826 5     48320.39121
  21593419.0124  -12666178.35846  -9691521.91961
  20254892.238    -2537222.774 7  -1977057.90522
  20151881.9024  -19366215.23047 -15090516.53463
  22229019.973    -6727431.987 6  -5208617.25621
 91  5  7 20 42 44.9960000  0  6G18G16G 6G19G 2G11
  22618840.9024   11296154.42345   8802151.99361
  23106929.6684      55763.81145     53752.18461
  21585026.7384  -12710277.38246  -9725884.73161
  20255997.301    -2531424.680 6  -1972539.93522
  20145968.8324  -19397285.41047 -15114727.02763
  22231758.2234   -6713016.52446  -5197384.44161
 91  5  7 20 42 59.9960000  0  6G18G16G 6G19G 2G11
  22626698.637    11337448.695 5   8834329.08921
  23108278.7854      62835.66645     59262.61861
  21576638.4884  -12754362.98746  -9760237.08561
  20257115.2074   -2525557.22546  -1967967.92062
  20140070.7704  -19428279.45247 -15138878.19163
  22234527.981    -6698465.070 6  -5186045.66121
 91  5  7 20 43 14.9960000  0  6G18G16G 6G19G 2G11
  22634564.731    11378773.674 5   8866530.14521
  23109640.863       70001.767 5     64846.46421
  21568250.746   -12798441.315 6  -9794583.76921
  20258242.199    -2519626.357 6  -1963346.49022
  20134186.0434  -19459203.61347 -15162974.90163
  22237322.340    -6683784.025 6  -5174605.90221
 91  5  7 20 43 29.9960000  0  6G18G16G 6G19G 2G11
  22642434.1294   11420129.40945   8898755.12461
  23111017.5274      77261.98945     70503.65561
  21559865.1844  -12842512.04246  -9828924.52861
  20259382.1914   -2513631.93246  -1958675.53962
  20128315.3404  -19490057.56347 -15187016.90063
  22240144.223    -6668973.482 6  -5163065.23021
 91  5  7 20 43 44.9960000  0  6G18G16G 6G19G 2G11
  22650308.5744   11461522.81145   8931009.49961
  23112420.699       84623.426 5
  21551481.4024  -12886567.67246  -9863253.53561
  20260538.965    -2507566.424 6  -1953949.19522
  20122458.1764  -19520833.93447 -15210998.45163
  22242986.777    -6654026.210 6  -5151418.02321
 91  5  7 20 43 59.9960000  0  5G18G 6G19G 2G11
  22658194.8714   11502950.75045   8963290.75261
  21543097.793   -12930610.949 6  -9897572.90821
  20261706.113    -2501432.770 6  -1949169.74922
  20116615.9414  -19551535.63047 -15234921.81363
  22245855.527    -6638945.266 6  -5139666.65221
 91  5  7 20 44 14.9960000  0  5G18G 6G19G 2G11
  22666081.4734   11544417.28645   8995602.09561
  21534722.5124  -12974637.56846  -9931879.29761
  20262885.059    -2495226.531 6  -1944333.74722
  20110788.5434  -19582158.64147 -15258783.86063
  22248752.332    -6623726.702 6  -5127808.04721
 91  5  7 20 44 29.9960000  0  5G18G 6G19G 2G11
  22673982.0124   11585911.22645   9027934.75261
  21526342.129   -13018658.553 6  -9966181.29721
  20264076.0984   -2488958.73846  -1939449.78162
  20104974.6294  -19612713.83648 -15282593.06363
  22251671.426    -6608381.872 6  -5115851.05121
 91  5  7 20 44 44.9960000  0  5G18G 6G19G 2G11
  22681884.824    11627434.936 5   9060290.66421
  21517967.504   -13062671.122 6 -10000476.74821
  20265282.348    -2482626.797 6  -1934515.82522
  20099173.0514  -19643198.62047 -15306347.40563
  22254612.926    -6592908.352 6  -5103793.78521
 91  5  7 20 44 59.9960000  0  5G18G 6G19G 2G11
  22689788.488    11668987.721 5   9092669.19321
  21509594.8094  -13106675.51046 -10034765.81761
  20266498.5824   -2476230.88846  -1929532.02962
  20093385.1994  -19673613.33747 -15330047.14663
  22257585.543    -6577306.687 6  -5091636.65821
 91  5  7 20 45 14.9960000  0  5G18G 6G19G 2G11
  22697702.340    11710571.552 5   9125071.91021
  21501225.1684  -13150669.32546 -10069046.64661
  20267729.7464   -2469768.48146  -1924496.41862
  20087610.2934  -19703955.66647 -15353690.48263
  22260578.613    -6561574.681 6  -5079377.97321
 91  5  7 20 45 29.9960000  0  5G18G 6G19G 2G11
  22705621.926    11752176.457 5   9157491.07821
  21492851.0744  -13194662.16446 -10103326.72761
  20268969.418    -2463249.251 6  -1919416.51822
  20081848.8954  -19734235.38247 -15377285.02663
  22263596.551    -6545722.332 6  -5067025.50821
 91  5  7 20 45 44.9960000  0  5G18G 6G19G 2G11
  22713539.3564   11793805.25345   9189928.83061
  21484482.5124  -13238650.94646 -10137603.62961
  20270221.965    -2456670.285 6  -1914290.07922
  20076099.7384  -19764449.52947 -15400828.48063
  22266635.582    -6529746.947 6  -5054577.17321
 91  5  7 20 45 59.9960000  0  5G18G 6G19G 2G11
  22721472.2464   11835461.43645   9222387.94261
  21476111.168   -13282631.800 6 -10171874.35721
  20271485.684    -2450027.568 6  -1909113.96022
  20070362.5984  -19794594.31447 -15424317.88463
  22269698.504    -6513644.944 6  -5042030.17621
 91  5  7 20 46 14.9960000  0  5G18G 6G19G 2G11
  22729402.652    11877144.687 5   9254868.15221
  21467742.9264  -13326604.40146 -10206138.66061
  20272763.629    -2443320.905 6  -1903888.01122
  20064640.2854  -19824669.56747 -15447753.10863
  22272785.027    -6497416.322 6  -5029384.51521
 91  5  7 20 46 29.9960000  0  5G18G 6G19G 2G11
  22737334.676    11918846.803 5   9287363.04821
  21459375.5274  -13370576.71546 -10240402.73461
  20274050.402    -2436558.257 6  -1898618.43822
  20058928.4964  -19854683.40847 -15471140.47563
  22275896.6134   -6481069.42146  -5016646.68661
 91  5  7 20 46 44.9960000  0  5G18G 6G19G 2G11
  22745278.996    11960574.060 5   9319877.52921
  21451009.9574  -13414542.28746 -10274661.54961
  20275348.324    -2429733.128 6  -1893300.18522
  20053229.4414  -19884629.47647 -15494475.03463
  22279030.754    -6464598.080 6  -5003811.90021
 91  5  7 20 46 59.9960000  0  5G18G 6G19G 2G11
  22753227.457    12002328.550 5   9352413.24821
  21442644.8244  -13458498.62646 -10308913.17661
  20276657.020    -2422843.094 6  -1887931.35222
  20047544.4414  -19914505.31147 -15517754.86663
  22282188.606    -6448000.247 6  -4990878.54321
 91  5  7 20 47 14.9960000  0  5G18G 6G19G 2G11
  22761172.121    12044104.359 5   9384965.57021
  21434280.793   -13502451.333 6 -10343161.97521
  20277982.113    -2415893.882 6  -1882516.40522
  20041871.5204  -19944316.58347 -15540984.39063
  22285371.879    -6431281.781 6  -4977851.19321
 91  5  7 20 47 29.9960000  0  5G18G 6G19G 2G11
  22769129.1914   12085904.17145   9417536.59261
  21425917.1764  -13546397.22746 -10377405.46161
  20279314.379    -2408882.221 6  -1877052.79422
  20036212.1764  -19974060.20547 -15564161.19963
  22288578.1764   -6414439.82746  -4964727.62061
 91  5  7 20 47 44.9960000  0  5G18G 6G19G 2G11
  22777086.3634   12127727.21945   9450125.71261
  21417558.488   -13590336.668 6 -10411643.91621
  20280664.332    -2401808.643 6  -1871540.93622
  20030563.8484  -20003736.89147 -15587285.85163
  22291807.7704   -6397475.17746  -4951508.43061
 91  5  7 20 47 59.9960000  0  5G18G 6G19G 2G11
  22785048.9654   12169570.80345   9482730.85661
  21409197.793   -13634272.031 6 -10445879.19321
  20282018.559    -2394675.307 6  -1865982.51522
  20024929.4184  -20033349.04947 -15610360.22063
  22295059.629    -6380390.432 6  -4938195.66921
 91  5  7 20 48 14.9960000  0  5G18G 6G19G 2G11
  22793017.8794   12211440.76545   9515356.51861
  21400838.4344  -13678196.93146 -10480106.32461
  20283390.996    -2387476.205 6  -1860372.84422
  20019307.3874  -20062890.49047 -15633379.48663
  22298333.4494   -6363179.67646  -4924784.71661
 91  5  7 20 48 29.9960000  0  5G18G 6G19G 2G11
  22800990.027    12253329.857 5   9547997.13521
  21392480.2154  -13722118.42746 -10514330.79661
  20284769.371    -2380218.167 6  -1854717.25622
  20013698.8324  -20092368.26547 -15656349.14163
  22301629.5594   -6345850.29646  -4911281.31461
 91  5  7 20 48 44.9960000  0  5G18G 6G19G 2G11
  22808963.441    12295233.322 5   9580648.93121
  21384120.8954  -13766041.01546 -10548556.11461
  20286163.973    -2372905.622 6  -1849019.18622
  20008099.9184  -20121787.01447 -15679272.80463
  22304949.004    -6328407.097 6  -4897689.23621
 91  5  7 20 48 59.9960000  0  5G18G 6G19G 2G11
  22816940.7314   12337157.25445   9613316.65061
  21375764.9104  -13809958.08046 -10582777.13661
  20287563.941    -2365532.169 6  -1843273.66322
  20002514.5744  -20151140.25247 -15702145.41863
  22308291.027    -6310843.778 6  -4884003.55721
 91  5  7 20 49 14.9960000  0  5G18G 6G19G 2G11
  22824927.113    12379104.942 5   9646002.90021
  21367408.8164  -13853865.84546 -10616990.91761
  20288982.137    -2358094.029 6  -1837477.72922
  19996941.902   -20180424.347 7 -15724964.15123
  22311657.996    -6293157.040 6  -4870221.70921
 91  5  7 20 49 29.9960000  0  5G18G 6G19G 2G11
  22832912.106    12421081.297 5   9678711.51521
  21359056.9104  -13897758.94146 -10651193.26361
  20290411.160    -2350585.918 6  -1831627.27822
  19991383.184   -20209634.048 7 -15747724.91723
  22315044.160    -6275341.808 6  -4856339.74021
 91  5  7 20 49 44.9960000  0  5G18G 6G19G 2G11
  22840902.4104   12463071.70945   9711431.04461
  21350703.0664  -13941651.91746 -10685395.50761
  20291850.441    -2343022.422 6  -1825733.66722
  19985835.488   -20238784.063 7 -15770439.17323
  22318458.3484   -6257412.94946  -4842369.22261
 91  5  7 20 49 59.9960000  0  5G18G 6G19G 2G11
  22848896.9964   12505087.64645   9744170.46761
  21342353.7464  -13985532.52246 -10719588.12361
  20293299.809    -2335391.414 6  -1819787.44822
  19980304.059   -20267862.299 8 -15793097.49423
  22321894.559    -6239358.638 6  -4828300.95621
 91  5  7 20 50 14.9960000  0  5G18G 6G19G 2G11
  22856899.418    12547128.183 5   9776929.06321
  21334004.0204  -14029401.48646 -10753771.66361
  20294765.715    -2327693.533 6  -1813789.12822
  19974782.6064  -20296869.67048 -15815700.60363
  22325352.590    -6221180.008 6  -4814135.80021
 91  5  7 20 50 29.9960000  0  5G18G 6G19G 2G11
  22864900.5044   12589192.04845   9809705.85961
  21325659.8244  -14073259.75946 -10787946.87361
  20296241.387    -2319929.706 6  -1807739.41222
  19969276.1134  -20325807.07148 -15838249.18963
  22328835.145    -6202878.314 6  -4799874.76821
 91  5  7 20 50 44.9960000  0  5G18G 6G19G 2G11
  22872913.1994   12631283.74345   9842504.30761
  21317317.6524  -14117102.20546 -10822109.74561
  20297735.809    -2312095.067 6  -1801634.52622
  19963783.9574  -20354669.70448 -15860739.51763
  22332342.574    -6184448.892 6  -4785514.19721
 91  5  7 20 50 59.9960000  0  5G18G 6G19G 2G11
  22880924.1064   12673396.96245   9875319.58161
  21308975.8714  -14160935.25546 -10856265.30461
  20299237.160    -2304195.956 7  -1795479.40222
  19958304.4024  -20383464.11548 -15883176.68563
  22335875.918    -6165898.481 6  -4771059.35121
 91  5  7 20 51 14.9960000  0  5G18G 6G19G 2G11
  22888947.770    12715529.519 5   9908149.84521
  21300635.6294  -14204760.63546 -10890414.88561
  20300754.270    -2296234.224 6  -1789275.47222
  19952837.4264  -20412192.06147 -15905562.05763
  22339428.160    -6147229.141 6  -4756511.83421
 91  5  7 20 51 29.9960000  0  5G18G 6G19G 2G11
  22896967.223    12757692.204 5   9941003.65121
  21292297.863   -14248567.035 6 -10924549.66821
  20302283.231    -2288198.466 6  -1783013.87522
  19947385.4884  -20440842.31347 -15927886.88563
  22343004.895    -6128429.920 6  -4741863.10421
 91  5  7 20 51 44.9960000  0  5G18G 6G19G 2G11
  22905000.4814   12799875.99045   9973873.87361
  21283964.2234  -14292362.99646 -10958676.32461
  20303823.902    -2280097.202 6  -1776701.22622
  19941946.7384  -20469423.72847 -15950158.08063
  22346603.637    -6109509.652 6  -4727120.06321
 91  5  7 20 51 59.9960000  0  5G18G 6G19G 2G11
  22913026.8244   12842080.84045  10006760.53261
  21275632.4344  -14336148.14646 -10992794.55761
  20305378.8794   -2271930.18546  -1770337.34462
  19936520.8014  -20497936.10547 -15972375.47263
  22350225.7934   -6090468.60346  -4712282.89361
 91  5  7 20 52 14.9960000  0  5G18G 6G19G 2G11
  22921064.5434   12884304.13345  10039661.50961
  21267302.4884  -14379924.77046 -11026906.14461
  20306945.215    -2263699.734 6  -1763924.03422
  19931107.3014  -20526381.57947 -15994540.74162
  22353874.902    -6071309.231 6  -4697353.53421
 91  5  7 20 52 29.9960000  0  5G18G 6G19G 2G11
  22929103.8714   12926546.94945  10072577.75761
  21258974.7384  -14423691.31346 -11061009.88061
  20308526.8404   -2255404.60546  -1757460.32862
  19925707.8714  -20554758.84647 -16016652.85462
  22357541.270    -6052030.423 6  -4682331.09921
 91  5  7 20 52 44.9960000  0  5G18G 6G19G 2G11
  22937140.746    12968805.651 5  10105506.34521
  21250646.9884  -14467451.17546 -11095108.40861
  20310113.8324   -2247048.03046  -1750948.73662
  19920319.3094  -20583071.48547 -16038714.61463
  22361231.4574   -6032635.98546  -4667218.56061
 91  5  7 20 52 59.9960000  0  5G18G 6G19G 2G11
  22945187.660    13011076.065 5  10138444.01921
  21242319.8404  -14511208.24546 -11129204.76361
  20311713.2314   -2238633.84846  -1744392.26262
  19914943.2234  -20611323.54147 -16060729.16263
  22364944.6994   -6013130.10446  -4652019.19861
 91  5  7 20 53 14.9960000  0  5G18G 6G19G 2G11
  22953236.1684   13053366.20445  10171397.13161
  21233995.152   -14554953.917 6 -11163292.22521
  20313328.5984   -2230153.62446  -1737784.32262
  19909580.9264  -20639506.50147 -16082689.87363
  22368679.9024   -5993504.65446  -4636726.64861
 91  5  7 20 53 29.9960000  0  5G18G 6G19G 2G11
  22961282.918    13095666.919 5  10204358.46321
  21225670.0984  -14598696.90246 -11197377.61161
  20314952.1374   -2221616.18546  -1731131.79662
  19904229.0904  -20667629.29247 -16104603.70163
  22372434.684    -5973768.757 6  -4621348.04521
 91  5  7 20 53 44.9960000  0  5G18G 6G19G 2G11
  22969339.6524   13137985.56045  10237333.73561
  21217350.4574  -14642429.62046 -11231454.97961
  20316590.0514   -2213013.83746  -1724428.70362
  19898889.6914  -20695684.52347 -16126464.88163
  22376214.184    -5953915.094 6  -4605877.67421
 91  5  7 20 53 59.9960000  0  5G18G 6G19G 2G11
  22977395.606    13180322.521 5  10270323.31021
  21209028.1994  -14686151.36346 -11265523.81061
  20318241.668    -2204345.887 6  -1717674.47722
  19893564.3324  -20723671.56947 -16148272.93463
  22380012.1134   -5933943.35646  -4590315.28361
 91  5  7 20 54 14.9960000  0  5G18G 6G19G 2G11
  22985457.0664   13222676.91345  10303326.47761
  21200710.7464  -14729862.50846 -11299584.37561
  20319900.5124   -2195612.91346  -1710869.59662
  19888251.9494  -20751590.98047 -16170028.28463
  22383838.871    -5913854.307 6  -4574661.50221
 91  5  7 20 54 29.9960000  0  5G18G 6G19G 2G11
  22993514.6684   13265049.87345  10336344.10261
  21192394.7074  -14773561.55746 -11333635.51361
  20321573.848    -2186813.534 6  -1704012.96522
  19882953.4104  -20779441.34347 -16191729.83363
  22387681.5594   -5893646.79146  -4558915.39761
 91  5  7 20 54 44.9960000  0  5G18G 6G19G 2G11
  23001586.871    13307439.214 5  10369374.47221
  21184082.1524  -14817250.25646 -11367678.59161
  20323262.9264   -2177949.61046  -1697106.04262
  19877664.8244  -20807224.54447 -16213379.04063
  22391548.309    -5873323.110 6  -4543078.76921
 91  5  7 20 54 59.9960000  0  5G18G 6G19G 2G11
  23009657.613    13349838.524 5  10402412.64721
  21175768.8164  -14860934.60546 -11401718.28561
  20324957.3564   -2169027.02346  -1690153.40462
  19872389.8484  -20834946.69247 -16234980.68263
  22395437.606    -5852889.654 6  -4527156.61321
 91  5  7 20 55 14.9960000  0  5G18G 6G19G 2G11
  23017719.465    13392242.364 5  10435454.35021
  21167454.6454  -14904619.74046 -11435758.57661
  20326669.4734   -2160051.02046  -1683159.14462
  19867123.8714  -20862613.19347 -16256538.95863
  22399348.199    -5832351.907 6  -4511153.18421
 91  5  7 20 55 29.9960000  0  5G18G 6G19G 2G11
  23025794.199    13434658.949 5  10468505.94421
  21159144.3874  -14948296.95646 -11469792.70761
  20328388.2624   -2151012.89246  -1676116.47462
  19861872.1914  -20890215.31647 -16278047.06963
  22403276.2314   -5811701.49846  -4495061.97161
 91  5  7 20 55 44.9960000  0  5G18G 6G19G 2G11
  23033872.637    13477090.305 5  10501569.06921
  21150833.1604  -14991963.91246 -11503818.84761
  20330121.5594   -2141910.25646  -1669023.54462
  19856632.7624  -20917750.93147 -16299503.35863
  22407226.098    -5790936.436 6  -4478881.41521
 91  5  7 20 55 59.9960000  0  5G18G 6G19G 2G11
  23041943.2704   13519528.62445  10534637.64261
  21142524.9494  -15035628.07446 -11537842.80361
  20331861.9184   -2132750.88246  -1661886.39662
  19851403.0744  -20945227.85047 -16320913.90963
  22411200.0204   -5770064.73646  -4462617.77161
 91  5  7 20 56 14.9960000  0  5G18G 6G19G 2G11
  23050022.2704   13561978.98145  10567715.56361
  21134218.0204  -15079283.74546 -11571860.14061
  20333618.5664   -2123529.17546  -1654700.67862
  19846187.4344  -20972640.53847 -16342274.41263
  22415194.988    -5749081.114 6  -4446266.91421
 91  5  7 20 56 29.9960000  0  5G18G 6G19G 2G11
  23058104.699    13604441.414 5  10600802.91121
  21125913.9734  -15122930.55246 -11605870.57061
  20335386.9104   -2114244.70946  -1647466.06362
  19840983.1454  -20999988.61547 -16363584.56863
  22419206.5744   -5727985.51046  -4429828.79961
 91  5  7 20 56 44.9960000  0  5G18G 6G19G 2G11
  23066184.3164   13646919.03845  10633902.11061
  21117609.1134  -15166565.05246 -11639871.42461
  20337165.2464   -2104894.04246  -1640179.86262
  19835791.7384  -21027268.95247 -16384841.93763
  22423239.473    -5706774.987 6  -4413301.12621
 91  5  7 20 56 59.9960000  0  5G18G 6G19G 2G11
  23074269.316    13689410.226 5  10667011.86821
  21109307.4264  -15210188.45746 -11673863.62361
  20338955.0904   -2095478.51046  -1632843.11262
  19830612.4734  -21054482.81347 -16406047.51063
  22427301.902    -5685451.079 6  -4396685.11721
 91  5  7 20 57 14.9960000  0  5G18G 6G19G 2G11
  23082362.1454   13731906.58345  10700125.65061
  21101006.7624  -15253808.78146 -11707853.42161
  20340759.3874   -2086006.23346  -1625462.14762
  19825444.9414  -21081638.24747 -16427207.55763
  22431377.035    -5664022.241 6  -4379987.34221
 91  5  7 20 57 29.9960000  0  5G18G 6G19G 2G11
  23090448.1374   13774414.26045  10733248.29161
  21092707.2854  -15297419.65946 -11741835.86061
  20342572.4414   -2076470.77046  -1618031.94662
  19820289.3954  -21108729.09747 -16448317.27563
  22435478.574    -5642482.377 6  -4363203.04621
 91  5  7 20 57 44.9960000  0  5G18G 6G19G 2G11
  23098539.043    13816928.815 5  10766376.23121
  21084408.8794  -15341024.92846 -11775813.92961
  20344400.0744   -2066876.05346  -1610555.57862
  19815146.8714  -21135759.48548 -16469379.88463
  22439594.316    -5620835.799 6  -4346335.60121
 91  5  7 20 57 59.9960000  0  5G18G 6G19G 2G11
  23106631.3874   13859445.68045  10799506.00461
  21076111.2934  -15384628.76046 -11809790.87861
  20346234.9264   -2057226.37846  -1603036.38462
  19810013.9414  -21162733.64248 -16490398.67663
  22443733.676    -5599087.115 6  -4329388.59921
 91  5  7 20 58 14.9960000  0  5G18G 6G19G 2G11
  23114723.043    13901972.213 5  10832643.33221
  21067816.1524  -15428223.17946 -11843760.49261
  20348084.2774   -2047514.06846  -1595468.38862
  19804891.8094  -21189643.95848 -16511367.72563
  22447893.402    -5577228.999 6  -4312356.31221
 91  5  7 20 58 29.9960000  0  5G18G 6G19G 2G11
  23122814.4814   13944508.17845  10865787.98561
  21059523.8714  -15471808.34046 -11877722.88861
  20349942.8954   -2037738.95746  -1587851.45262
  19799783.5744  -21216490.39148 -16532286.98863
  22452077.2234   -5555261.63046  -4295238.90961
 91  5  7 20 58 44.9960000  0  5G18G 6G19G 2G11
  23130913.9574   13987051.29445  10898938.20661
  21051230.3014  -15515386.14746 -11911679.55561
  20351813.8954   -2027903.23446  -1580187.28662
  19794686.4884  -21243275.16748 -16553158.20963
  22456274.481    -5533187.551 6  -4278038.33621
 91  5  7 20 58 59.9960000  0  5G18G 6G19G 2G11
  23139016.340    14029610.999 5  10932101.36021
  21042940.8404  -15558946.73846 -11945622.80861
  20353702.2384   -2017997.11946  -1572468.26762
  19789603.5594  -21269988.57348 -16573973.81863
  22460496.059    -5510997.316 6  -4260747.27321
 91  5  7 20 59 14.9960000  0  5G18G 6G19G 2G11
  23147111.0274   14072176.39245  10965268.94961
  21034653.3794  -15602500.47146 -11979560.71861
  20355597.1294   -2008030.94346  -1564702.45562
  19784531.5744  -21296641.28148 -16594742.13063
  22464742.6844   -5488701.69346  -4243374.07761
 91  5  7 20 59 29.9960000  0  5G18G 6G19G 2G11
  23155210.871    14114738.564 5  10998434.01921
  21026364.293   -15646055.942 6 -12013499.97721
  20357502.1994   -1998013.47646  -1556896.67062
  19779469.2074  -21323242.00248 -16615469.93563
  22468999.441    -5466309.801 6  -4225925.87321
 91  5  7 20 59 44.9960000  0  4G 6G19G 2G11
  21018079.3404  -15689597.84746 -12047428.67161
  20359423.3634   -1987929.33646  -1549038.93362
  19774420.1064  -21349775.46048 -16636145.32563
  22473284.106    -5443806.541 6  -4208390.88521
 91  5  7 20 59 59.9960000  0  4G 6G19G 2G11
  21009794.9104  -15733130.22846 -12081349.94461
  20361351.8954   -1977782.76446  -1541132.55262
  19769383.3634  -21376245.92448 -16656771.63263
  22477588.3324   -5421196.56146  -4190772.74161
 91  5  7 21  0 14.9960000  0  4G 6G19G 2G11
  21001512.4814  -15776652.46046 -12115263.30661
  20363298.1294   -1967573.12746  -1533177.02462
  19764358.1604  -21402652.96348 -16677348.51363
  22481910.856    -5398479.575 6  -4173071.21121
 91  5  7 21  0 29.9960000  0  4G 6G19G 2G11
  20993229.1994  -15820175.53146 -12149177.32561
  20365248.6684   -1957311.53246  -1525181.01462
  19759343.1214  -21429007.73748 -16697884.67163
  22486249.246    -5375667.027 6  -4155295.21821
 91  5  7 21  0 44.9960000  0  4G 6G19G 2G11
  20984948.1294  -15863693.10146 -12183087.05761
  20367213.2314   -1946991.59346  -1517139.54062
  19754339.2314  -21455303.92548 -16718375.17463
  22490609.9264   -5352752.84946  -4137440.02861
 91  5  7 21  0 59.9960000  0  4G 6G19G 2G11
  20976667.3484  -15907209.36446 -12216995.76461
  20369184.8164   -1936617.86046  -1509056.15062
  19749345.6374  -21481546.13948 -16738823.61963
  22494988.832    -5329741.885 6  -4119509.42721
 91  5  7 21  1 14.9960000  0  4G 6G19G 2G11
  20968389.5434  -15950713.74846 -12250895.22761
  20371175.7074   -1926179.68846  -1500922.54562
  19744363.3564  -21507723.86148 -16759221.81263
  22499388.723    -5306623.886 6  -4101495.42021
 91  5  7 21  1 29.9960000  0  4G 6G19G 2G11
  20960113.7074  -15994201.59146 -12284781.79161
  20373171.2314   -1915672.44846  -1492735.12362
  19739395.1294  -21533832.57248 -16779566.22663
  22503809.8014   -5283394.65846  -4083394.73161
 91  5  7 21  1 44.9960000  0  4G 6G19G 2G11
  20951839.8094  -16037682.75646 -12318663.15761
  20375184.6994   -1905106.14946  -1484501.68261
  19734438.3244  -21559882.28348 -16799864.67363
  22508244.9814   -5260064.37646  -4065215.30061
 91  5  7 21  1 59.9950000  0  4G 6G19G 2G11
  20943569.9764  -16081149.05146 -12352532.93961
  20377205.4834   -1894476.39446  -1476218.79062
  19729493.2964  -21585866.46848 -16820112.05663
  22512708.9054   -5236629.88746  -4046954.67061
 91  5  7 21  2 14.9950000  0  4G 6G19G 2G11
  20935300.460   -16124600.110 6 -12386390.84821
  20379243.7494   -1883775.65646  -1467880.58862
  19724561.5624  -21611782.33048 -16840306.20163
  22517188.343    -5213082.253 6  -4028605.88521
 91  5  7 21  2 29.9950000  0  4G 6G19G 2G11
  20927034.1324  -16168038.81446 -12420239.12761
  20381290.3044   -1873010.53346  -1459492.21561
  19719641.7734  -21637634.11848 -16860450.41863
  22521689.6404   -5189429.25346  -4010174.98961
 91  5  7 21  2 44.9950000  0  4G 6G19G 2G11
  20918769.7804  -16211470.50546 -12454081.94461
  20383350.9764   -1862186.32646  -1451057.80462
  19714733.5304  -21663427.20448 -16880548.88863
  22526208.468    -5165676.643 6  -3991666.47921
 91  5  7 21  2 59.9950000  0  4G 6G19G 2G11
  20910504.3514  -16254896.45546 -12487920.28861
  20385420.7964   -1851304.49246  -1442578.48562
  19709836.9914  -21689163.10048 -16900602.79763
  22530751.632    -5141826.218 6  -3973081.74721
 91  5  7 21  3 14.9950000  0  4G 6G19G 2G11
  20902244.0384  -16298306.06346 -12521745.89761
  20387506.0854   -1840354.53946  -1434046.09462
  19704951.9294  -21714831.36048 -16920604.00463
  22535308.1164   -5117867.74346  -3954412.81261
 91  5  7 21  3 29.9950000  0  4G 6G19G 2G11
  20893986.6404  -16341705.19046 -12555563.34561
  20389598.4914   -1829342.42946  -1425465.26662
  19700078.9374  -21740438.35548 -16940557.46863
  22539886.343    -5093807.532 6  -3935664.59921
 91  5  7 21  3 44.9950000  0  4G 6G19G 2G11
  20885728.4524  -16385090.05146 -12589369.67461
  20391708.7184   -1818264.50946  -1416833.15362
  19695218.6014  -21765980.38248 -16960460.31063
  22544486.999    -5069642.241 6  -3916834.51121
 91  5  7 21  3 59.9950000  0  4G 6G19G 2G11
  20877476.5234  -16428460.40046 -12623164.69561
  20393831.5624   -1807120.53646  -1408149.57562
  19690370.1324  -21791457.16848 -16980312.31763
  22549103.148    -5045372.111 6  -3897922.73521
 91  5  7 21  4 14.9950000  0  4G 6G19G 2G11
  20869225.9994  -16471814.12546 -12656946.75961
  20395963.1714   -1795908.35446  -1399412.84661
  19685535.7334  -21816866.59048 -17000111.83363
  22553741.4994   -5020995.39346  -3878927.89061
 91  5  7 21  4 29.9950000  0  4G 6G19G 2G11
  20860981.366   -16515146.710 6 -12690712.36321
  20398112.3274   -1784623.66746  -1390619.62162
  19680713.1634  -21842204.60648 -17019855.70863
  22558400.5624   -4996508.12446  -3859846.90661
 91  5  7 21  4 44.9950000  0  4G 6G19G 2G11
  20852740.507   -16558458.458 6 -12724461.72321
  20400272.593    -1773266.875 6  -1381770.21322
  19675905.7734  -21867471.80448 -17039544.39963
  22563083.249    -4971911.066 6  -3840680.38021
 91  5  7 21  4 59.9950000  0  4G 6G19G 2G11
  20844501.694   -16601750.252 6 -12758195.53521
  20402448.4374   -1761839.06546  -1372865.45862
  19671110.5384  -21892669.22648 -17059178.72063
  22567785.3514   -4947205.64146  -3821429.39961
 91  5  7 21  5 14.9950000  0  4G 6G19G 2G11
  20836266.608   -16645022.102 6 -12791913.80821
  20404635.1944   -1750340.30746  -1363905.42462
  19666329.3744  -21917797.01048 -17078758.77863
  22572506.5934   -4922392.19146  -3802094.25861
 91  5  7 21  5 29.9950000  0  4G 6G19G 2G11
  20828033.819   -16688278.574 6 -12825620.09221
  20406834.8194   -1738775.08446  -1354893.59461
  19661559.8274  -21942859.91348 -17098288.28263
  22577246.3514   -4897475.65346  -3782678.78161
 91  5  7 21  5 44.9950000  0  4G 6G19G 2G11
  20819809.179   -16731504.569 6 -12859302.63421
  20409052.2264   -1727128.44146  -1345818.32362
  19656804.5934  -21967843.09948 -17117755.66763
  22582012.101    -4872441.562 6  -3763171.70421
 91  5  7 21  5 59.9950000  0  4G 6G19G 2G11
  20811588.968   -16774708.473 6 -12892967.95921
  20411281.5774   -1715408.85646  -1336686.21562
  19652064.2264  -21992754.95648 -17137167.47163
  22586795.9054   -4847298.67746  -3743579.84661
 91  5  7 21  6 14.9950000  0  4G 6G19G 2G11
  20803370.085   -16817900.223 6 -12926623.81521
  20413525.5854   -1703626.56346  -1327505.24061
  19647335.6634  -22017605.62148 -17156531.59463
  22591597.8984   -4822057.40546  -3723911.34061
 91  5  7 21  6 29.9950000  0  4G 6G19G 2G11
  20795153.210   -16861071.832 6 -12960263.97321
  20415782.1634   -1691773.74646  -1318269.30962
  19642619.5154  -22042387.26248 -17175841.93363
  22596421.7414   -4796710.23846  -3704160.30561
 91  5  7 21  6 44.9950000  0  4G 6G19G 2G11
  20786941.491   -16904224.059 6 -12993889.03121
  20418048.2734   -1679851.10446  -1308978.97561
  19637916.8664  -22067100.91448 -17195099.28963
  22601264.6404   -4771258.34646  -3684327.66261
 91  5  7 21  6 59.9950000  0  4G 6G19G 2G11
  20778732.9524  -16947366.86346 -13027506.74061
  20420326.6554   -1667868.66046  -1299642.04161
  19633224.8584  -22091756.68948 -17214311.55163
  22606125.9134   -4745712.16046  -3664421.56561
 91  5  7 21  7 14.9950000  0  4G 6G19G 2G11
  20770525.2654  -16990492.14346 -13061110.79961
  20422621.2964   -1655818.48946  -1290252.33162
  19628545.4214  -22116346.69948 -17233472.56763
  22611007.5384   -4720064.13646  -3644436.10261
 91  5  7 21  7 29.9950000  0  4G 6G19G 2G11
  20762324.733   -17033589.545 6 -13094693.13621
  20424929.8124   -1643690.23046  -1280801.77461
  19623880.5544  -22140860.76848 -17252574.40663
  22615911.7734   -4694304.27146  -3624363.49761
 91  5  7 21  7 44.9950000  0  4G 6G19G 2G11
  20754128.358   -17076660.148 6 -13128254.59121
  20427252.4134   -1631485.14446  -1271291.35161
  19619230.2494  -22165300.30248 -17271618.16663
  22620832.1944   -4668434.18946  -3604205.00361
 91  5  7 21  7 59.9950000  0  4G 6G19G 2G11
  20745935.2654  -17119712.74346 -13161802.00661
  20429587.6874   -1619212.15246  -1261728.01761
  19614591.6794  -22189674.15748 -17290610.74963
  22625772.1014   -4642463.09846  -3583967.80061
 91  5  7 21  8 14.9950000  0  4G 6G19G 2G11
  20737743.335   -17162752.654 6 -13195339.54521
  20431936.5384   -1606876.61046  -1252115.94061
  19609965.1634  -22213987.74648 -17309556.37263
  22630736.280    -4616396.719 6  -3563656.35621
 91  5  7 21  8 29.9950000  0  4G 6G19G 2G11
  20729558.898   -17205771.680 6 -13228860.80921
  20434295.2964   -1594470.67746  -1242449.01061
  19605351.6164  -22238233.24048 -17328448.93363
  22635716.577    -4590227.506 6  -3543264.77721
 91  5  7 21  8 44.9950000  0  4G 6G19G 2G11
  20721376.499   -17248768.357 6 -13262364.65522
  20436671.0464   -1581992.81946  -1232726.03861
  19600750.9764  -22262409.18748 -17347287.30363
  22640715.5304   -4563954.43846  -3522792.27061
 91  5  7 21  8 59.9950000  0  4G 6G19G 2G11
  20713199.1714  -17291745.00246 -13295852.89261
  20439060.0234   -1569445.52246  -1222948.95561
  19596162.8984  -22286518.31548 -17366073.60563
  22645733.0464   -4537580.28446  -3502240.99061
 91  5  7 21  9 14.9950000  0  4G 6G19G 2G11
  20705023.8514  -17334695.88346 -13329321.05461
  20441460.7334   -1556822.93546  -1213113.20861
  19591588.7804  -22310555.06048 -17384803.50363
  22650773.3354   -4511099.69146  -3481606.79061
 91  5  7 21  9 29.9950000  0  4G 6G19G 2G11
  20696854.8274  -17377626.29946 -13362773.26561
  20443873.2964   -1544130.68846  -1203223.17861
  19587028.6014  -22334524.89148 -17403481.26463
  22655831.585    -4484518.454 6  -3460894.15721
 91  5  7 21  9 44.9950000  0  4G 6G19G 2G11
  20688691.3354  -17420532.59146 -13396206.68161
  20446305.3124   -1531365.17146  -1193276.06261
  19582479.2024  -22358424.40148 -17422104.23063
  22660909.5774   -4457833.51746  -3440100.71761
 91  5  7 21  9 59.9950000  0  4G 6G19G 2G11
  20680528.6714  -17463420.49446 -13429625.76261
  20448746.7104   -1518532.27146  -1183276.42761
  19577943.3824  -22382259.36348 -17440676.89563
  22666005.952    -4431050.916 6  -3419231.17521
 91  5  7 21 10 14.9950000  0  4G 6G19G 2G11
  20672373.5544  -17506276.99346 -13463020.37561
  20451204.4054   -1505619.15246  -1173214.29361
  19573423.3354  -22406016.92148 -17459189.24863
  22671123.8124   -4404158.15746  -3398275.79561
 91  5  7 21 10 29.9950000  0  4G 6G19G 2G11
  20664223.2104  -17549113.58646 -13496399.47761
  20453673.4134   -1492637.41346  -1163098.68461
  19568914.6404  -22429709.00248 -17477650.58063
  22676260.116    -4377167.330 6  -3377243.99721
 91  5  7 21 10 44.9950000  0  4G 6G19G 2G11
  20656074.3744  -17591931.16246 -13529763.76061
  20456159.1404   -1479588.03046  -1152930.36961
  19564418.8434  -22453336.56448 -17496061.63763
  22681413.1714   -4350079.63346  -3356136.72161
 91  5  7 21 10 59.9950000  0  4G 6G19G 2G11
  20647931.5774  -17634724.24646 -13563108.95861
  20458653.9604   -1466465.57346  -1142705.10461
  19559934.4764  -22476894.30648 -17514418.28863
  22686589.9994   -4322890.09146  -3334950.09261
 91  5  7 21 11 14.9950000  0  4G 6G19G 2G11
  20639791.8354  -17677498.79246 -13596439.70961
  20461165.0854   -1453276.27146  -1132427.76161
  19555465.1324  -22500388.65548 -17532725.54463
  22691780.2574   -4295605.27446  -3313689.20761
 91  5  7 21 11 29.9950000  0  4G 6G19G 2G11
  20631657.6084  -17720250.42646 -13629752.61361
  20463689.4054   -1440015.88146  -1122095.02061
  19551007.0624  -22523815.32148 -17550980.05863
  22696992.483    -4268221.300 6  -3292351.07521
 91  5  7 21 11 44.9950000  0  4G 6G19G 2G11
  20623525.6324  -17762979.01647 -13663047.55561
  20466225.3584   -1426684.31346  -1111706.81661
  19546562.1634  -22547174.15748 -17569181.72063
  22702219.788    -4240738.303 6  -3270935.77121
 91  5  7 21 11 59.9950000  0  4G 6G19G 2G11
  20615397.983   -17805686.757 7 -13696326.25821
  20468773.3124   -1413283.90746  -1101264.97361
  19542129.765   -22570467.707 8 -17587332.51123
  22707469.905    -4213159.054 6  -3249445.46521
 91  5  7 21 12 14.9950000  0  4G 6G19G 2G11
  20607278.1874  -17848362.73747 -13729580.20962
  20471341.4604   -1399803.87646  -1090761.08261
  19537710.749   -22593685.153 8 -17605423.99923
  22712735.226    -4185473.212 6  -3227872.09821
 91  5  7 21 12 29.9950000  0  4G 6G19G 2G11
  20599161.3904  -17891013.53247 -13762814.53361
  20473916.7184   -1386250.95346  -1080200.39161
  19533306.3274  -22616833.40548 -17623461.57163
  22718022.632    -4157687.807 6  -3206221.16121
 91  5  7 21 12 44.9950000  0  4G 6G19G 2G11
  20591047.8354  -17933643.11647 -13796032.33461
  20476512.6084   -1372629.26846  -1069586.12661
  19528914.6794  -22639916.79748 -17641448.60263
  22723329.9444   -4129807.34946  -3184496.14161
 91  5  7 21 12 59.9950000  0  4G 6G19G 2G11
  20582941.312   -17976250.845 7 -13829233.10821
  20479114.5384   -1358938.28846  -1058917.86061
  19524532.773   -22662934.805 8 -17659384.68623
  22728652.819    -4101831.644 6  -3162696.91421
 91  5  7 21 13 14.9950000  0  4G 6G19G 2G11
  20574838.3354  -18018833.06747 -13862414.00061
  20481736.0304   -1345174.41946  -1048192.80161
  19520165.546   -22685883.828 8 -17677267.01423
  22733995.663    -4073757.451 6  -3140820.94021
 91  5  7 21 13 29.9950000  0  4G 6G19G 2G11
  20566739.718   -18061387.988 7 -13895573.62422
  20484368.3434   -1331335.98646  -1037409.63061
  19515812.4914  -22708762.40248 -17695094.44763
  22739358.187    -4045583.514 6  -3118867.25121
 91  5  7 21 13 44.9950000  0  4G 6G19G 2G11
  20558645.398   -18103920.484 7 -13928715.77321
  20487017.7414   -1317428.06946  -1026572.32761
  19511472.0304  -22731575.57348 -17712870.91863
  22744737.233    -4017315.201 6  -3096840.00221
 91  5  7 21 13 59.9950000  0  4G 6G19G 2G11
  20550557.7184  -18146423.99747 -13961835.33462
  20489676.8664   -1303444.18946  -1015675.82661
  19507143.233   -22754316.908 8 -17730591.41323
  22750136.983    -3988946.519 6  -3074734.55421
 91  5  7 21 14 14.9950000  0  4G 6G19G 2G11
  20542475.7184  -18188900.65447 -13994933.97862
  20492352.9294   -1289386.54046  -1004721.84961
  19502829.358   -22776988.897 8 -17748257.87223
  22755551.3744   -3960480.03146  -3052552.89961
 91  5  7 21 14 29.9950000  0  4G 6G19G 2G11
  20534397.507   -18231352.495 7 -14028013.27922
  20495039.2414   -1275257.48346   -993712.22461
  19498527.913   -22799593.788 8 -17765872.04823
  22760987.2804   -3931918.37546  -3030297.09861
 91  5  7 21 14 44.9950000  0  4G 6G19G 2G11
  20526321.835   -18273786.104 7 -14061078.37522
  20497741.6874   -1261063.65646   -982652.12861
  19494237.6324  -22822138.27848 -17783439.15763
  22766438.8434   -3903268.46346  -3007972.48161
 91  5  7 21 14 59.9950000  0  4G 6G19G 2G11
  20518249.358   -18316199.693 7 -14094127.87222
  20500453.8044   -1246803.67146   -971540.48261
  19489958.4524  -22844620.88048 -17800958.03863
  22771908.054    -3874529.111 6  -2985578.21721
 91  5  7 21 15 14.9950000  0  4G 6G19G 2G11
  20510182.476   -18358592.515 7 -14127161.18922
  20503181.6324   -1232476.54846   -960376.52361
  19485691.9994  -22867041.01348 -17818428.24863
  22777394.132    -3845699.952 6  -2963113.96721
 91  5  7 21 15 29.9950000  0  4G 6G19G 2G11
  20502119.655   -18400964.160 7 -14160178.00522
  20505920.4214   -1218082.17046   -949160.15561
  19481438.3434  -22889398.53548 -17835849.66463
  22782897.0934   -3816781.22346  -2940579.90061
 91  5  7 21 15 44.9950000  0  4G 6G19G 2G11
  20494061.233   -18443314.100 7 -14193177.90422
  20508673.3044   -1203620.15646   -937891.08361
  19477195.1014  -22911693.18548 -17853222.09263
  22788416.929    -3787772.781 6  -2917975.95221
 91  5  7 21 15 59.9950000  0  4G 6G19G 2G11
  20486005.124   -18485643.315 7 -14226161.66022
  20511435.1164   -1189091.63446   -926570.18661
  19472964.616   -22933926.059 8 -17870546.38523
  22793953.663    -3758676.168 6  -2895303.27021
 91  5  7 21 16 14.9950000  0  4G 6G19G 2G11
  20477956.390   -18527944.774 7 -14259123.78322
  20514217.1714   -1174489.76946   -915192.14461
  19468747.4684  -22956090.37448 -17887817.25463
  22799510.6014   -3729484.91546  -2872556.87861
 91  5  7 21 16 29.9950000  0  4G 6G19G 2G11
  20469910.944   -18570224.458 6 -14292068.93722
  20517010.3584   -1159820.57246   -903761.63461
  19464541.944   -22978192.357 8 -17905039.54923
  22805082.1084   -3700205.49646  -2849741.76261
 91  5  7 21 16 44.9950000  0  4G 6G19G 2G11
  20461869.757   -18612476.536 7 -14324992.58422
  20519815.5774   -1145078.38646   -892274.24561
  19460348.4604  -23000226.18648 -17922208.73863
  22810671.9684   -3670832.42346  -2826853.66161
 91  5  7 21 16 59.9950000  0  4G 6G19G 2G11
  20453835.733   -18654697.560 7 -14357892.03322
  20522634.2414   -1130259.99246   -880727.47961
  19456169.3044  -23022188.87348 -17939322.49563
  22816280.9054   -3641363.00646  -2803890.49861
 91  5  7 21 17 14.9950000  0  4G 6G19G 2G11
  20445803.538   -18696903.241 6 -14390779.52422
  20525464.0624   -1115381.12546   -869133.59161
  19452001.1944  -23044096.34248 -17956393.22163
  22821902.140    -3611813.279 6  -2780864.75521
 91  5  7 21 17 29.9950000  0  4G 6G19G 2G11
  20437778.421   -18739079.055 7 -14423643.74222
  20528311.5154   -1100427.64246   -857481.55661
  19447844.2654  -23065934.22748 -17973409.72663
  22827541.7334   -3582169.26546  -2757765.51161
 91  5  7 21 17 44.9950000  0  4G 6G19G 2G11
  20429757.608   -18781232.489 7 -14456490.53022
  20531169.3354   -1085407.06046   -845777.23761
  19443700.7964  -23087710.33648 -17990378.09363
  22833199.5304   -3552438.98446  -2734599.09161
 91  5  7 21 17 59.9950000  0  4G 6G19G 2G11
  20421740.640   -18823358.785 6 -14489316.16222
  20534039.9294   -1070314.60546   -834016.91561
  19439569.0774  -23109419.99548 -18007294.68363
  22838875.046    -3522618.151 6  -2711362.12721
 91  5  7 21 18 14.9950000  0  4G 6G19G 2G11
  20413726.226   -18865464.727 6 -14522125.93322
  20536925.515    -1055157.390 6   -822206.13521
  19435450.5854  -23131070.29848 -18024165.02163
  22844565.2334   -3492714.24646  -2688060.37861
 91  5  7 21 18 29.9950000  0  4G 6G19G 2G11
  20405717.429   -18907555.284 7 -14554923.71722
  20539820.4524   -1039940.41346   -810348.78261
  19431340.4914  -23152666.55548 -18040993.24663
  22850269.4444   -3462732.59646  -2664698.04761
 91  5  7 21 18 44.9950000  0  4G 6G19G 2G11
  20397712.319   -18949623.038 7 -14587703.73422
  20542730.1404   -1024656.47146   -798439.25361
  19427241.648   -23174201.349 8 -18057773.57723
  22855992.9684   -3432666.32046  -2641269.82561
 91  5  7 21 18 59.9950000  0  4G 6G19G 2G11
  20389710.171   -18991669.323 6 -14620467.01922
  20545654.1014   -1009307.26046   -786478.85961
  19423155.4444  -23195676.14948 -18074507.16163
  22861731.827    -3402517.112 6  -2617776.94321
 91  5  7 21 19 14.9950000  0  4G 6G19G 2G11
  20381714.405   -19033689.875 7 -14653210.25822
  20548584.9374    -993888.64446   -774464.39361
  19419080.8584  -23217087.09148 -18091190.98163
  22867484.1634   -3372281.32646  -2594216.58761
 91  5  7 21 19 29.9950000  0  4G 6G19G 2G11
  20373722.210   -19075689.230 7 -14685936.97522
  20551530.1404    -978405.12446   -762399.34061
  19415018.4684  -23238438.92948 -18107828.75163
  22873252.2734   -3341963.99745  -2570592.72561
 91  5  7 21 19 44.9950000  0  4G 6G19G 2G11
  20365735.366   -19117663.854 7 -14718644.42222
  20554492.2654    -962853.37046   -750281.13161
  19410967.062   -23259728.298 8 -18124417.84223
  22879035.7734   -3311562.12745  -2546902.96061
 91  5  7 21 19 59.9950000  0  4G 6G19G 2G11
  20357753.226   -19159614.397 7 -14751333.10922
  20557461.9604    -947234.23546   -738110.41061
  19406927.4994  -23280956.16148 -18140959.00563
  22884836.5694   -3281076.93545  -2523148.25861
 91  5  7 21 20 14.9950000  0  4G 6G19G 2G11
  20349773.413   -19201543.049 7 -14784004.73222
  20560448.4134    -931550.07746   -725889.02461
  19402898.3194  -23302125.01548 -18157454.19063
  22890657.6164   -3250511.11746  -2499330.80161
 91  5  7 21 20 29.9950000  0  4G 6G19G 2G11
  20341800.007   -19243449.573 7 -14816659.11522
  20563443.8664    -915800.90746   -713616.97661
  19398882.6014  -23323234.66348 -18173903.23963
  22896486.882    -3219865.006 6  -2475450.70421
 91  5  7 21 20 44.9950000  0  4G 6G19G 2G11
  20333830.694   -19285327.620 7 -14849291.30722
  20566455.2804    -899980.41546   -701289.35761
  19394877.8514  -23344279.01148 -18190301.40263
  22902336.3984   -3189132.56946  -2451503.36861
 91  5  7 21 20 59.9950000  0  4G 6G19G 2G11
  20325865.538   -19327179.913 7 -14881903.43222
  20569476.2414    -884091.66646   -688908.55761
  19390884.655   -23365261.223 8 -18206651.15523
  22908198.515    -3158317.305 5  -2427491.46721
 91  5  7 21 21 14.9950000  0  4G 6G19G 2G11
  20317906.983   -19369009.206 7 -14914497.63522
  20572514.0234    -868137.36746   -676476.66961
  19386903.062   -23386184.110 8 -18222954.67623
  22914076.890    -3127422.417 5  -2403417.52421
 91  5  7 21 21 29.9950000  0  4G 6G19G 2G11
  20309949.304   -19410817.350 7 -14947075.35822
  20575564.9214    -852119.60546   -663995.34361
  19382932.7734  -23407049.72548 -18239213.56863
  22919971.2264   -3096450.31346  -2379283.44461
 91  5  7 21 21 44.9950000  0  4G 6G19G 2G11
  20301999.890   -19452596.878 7 -14979630.78122
  20578624.0774    -836031.08346   -651458.86561
  19378973.944   -23427850.943 8 -18255422.28223
  22925883.608    -3065393.984 6  -2355083.72821
 91  5  7 21 21 59.9950000  0  4G 6G19G 2G11
  20294055.280   -19494348.335 7 -15012164.33622
  20581696.608     -819872.475 6   -638867.78421
  19375027.8194  -23448588.70748 -18271581.55363
  22931804.898    -3034254.640 5  -2330819.25321
 91  5  7 21 22 14.9950000  0  4G 6G19G 2G11
  20286112.679   -19536081.947 7 -15044683.98722
  20584785.4684    -803654.25446   -626230.24461
  19371091.9914  -23469273.31848 -18287699.40663
  22937745.148    -3003042.849 5  -2306498.42921
 91  5  7 21 22 29.9950000  0  4G 6G19G 2G11
  20278176.030   -19577792.567 7 -15077185.71022
  20587884.116     -787371.358 6   -613542.32121
  19367166.1484  -23489899.77948 -18303771.94563
  22943699.2574   -2971753.98346  -2282117.49061
 91  5  7 21 22 44.9950000  0  4G 6G19G 2G11
  20270244.437   -19619472.910 7 -15109663.84822
  20590996.3824    -771016.69046   -600798.46061
  19363253.194   -23510461.150 8 -18319793.76523
  22949672.4994   -2940381.40245  -2257671.34761
 91  5  7 21 22 59.9950000  0  3G 6G19G11
  20262316.351   -19661125.761 7 -15142120.56622
  20594119.452     -754593.287 6   -588001.05321
  22955654.8434   -2908928.39946  -2233162.52761
 91  5  7 21 23 14.9950000  0  4G 6G19G 2G11
  20254397.366   -19702751.117 7 -15174555.85922
  20597260.116     -738101.348 6   -575150.23121
  19355463.6324         -0.84158
  22961657.2654   -2877395.43845  -2208591.40561
 91  5  7 21 23 29.9950000  0  4G 6G19G 2G11
  20246481.960   -19744344.199 7 -15206965.99722
  20600410.585     -721536.239 6   -562242.39721
  19351587.1324     -20371.90348
  22967675.233    -2845778.381 6  -2183954.72721
 91  5  7 21 23 44.9950000  0  4G 6G19G 2G11
  20238574.163   -19785907.597 7 -15239353.01222
  20603576.491     -704900.711 6   -549279.69421
  19347722.898      -40679.462 8        -0.00633
  22973705.202    -2814080.266 5  -2159254.92121
 91  5  7 21 23 59.9950000  0  4G 6G19G 2G11
  20230667.366   -19827447.742 7 -15271721.90322
  20606755.249     -688201.266 6   -536267.18221
  19343869.210      -60930.031 8    -15779.64523
  22979748.1324   -2782307.94845  -2134497.24561
 91  5  7 21 24 14.9950000  0  4G 6G19G 2G11
  20222768.460   -19868959.021 7 -15304068.30522
  20609946.843     -671432.661 6   -523200.78821
  19340026.733      -81118.355 8    -31510.78523
  22985814.4294   -2750456.57045  -2109678.00961
 91  5  7 21 24 29.9950000  0  4G 6G19G 2G11
  20214873.733   -19910441.316 7 -15336392.11822
  20613147.4054    -654594.91146   -510080.50361
  19336197.679     -101244.524 8    -47193.48823
  22991890.0854   -2718526.28346  -2084797.34561
 91  5  7 21 24 44.9950000  0  4G 6G19G 2G11
  20206984.968   -19951901.365 7 -15368698.59622
  20616366.218     -637694.732 6   -496911.58521
  19332377.413     -121315.486 8    -62833.17223
  22997979.4914   -2686524.48145  -2059860.79261
 91  5  7 21 24 59.9950000  0  3G 6G19G 2
  20199099.632   -19993336.831 7 -15400985.92122
  20619592.6164    -620730.30946   -483692.59761
  19328569.687     -141329.177 8    -78428.23423
 91  5  7 21 25 14.9950000  0  3G 6G19G 2
  20191221.296   -20034744.917 7 -15433251.90922
  20622835.796     -603698.779 6   -470421.32621
  19324772.257     -161282.936 8    -93976.59323
 91  5  7 21 25 29.9950000  0  3G 6G19G 2
  20183344.483   -20076135.922 7 -15465504.58822
  20626086.679     -586610.767 6   -457106.04321
  19320984.491     -181187.570 8   -109486.67023
 91  5  7 21 25 44.9950000  0  3G 6G19G 2
  20175472.757   -20117501.623 7 -15497737.54622
  20629352.499     -569458.191 6   -443740.44821
  19317207.593     -201034.956 8   -124952.14023
 91  5  7 21 25 59.9950000  0  3G 6G19G 2
  20167605.194   -20158845.598 7 -15529953.58122
  20632625.687     -552244.917 6   -430327.55721
  19313441.921     -220828.910 8   -140375.98123
 91  5  7 21 26 14.9950000  0  3G 6G19G 2
  20159743.390   -20200162.128 7 -15562148.22422
  20635915.608     -534965.436 6   -416863.07521
  19309684.905     -240564.074 8   -155754.00723
 91  5  7 21 26 29.9950000  0  3G 6G19G 2
  20151884.999   -20241451.237 7 -15594321.50322
  20639214.233     -517619.915 6   -403347.13521
  19305941.257     -260240.698 8   -171086.42323
 91  5  7 21 26 44.9950000  0  3G 6G19G 2
  20144035.249   -20282708.403 7 -15626469.88722
  20642529.655     -500204.055 6   -389776.39021
  19302209.585     -279854.368 8   -186369.77823
 91  5  7 21 26 59.9950000  0  3G 6G19G 2
  20136188.241   -20323938.260 7 -15658596.99822
  20645855.382     -482722.521 6   -376154.46221
  19298487.827     -299409.933 8   -201607.86023
 91  5  7 21 27 14.9950000  0  3G 6G19G 2
  20128346.554   -20365146.587 7 -15690707.32722
  20649194.858     -465181.345 6   -362486.06121
  19294776.460     -318913.427 8   -216805.36423
 91  5  7 21 27 29.9950000  0  3G 6G19G 2
  20120509.804   -20406328.504 7 -15722797.08322
  20652544.718     -447575.845 6   -348767.54421
  19291076.327     -338360.283 8   -231958.73823
 91  5  7 21 27 44.9950000  0  3G 6G19G 2
  20112678.624   -20447479.254 7 -15754862.54722
  20655907.437     -429901.412 6   -334995.31021
  19287386.851     -357746.039 8   -247064.49823
 91  5  7 21 27 59.9950000  0  3G 6G19G 2
  20104854.523   -20488598.959 7 -15786903.82322
  20659284.694     -412158.612 6   -321169.79721
  19283709.476     -377071.174 8   -262123.02223
 91  5  7 21 28 14.9950000  0  3G 6G19G 2
  20097036.171   -20529684.318 7 -15818918.33622
  20662676.460     -394344.324 6   -307288.58221
  19280043.976     -396332.460 8   -277131.79523
 91  5  7 21 28 29.9950000  0  3G 6G19G 2
  20089223.187   -20570740.455 7 -15850910.08122
  20666076.944     -376463.650 6   -293355.64121
  19276389.741     -415535.224 8   -292094.96523
 91  5  7 21 28 44.9950000  0  3G 6G19G 2
  20081416.202   -20611766.483 7 -15882878.36222
  20669493.804     -358515.956 6   -279370.46721
  19272746.773     -434678.774 8   -307011.99623
 91  5  7 21 28 59.9950000  0  4G15G 6G19G 2
  22691119.5624         -0.72155
  20073614.429   -20652760.912 7 -15914822.02122
  20672923.327     -340499.965 6   -265332.08421
  19269115.773     -453761.942 8   -321881.97523
 91  5  7 21 29 14.9950000  0  4G15G 6G19G 2
  22683385.515      -40659.967 5
  20065818.952   -20693726.302 7 -15946743.05822
  20676364.491     -322418.583 6   -251242.74221
  19265494.788     -472787.737 8   -336707.24823
 91  5  7 21 29 29.9950000  0  4G15G 6G19G 2
  22675657.3194     -81239.36345
  20058029.937   -20734660.285 7 -15978639.61922
  20679816.585     -304269.295 6   -237100.48221
  19261885.382     -491753.955 8   -351486.09923
 91  5  7 21 29 44.9950000  0  4G15G 6G19G 2
  22667953.3194    -121743.14545        -0.23971
  20050245.483   -20775567.169 7 -16010515.06522
  20683281.648     -286056.752 6   -222908.93621
  19258287.202     -510665.138 8   -366222.06523
 91  5  7 21 29 59.9950000  0  4G15G 6G19G 2
  22660262.843     -162170.791 5    -31502.16121
  20042466.687   -20816446.427 7 -16042368.98222
  20686761.757     -267780.747 6   -208667.94421
  19254699.351     -529521.049 8   -380914.96023
 91  5  7 21 30 14.9950000  0  4G15G 6G19G 2
  22652583.6324    -202513.63645    -62938.06161
  20034695.710   -20857289.717 7 -16074194.87222
  20690251.577     -249433.221 6   -194371.21921
  19251122.523     -548313.479 8   -395558.39623
 91  5  7 21 30 29.9950000  0  4G15G 6G19G 2
  22644919.046     -242772.353 5    -94308.40721
  20026928.937   -20898097.826 7 -16105993.35022
  20693753.507     -231015.143 6   -180019.51121
  19247558.405     -567043.505 8   -410153.19923
 91  5  7 21 30 44.9950000  0  4G15G 6G19G 2
  22637271.366     -282947.334 5   -125613.49021
  20019169.679   -20938871.318 7 -16137764.85222
  20697273.765     -212527.275 6   -165613.43121
  19244006.476     -585712.092 8   -424700.12823
 91  5  7 21 30 59.9950000  0  4G15G 6G19G 2
  22629649.2414    -323036.23245   -156851.45961
  20011417.788   -20979607.988 7 -16169507.66522
  20700806.155     -193967.591 6   -151151.38721
  19240465.366     -604317.221 8   -439197.61123
 91  5  7 21 31 14.9940000  0  4G15G 6G19G 2
  22622037.291     -363037.824 5   -188021.44721
  20003673.025   -21020306.605 7 -16201220.82322
  20704351.377     -175339.074 6   -136635.70821
  19236936.940     -622859.473 8   -453646.09923
 91  5  7 21 31 29.9940000  0  4G15G 6G19G 2
  22614445.807     -402952.915 5   -219123.96921
  19995935.221   -21060968.429 7 -16232905.31322
  20707914.744     -156635.196 6   -122061.30321
  19233421.010     -641337.439 8   -468044.49423
 91  5  7 21 31 44.9940000  0  4G15G 6G19G 2
  22606865.2524    -442775.88245   -250154.76561
  19988206.705   -21101588.074 7 -16264556.93522
  20711482.666     -137854.611 6   -107427.12521
  19229917.315     -659747.208 8   -482389.74823
 91  5  7 21 31 59.9940000  0  4G15G 6G19G 2
  22599306.2994    -482507.31845   -281114.20761
  19980482.815   -21142165.879 7 -16296175.95722
  20715069.799     -118997.969 6    -92733.68821
  19226427.893     -678089.497 8   -496682.42123
 91  5  7 21 32 14.9940000  0  4G15G 6G19G 2
  22591756.6044    -522154.07045   -312007.73461
  19972770.275   -21182708.917 7 -16327767.88722
  20718672.947     -100072.599 6    -77986.68821
  19222948.033     -696371.623 8   -510928.21123
 91  5  7 21 32 29.9940000  0  4G15G 6G19G 2
  22584234.4004    -561715.95045   -342835.01561
  19965060.244   -21223217.347 7 -16359332.85122
  20722287.971      -81078.866 6    -63186.42721
  19219481.150     -714594.076 8   -525127.50323
 91  5  7 21 32 44.9940000  0  4G15G 6G19G 2
  22576722.065     -601187.227 5   -373591.75621
  19957359.729   -21263685.630 7 -16390866.53522
  20725917.932      -62011.600 6    -48328.86421
  19216024.932     -732751.511 8   -539276.13323
 91  5  7 21 32 59.9940000  0  4G15G 6G19G 2
  22569228.4944    -640569.78045   -404279.32561
  19949665.822   -21304115.631 7 -16422370.38022
  20729561.213      -42872.784 6    -33415.54421
  19212582.361     -750846.041 8   -553375.74423
 91  5  7 21 33 14.9940000  0  4G15G 6G19G 2
  22561750.7604    -679858.58945   -434893.90961
  19941981.072   -21344502.423 7 -16453840.55522
  20733216.580      -23657.709 6    -18442.81421
  19209151.088     -768873.248 8   -567422.89323
 91  5  7 21 33 29.9940000  0  4G15G 6G19G 2
  22554290.361     -719066.246 5   -465445.25121
  19934299.744   -21384858.843 7 -16485287.08322
  20736883.611       -4379.461 6     -3420.84621
  19205731.588     -786845.870 8   -581427.50923
 91  5  7 21 33 44.9940000  0  4G15G 6G19G 2
  22546844.9164    -758183.90945   -495926.43061
  19926628.916   -21425176.132 7 -16516703.10322
  20740565.877       14970.617 6     11657.08421
  19202323.190     -804755.613 8   -595383.12723
 91  5  7 21 33 59.9940000  0  4G15G 6G19G 2
  22539412.7684    -797199.69645   -526328.23661
  19918966.0804  -21465442.74347 -16548079.64562
  20744264.002       34403.667 6     26799.67621
  19198929.049     -822590.977 8   -609280.79023
 91  5  7 21 34 14.9940000  0  4G15G 6G19G 2
  22532008.3854    -836121.07345   -556656.49761
  19911312.596   -21505666.084 7 -16579422.46322
  20747975.682       53912.057 6     42000.97121
  19195548.783     -840359.846 8   -623126.64023
 91  5  7 21 34 29.9940000  0  4G15G 6G19G 2
  22524624.182     -874950.483 5   -586913.06421
  19903667.893   -21545848.957 7 -16610733.74422
  20751702.775       73492.788 6     57258.63621
  19192178.690     -858065.403 8   -636923.15623
 91  5  7 21 34 44.9940000  0  4G15G 6G19G 2
  22517250.299     -913691.678 5   -617100.90421
  19896026.518   -21585995.233 7 -16642016.51222
  20755441.768       93141.963 6     72569.63021
  19188820.783     -875711.693 8   -650673.48523
 91  5  7 21 34 59.9940000  0  4G15G 6G19G 2
  22509898.5104    -952345.19245   -647220.42461
  19888394.322   -21626105.481 7 -16673271.20322
  20759190.346      112858.646 6     87933.23421
  19185473.713     -893299.438 8   -664378.19623
 91  5  7 21 35 14.9940000  0  4G15G 6G19G 2
  22502560.6744    -990904.68445   -677266.65861
  19880767.947   -21666173.670 7 -16704493.12522
  20762960.283      132648.534 6    103353.87121
  19182138.986     -910822.759 8   -678032.71223
 91  5  7 21 35 29.9940000  0  4G15G 6G19G 2
  22495240.1114   -1029369.01845   -707238.77761
  19873151.588   -21706198.432 7 -16735681.20222
  20766739.705      152512.767 6    118832.44521
  19178817.580     -928280.668 8   -691636.25323
 91  5  7 21 35 44.9940000  0  4G15G 6G19G 2
  22487938.1584   -1067748.84745   -737144.99161
  19865541.338   -21746190.622 7 -16766843.90622
  20770533.619      172440.297 6    134360.34321
  19175505.002     -945684.343 8   -705197.53723
 91  5  7 21 35 59.9940000  0  4G15G 6G19G 2
  22480651.2054   -1106034.28545   -766977.74561
  19857940.002   -21786140.833 7 -16797973.88622
  20774336.150      192440.270 6    149944.68821
  19172204.877     -963024.518 8   -718709.34123
 91  5  7 21 36 14.9940000  0  4G15G 6G19G 2
  22473379.8934   -1144230.14745   -796740.65261
  19850344.658   -21826053.821 7 -16829074.87522
  20778157.643      212507.805 6    165581.67621
  19168916.830     -980306.418 8   -732175.73323
 91  5  7 21 36 29.9940000  0  4G15G 6G19G 2
  22466131.049    -1182335.495 5   -826433.04421
  19842757.143   -21865928.568 7 -16860146.05922
  20781988.369      232643.807 6    181272.02421
  19165639.275     -997529.301 8   -745596.13923
 91  5  7 21 36 44.9940000  0  4G15G 6G19G 2
  22458895.1974   -1220343.83945   -856049.82261
  19835177.682   -21905758.588 7 -16891182.39522
  20785835.854      252854.389 6    197020.47921
  19162374.002    -1014686.953 8   -758965.72023
 91  5  7 21 36 59.9940000  0  4G15G 6G19G 2
  22451686.5964   -1258256.84045   -885592.31761
  19827604.893   -21945546.223 7 -16922185.70122
  20789692.729      273137.127 6    212825.15621
  19159122.322    -1031781.733 8   -772286.30723
 91  5  7 21 37 14.9940000  0  5G15G13G 6G19G 2
  22444485.440    -1296080.929 5   -915065.52221
  22433583.7604         -0.66354
  19820040.635   -21985297.725 7 -16953160.85222
  20793566.643      293485.094 6    228680.67021
  19155879.752    -1048820.550 8   -785563.28623
 91  5  7 21 37 29.9940000  0  5G15G13G 6G19G 2
  22437302.2054   -1333819.22845   -944471.88561
  22419631.1744     -73314.60344
  19812482.494   -22025016.589 7 -16984110.56622
  20797448.611      313894.846 6    244584.31621
  19152646.455    -1065806.899 8   -798799.38423
 91  5  7 21 37 44.9940000  0  5G15G13G 6G19G 2
  22430140.369    -1371469.466 5   -973809.62821
  22405687.6194    -146604.18744
  19804930.065   -22064700.326 7 -17015032.91322
  20801345.885      334368.629 6    260537.86721
  19149425.244    -1082738.775 8   -811993.03323
 91  5  7 21 37 59.9940000  0  5G15G13G 6G19G 2
  22422994.9244   -1409026.40345  -1003074.67461
  22391743.4714    -219864.20144
  19797386.479   -22104343.917 7 -17045923.97522
  20805254.760      354911.258 6    276545.05821
  19146213.408    -1099611.320 8   -825140.45023
 91  5  7 21 38 14.9940000  0  5G15G13G 6G19G 2
  22415865.830    -1446480.876 5  -1032259.88221
  22377808.205     -293085.746 4
  19789851.604   -22143938.503 7 -17076776.85822
  20809180.6824     375531.28546    292612.55861
  19143016.283    -1116415.802 8   -838234.83423
 91  5  7 21 38 29.9940000  0  5G15G13G 6G19G 2
  22408751.057    -1483841.469 5  -1061371.95321
  22363878.525     -366277.353 4
  19782324.275   -22183492.754 7 -17107598.30522
  20813114.127      396219.645 6    308733.30321
  19139829.096    -1133161.258 8   -851283.22623
 91  5  7 21 38 44.9940000  0  5G15G13G 6G19G 2
  22401659.643    -1521098.266 5  -1090403.11221
  22349960.447     -439428.668 4
  19774808.447   -22222996.862 7 -17138380.68022
  20817067.1744     416986.11146    324914.90961
  19136655.744    -1149838.255 8   -864278.27423
 91  5  7 21 38 59.9940000  0  5G15G13G 6G19G 2
  22394592.3464   -1558261.11845  -1119361.06561
  22336049.072     -512549.677 4
  19767298.572   -22262460.659 7 -17169131.64622
  20821031.604      437820.371 6    341149.34121
  19133493.299    -1166456.886 8   -877227.83523
 91  5  7 21 39 14.9940000  0  5G15G13G 6G19G 2
  22387541.213    -1595321.356 5  -1148239.06221
  22322141.721     -585631.756 4
  19759798.385   -22301875.699 7 -17199844.62022
  20825012.377      458730.756 6    357443.09521
  19130343.510    -1183008.896 8   -890125.49023
 91  5  7 21 39 29.9940000  0  5G15G13G 6G19G 2
  22380504.8774   -1632282.17345  -1177039.59461
  22308237.9794    -658678.04444
  19752305.361   -22341245.363 7 -17230522.23522
  20829004.7294     479713.59846    373793.29961
  19127206.174    -1199497.867 8   -902974.02223
 91  5  7 21 39 44.9940000  0  5G15G13G 6G19G 2
  22373488.7754   -1669148.65045  -1205766.61961
  22294344.0024    -731693.68843
  19744821.096   -22380574.764 7 -17261168.47822
  20833009.190      500763.705 6    390195.93121
  19124079.510    -1215929.319 8   -915777.73723
 91  5  7 21 39 59.9940000  0  5G15G13G 6G19G 2
  22366487.6354   -1705920.64545  -1234420.00461
  22280452.588     -804678.442 4        -0.44331
  19737344.861   -22419863.921 7 -17291783.36322
  20837027.2914     521880.59946    406650.59061
  19120964.4554   -1232303.65748   -928536.94563
 91  5  7 21 40 14.9940000  0  5G15G13G 6G19G 2
  22359516.197    -1742600.408 5  -1263001.54021
  22266570.080     -877634.443 4    -56848.91421
  19729875.7134  -22459115.23947 -17322368.75862
  20841058.947      543061.759 6    423155.33721
  19117857.486    -1248623.297 8   -941253.53423
 91  5  7 21 40 29.9940000  0  5G15G13G 6G19G 2
  22352553.861    -1779175.009 5  -1291501.10721
  22252696.330     -950548.623 4   -113664.79421
  19722416.033   -22498315.814 7 -17352914.61922
  20845101.2444     564319.59446    439719.82861
  19114765.268    -1264875.827 8   -953917.82723
 91  5  7 21 40 44.9940000  0  5G15G13G 6G19G 2
  22345608.1194   -1815656.02345  -1319927.76461
  22238822.994    -1023432.662 4   -170457.22421
  19714964.244   -22537477.419 7 -17383430.11222
  20849162.221      585642.138 6    456334.73921
  19111682.596    -1281073.089 8   -966539.05423
 91  5  7 21 40 59.9940000  0  5G15G13G 6G19G 2
  22338688.6664   -1852038.77345  -1348277.85561
  22224962.8154   -1096281.87044   -227222.49761
  19707520.236   -22576595.497 7 -17413911.68922
  20853230.5884     607033.77246    473003.48461
  19108611.236    -1297210.943 8   -979113.99323
 91  5  7 21 41 14.9940000  0  5G15G13G 6G19G 2
  22331781.791    -1888322.072 5  -1376550.44221
  22211107.1044   -1169094.79944   -283959.49261
  19700084.143   -22615668.922 7 -17444358.46722
  20857316.674      628495.526 6    489726.87621
  19105552.502    -1313288.415 8   -991641.87723
 91  5  7 21 41 29.9940000  0  5G15G13G 6G19G 2
  22324891.7524   -1924505.48745  -1404745.23161
  22197256.643    -1241871.011 4   -340667.88321
  19692657.190   -22654697.192 7 -17474770.06622
  20861415.5884     650027.56446    506505.03561
  19102503.619    -1329305.431 8  -1004122.65423
 91  5  7 21 41 44.9940000  0  5G15G13G 6G19G 2
  22318031.354    -1960592.213 5  -1432864.62021
  22183414.5574   -1314613.67544
  19685238.932   -22693683.838 7 -17505149.22422
  20865525.799      671626.100 6    523334.99921
  19099466.963    -1345265.623 8  -1016559.15123
 91  5  7 21 41 59.9940000  0  5G15G13G 6G19G 2
  22311180.119    -1996580.748 5  -1460907.56621
  22169579.9944   -1387321.51144
  19677828.338   -22732627.513 7 -17535494.90222
  20869647.213      693292.130 6    540217.57221
  19096440.549    -1361167.934 8  -1028950.54723
 91  5  7 21 42 14.9940000  0  5G15G13G 6G19G 2
  22304342.3154   -2032473.92445  -1488876.16061
  22155748.010    -1459996.845 4
  19670426.424   -22771530.912 7 -17565809.19822
  20873784.1434     715022.67346    557150.39961
  19093425.440    -1377015.546 8  -1041299.31923
 91  5  7 21 42 29.9940000  0  5G15G13G 6G19G 2
  22297539.010    -2068265.274 5  -1516765.43421
  22141927.596    -1532632.752 5
  19663031.4004  -22810387.54947 -17596087.05862
  20877934.3934     736823.94946    574138.34461
  19090421.432    -1392802.196 8  -1053600.58923
 91  5  7 21 42 44.9940000  0  5G15G13G 6G19G 2
  22290747.010    -2103959.609 5  -1544579.08321
  22128109.7054   -1605234.37145        -0.39371
  19655644.2994  -22849202.40847 -17626332.36662
  20882092.5414     758690.76546    591177.35961
  19087428.010    -1408533.237 8  -1065858.52423
 91  5  7 21 42 59.9940000  0  5G15G13G 6G19G 2
  22283971.400    -2139553.912 5  -1572314.82921
  22114304.4794   -1677798.84145    -56543.77261
  19648266.049   -22887972.713 7 -17656542.95122
  20886266.7834     780625.62846    608269.40761
  19084445.877    -1424206.058 8  -1078071.09823
 91  5  7 21 43 14.9940000  0  5G15G13G 6G19G 2
  22277223.7754   -2175049.30545  -1599973.45761
  22100500.229    -1750327.153 5   -113058.99021
  19640897.9474  -22926699.69947 -17686719.78162
  20890455.2294     802627.06646    625413.31961
  19081473.994    -1439822.114 8  -1090239.43723
 91  5  7 21 43 29.9940000  0  5G15G13G 6G19G 2
  22270488.166    -2210441.358 5  -1627551.59121
  22086704.5574   -1822814.82544   -169542.51061
  19633536.7134  -22965378.96847 -17716859.43663
  20894653.8224     824699.16346    642612.29761
  19078513.440    -1455377.317 8  -1102360.35723
 91  5  7 21 43 44.9940000  0  5G15G13G 6G19G 2
  22263765.3074   -2245727.35545  -1655047.07961
  22072921.1354   -1895259.26444   -225992.39961
  19626186.4244  -23004008.12947 -17746960.04262
  20898867.7294     846844.09146    659868.02561
  19075566.252    -1470869.414 8  -1114432.10423
 91  5  7 21 43 59.9940000  0  5G15G13G 6G19G 2
  22257069.557    -2280917.158 5  -1682467.59021
  22059139.2364   -1967669.92445   -282415.90961
  19618843.2134  -23042596.92547 -17777029.19262
  20903096.6114     869051.88046    677172.73061
  19072627.525    -1486308.639 8  -1126462.64923
 91  5  7 21 44 14.9940000  0  5G15G13G 6G19G 2
  22250396.525    -2316013.029 5  -1709814.91121
  22045367.2604   -2040048.97444
  19611507.690   -23081147.573 7 -17807068.61722
  20907332.1584     891319.91746    694524.38961
  19069699.346    -1501697.334 8  -1138453.82023
 91  5  7 21 44 29.9940000  0  5G15G13G 6G19G 2
  22243738.6904   -2351004.91745  -1737081.22461
  22031601.3934   -2112386.75844
  19604179.9794  -23119650.53647 -17837070.88862
  20911580.2604     913657.46846    711930.20461
  19066781.924    -1517026.339 8  -1150398.48423
 91  5  7 21 44 44.9940000  0  5G15G13G 6G19G 2
  22237095.9944   -2385893.11545  -1764266.73961
  22017844.0024   -2184683.57444
  19596862.5574  -23158106.15847 -17867036.26763
  20915847.3074     936063.91646    729389.70861
  19063876.518    -1532296.407 8  -1162297.21823
 91  5  7 21 44 59.9940000  0  5G15G13G 6G19G 2
  22230476.0494   -2420682.67345  -1791375.38361
  22004092.4324   -2256943.92344
  19589552.0884  -23196519.31747 -17896968.56362
  20920120.3304     958534.30346    746899.04861
  19060980.088    -1547512.660 8  -1174154.01823
 91  5  7 21 45 14.9940000  0  5G15G13G 6G19G 2
  22223879.4634   -2455375.08045  -1818408.34861
  21990350.4244   -2329169.23044
  19582249.4004  -23234891.56347 -17926868.97962
  20924411.4474     981066.72346    764456.69961
  19058095.525    -1562676.795 8  -1185970.21223
 91  5  7 21 45 29.9940000  0  5G15G13G 6G19G 2
  22217289.6354   -2489962.14145  -1845359.19761
  21976611.9714   -2401351.36644
  19574956.8224  -23273214.84747 -17956731.23862
  20928711.5104    1003668.86745    782068.69761
  19055220.908    -1577781.107 8  -1197739.79023
 91  5  7 21 45 44.9940000  0  5G15G13G 6G19G 2
  22210729.455    -2524443.430 5  -1872227.67121
  21962886.8464   -2473490.13844        -0.10771
  19567673.9864  -23311489.01347 -17986555.22762
  20933026.3304    1026340.60846    799734.91861
  19052358.393    -1592825.864 8  -1209462.96023
 91  5  7 21 45 59.9940000  0  5G15G13G 6G19G 2
  22204186.7444   -2558824.00145  -1899017.63861
  21949163.658    -2545590.209 4    -56181.60521
  19560398.0654  -23349719.08247 -18016344.85562
  20937351.385     1049076.673 6    817451.26121
  19049505.690    -1607816.211 8  -1221143.73323
 91  5  7 21 46 14.9940000  0  5G15G13G 6G19G 2
  22197664.9474   -2593095.91745  -1925722.93161
  21935448.213    -2617643.572 4   -112326.78321
  19553133.0334  -23387897.06247 -18046093.89362
  20941693.2994    1071884.79945    835223.75361
  19046664.604    -1622744.462 8  -1232776.12023
 91  5  7 21 46 29.9940000  0  5G15G13G 6G19G 2
  22191165.1194   -2627264.83645  -1952347.98061
  21921749.611    -2689655.744 5   -168439.83021
  19545877.2834  -23426028.65447 -18075806.78362
  20946047.182     1094759.088 5    853047.80021
  19043834.400    -1637616.590 8  -1244364.77423
 91  5  7 21 46 44.9940000  0  5G15G13G 6G19G 2
  22184681.822    -2661328.812 5  -1978891.25921
  21908051.986    -2761625.010 4   -224519.44321
  19538630.2134  -23464112.09847 -18105482.15462
  20950409.275     1117700.859 5    870924.42621
  19041015.119    -1652431.155 8  -1255908.57423
 91  5  7 21 46 59.9940000  0  5G15G13G 6G19G 2
  22178214.377    -2695291.516 5  -2005355.63221
  21894367.0574   -2833554.58644   -280568.14061
  19531393.0654  -23502151.16247 -18135122.94562
  20954786.3614    1140706.17446    888850.57461
  19038206.143    -1667192.295 8  -1267410.74623
 91  5  7 21 47 14.9940000  0  5G15G13G 6G19G 2
  22171773.6824   -2729146.62545  -2031736.15561
  21880687.5884   -2905438.09545   -336580.93961
  19524162.5654  -23540139.52047 -18164724.22062
  20959178.260     1163781.077 5    906830.94221
  19035408.908    -1681893.827 8  -1278866.47123
 91  5  7 21 47 29.9940000  0  5G15G13G 6G19G 2
  22165356.3074   -2762894.91545  -2058033.44161
  21867015.330    -2977276.457 4   -392558.55721
  19516943.1824  -23578078.15747 -18194286.75662
  20963586.127     1186924.250 6    924864.50421
  19032621.736    -1696536.941 8  -1290276.67423
 91  5  7 21 47 44.9940000  0  5G15G13G 6G19G 2
  22158948.611    -2796529.186 5  -2084241.87321
  21853355.447    -3049062.077 5   -448495.08221
  19509734.971   -23615959.638 7 -18223804.75422
  20968002.494     1210142.787 5    942956.79621
  19029848.408    -1711114.570 8  -1301635.85123
 91  5  7 21 47 59.9940000  0  5G15G13G 6G19G 2
  22152567.9864   -2830058.50245  -2110368.52961
  21839700.3854   -3120804.58244   -504398.04461
  19502535.6584  -23653793.68947 -18253285.79162
  20972433.885     1233426.647 6    961099.98821
  19027084.963    -1725636.822 8  -1312951.87623
 91  5  7 21 48 14.9940000  0  5G15G13G 6G19G 2
  22146214.393    -2863483.072 5  -2136413.57321
  21826059.158    -3192503.949 5   -560267.37821
  19495344.2754  -23691580.33347 -18282729.88862
  20976877.7134    1256775.59945    979293.89361
  19024331.940    -1740103.955 8  -1324224.95123
 91  5  7 21 48 29.9940000  0  5G15G13G 6G19G 2
  22139868.846    -2896800.943 5  -2162375.44721
  21812421.8854   -3264157.70845   -616101.16861
  19488162.7134  -23729317.36047 -18312135.32562
  20981332.018     1280191.457 6    997539.93421
  19021589.572    -1754514.044 8  -1335453.57723
 91  5  7 21 48 44.9940000  0  5G15G13G 6G19G 2
  22133560.049    -2930013.182 6  -2188255.02421
  21798796.6274   -3335767.14445   -671900.40061
  19480992.4324  -23767006.20147 -18341503.21162
  20985802.150     1303672.600 5   1015836.85021
  19018858.182    -1768868.763 8  -1346639.05723
 91  5  7 21 48 59.9940000  0  5G15G13G 6G19G 2
  22127257.635    -2963114.656 6  -2214048.30221
  21785177.174    -3407327.177 5   -727661.17821
  19473829.2364  -23804641.78747 -18370829.60462
  20990283.5654    1327223.89845   1034188.42161
  19016138.080    -1783163.677 8  -1357777.93223
 91  5  7 21 49 14.9940000  0  5G15G13G 6G19G 2
  22120980.6904   -2996111.04246  -2239759.66461
  21771566.080    -3478843.098 5
  19466677.4714  -23842229.74747 -18400118.88462
  20994777.244     1350839.423 5   1052590.05321
  19013428.158    -1797404.378 8  -1368874.56723
 91  5  7 21 49 29.9940000  0  5G15G13G 6G19G 2
  22114723.5574   -3028999.57146  -2265387.01361
  21757966.658    -3550312.079 5
  19459533.2834  -23879767.37247 -18429368.94062
  20999281.440     1374521.605 6   1071043.61921
  19010728.721    -1811588.452 8  -1379927.07423
 91  5  7 21 49 44.9940000  0  5G15G13G 6G19G 2
  22108480.1744   -3061786.94846  -2290935.52161
  21744377.096    -3621740.541 5
  19452397.8694  -23917261.26947 -18458584.92662
  21003799.8614    1398263.51345   1089543.71561
  19008039.572    -1825722.837 8  -1390940.85923
 91  5  7 21 49 59.9940000  0  5G15G13G 6G19G 2
  22102262.643    -3094467.551 6  -2316400.85521
  21730791.588    -3693123.062 5
  19445272.9084  -23954706.22647 -18487762.77463
  21008332.494     1422070.065 6   1108094.19121
  19005360.377    -1839802.566 8  -1401912.05923
 91  5  7 21 50 14.9940000  0  5G15G13G 6G19G 2
  22096061.440    -3127034.200 5  -2341777.36721
  21717215.049    -3764452.470 5
  19438157.9244  -23992095.03247 -18516896.86962
  21012875.322     1445948.014 5   1126700.31121
  19002692.057    -1853820.696 8  -1412835.25423
 91  5  7 21 50 29.9940000  0  5G15G13G 6G19G 2
  22089889.752    -3159495.734 6  -2367071.97121
  21703652.2604   -3835737.23045
  19431053.8154  -24029436.38147 -18545993.98362
  21017429.8074    1469888.51746   1145355.15961
  19000034.065    -1867786.207 8  -1423717.45223
 91  5  7 21 50 44.9940000  0  5G15G13G 6G19G 2
  22083730.9474   -3191845.45145  -2392279.45261
  21690097.854    -3906970.659 5        -0.26131
  19423956.8074  -24066723.78247 -18575049.06262
  21022001.3614    1493897.78145   1164063.59261
  18997387.971    -1881692.924 8  -1434553.83423
 91  5  7 21 50 59.9940000  0  5G15G13G 6G19G 2
  22077593.7444   -3224087.82345  -2417403.29461
  21676550.338    -3978157.343 5    -55470.07021
  19416870.549   -24103961.638 7 -18604065.53222
  21026578.8854    1517970.84046   1182821.73161
  18994752.072    -1895545.635 8  -1445348.13323
 91  5  7 21 51 14.9940000  0  5G15G13G 6G19G 2
  22071477.721    -3256223.203 5  -2442443.73621
  21663015.502    -4049297.510 5   -110903.70321
  19409794.221   -24141150.610 7 -18633043.90823
  21031173.565     1542106.993 5   1201629.05221
  18992126.963    -1909345.211 8  -1456101.02623
 91  5  7 21 51 29.9940000  0  5G15G13G 6G19G 2
  22065379.283    -3288262.724 5  -2467409.50621
  21649481.4164   -4120402.18145   -166309.63661
  19402724.4474  -24178301.86047 -18661992.89362
  21035775.2834    1566294.83146   1220476.62061
  18989508.361    -1923103.156 8  -1466821.48223
 91  5  7 21 51 44.9940000  0  5G15G13G 6G19G 2
  22059301.424    -3320192.919 5  -2492290.07221
  21635960.924    -4191458.021 5   -221677.52221
  19395664.354   -24215401.987 7 -18690902.04522
  21040393.0494    1590547.36145   1239374.61761
  18986900.299    -1936806.411 8  -1477499.31823
 91  5  7 21 51 59.9940000  0  5G15G13G 6G19G 2
  22053250.877    -3352011.137 5  -2517083.39121
  21622450.361    -4262461.770 5   -277004.84821
  19388615.4474  -24252448.10347 -18719769.10662
  21045018.955     1614867.170 6   1258325.03021
  18984303.799    -1950452.134 8  -1488132.32823
 91  5  7 21 52 14.9940000  0  5G15G13G 6G19G 2
  22047217.8934   -3383728.50846  -2541798.11961
  21608941.565    -4333424.653 5   -332300.29321
  19381572.2364  -24289451.42747 -18748602.82662
  21049659.158     1639242.744 5   1277318.89821
  18981715.955    -1964052.065 8  -1498729.65423
 91  5  7 21 52 29.9940000  0  5G15G13G 6G19G 2
  22041194.893    -3415337.916 5  -2566428.74321
  21595449.9084   -4404339.48645   -387558.37061
  19374540.5654  -24326404.91947 -18777397.71562
  21054308.2444    1663680.84646   1296361.48561
  18979138.322    -1977599.638 8  -1509286.17823
 91  5  7 21 52 44.9940000  0  5G15G13G 6G19G 2
  22035202.7914   -3446842.80045  -2590977.93561
  21581963.596    -4475209.850 5   -442781.73621
  19367517.6504  -24363312.31647 -18806156.68863
  21058969.150     1688177.268 5   1315449.52621
  18976569.104    -1991098.750 8  -1519804.94323
 91  5  7 21 52 59.9940000  0  5G15G13G 6G19G 2
  22029225.791    -3478240.843 5  -2615443.83521
  21568487.0964   -4546033.37145   -497968.60761
  19360504.2604  -24400171.39547 -18834878.00362
  21063644.182     1712734.050 5   1334584.59921
  18974009.760    -2004547.344 8  -1530284.34223
 91  5  7 21 53 14.9940000  0  5G15G13G 6G19G 2
  22023274.174    -3509533.198 5  -2639827.40021
  21555017.111    -4616811.061 5   -553119.76921
  19353499.2754  -24436983.26847 -18863562.54562
  21068328.8934    1737349.65345   1353765.49761
  18971459.588    -2017946.915 8  -1540725.54023
 91  5  7 21 53 29.9940000  0  5G15G13G 6G19G 2
  22017339.369    -3540719.236 5  -2664128.12521
  21541556.424    -4687542.028 5   -608234.52121
  19346502.2054  -24473747.30347 -18892209.80462
  21073022.565     1762024.719 6   1372992.74521
  18968919.604    -2031297.024 8  -1551128.19623
 91  5  7 21 53 44.9940000  0  5G15G13G 6G19G 2
  22011424.3074   -3571799.12445  -2688346.11861
  21528108.268    -4758226.113 5   -663312.75221
  19339516.0494  -24510463.39447 -18920819.70363
  21077729.588     1786758.832 5   1392266.00221
  18966388.307    -2044597.977 8  -1561492.55123
 91  5  7 21 53 59.9940000  0  5G15G13G 6G19G 2
  22005535.4164   -3602773.01645  -2712481.53861
  21514664.2214   -4828863.34745   -718354.48561
  19332537.7364  -24547131.83047 -18949392.47163
  21082449.408     1811551.458 5   1411584.84321
  18963866.635    -2057850.407 8  -1571819.09723
 91  5  7 21 54 14.9940000  0  5G15G13G 6G19G 2
  21999651.330    -3633642.484 5  -2736535.58821
  21501230.6664   -4899455.43445   -773361.04161
  19325569.8854  -24583754.43447 -18977929.52363
  21087178.385     1836400.593 5   1430947.73121
  18961353.768    -2071056.274 8  -1582109.36223
 91  5  7 21 54 29.9940000  0  5G15G13G 6G19G 2
  21993798.8074   -3664404.65245  -2760506.01361
  21487804.3694   -4969999.15145   -828329.90161
  19318609.3304  -24620328.09947 -19006428.44863
  21091917.9084    1861308.89145   1450356.71761
  18958849.361    -2084212.569 8  -1592360.99523
 91  5  7 21 54 44.9940000  0  5G15G13G 6G19G 2
  21987968.135    -3695059.693 5  -2784392.99621
  21474391.674    -5040494.898 5   -883261.41421
  19311658.9554  -24656853.27247 -19034889.58063
  21096667.315     1886275.414 5   1469811.06721
  18956355.690    -2097320.234 8  -1602574.73323
 91  5  7 21 54 59.9940000  0  5G15G13G 6G19G 2
  21982160.2054   -3725612.96546  -2808200.63961
  21460983.2754   -5110948.03245   -938159.67961
  19304715.5104  -24693335.40547 -19063317.18063
  21101432.604     1911294.614 5   1489306.47121
  18953868.979    -2110385.014 8  -1612755.06423
 91  5  7 21 55 14.9940000  0  5G15G13G 6G19G 2
  21976360.854    -3756058.624 5  -2831924.45821
  21447586.7524   -5181352.32345   -993019.92461
  19297782.8854  -24729768.51347 -19091706.57863
  21106203.479     1936372.097 5   1508847.28721
  18951392.494    -2123401.403 8  -1622897.68723
 91  5  7 21 55 29.9940000  0  5G15G13G 6G19G 2
  21970583.893    -3786399.753 5  -2855566.81421
  21434199.002    -5251710.966 5  -1047844.57621
  19290858.7994  -24766155.76547 -19120060.23763
  21110982.697     1961504.460 5   1528430.87121
  18948924.299    -2136372.630 8  -1633005.11323
 91  5  7 21 55 44.9940000  0  5G15G13G 6G19G 2
  21964827.940    -3816634.439 5  -2879126.21421
  21420818.2364   -5322021.77045  -1102631.96561
  19283942.729   -24802495.157 7 -19148376.60523
  21115777.627     1986693.255 5   1548058.41721
  18946464.666    -2149297.148 8  -1643076.14723
 91  5  7 21 55 59.9940000  0  5G15G13G 6G19G 2
  21959103.830    -3846761.374 5  -2902601.67421
  21407446.049    -5392283.310 5  -1157380.98621
  19277037.2834  -24838785.45547 -19176654.71863
  21120580.0024    2011939.32745   1567730.61561
  18944014.236    -2162174.067 8  -1653110.08823
 91  5  7 21 56 14.9940000  0  5G15G13G 6G19G 2
  21953389.4634   -3876775.42345  -2925989.16161
  21394087.6824   -5462490.51045  -1212087.63261
  19270142.143   -24875021.737 7 -19204890.73823
  21125396.666     2037247.456 5   1587451.15821
  18941574.080    -2174998.559 8  -1663103.18123
 91  5  7 21 56 29.9940000  0  5G15G13G 6G19G 2
  21947702.8544   -3906679.68745  -2949291.12261
  21380736.3384   -5532646.04545  -1266754.03961
  19263256.541   -24911206.894 7 -19233086.92123
  21130225.807     2062614.324 5   1607217.46821
  18939142.557    -2187773.975 8  -1673058.03223
 91  5  7 21 56 44.9940000  0  5G15G13G 6G19G 2
  21942031.010    -3936470.819 5  -2972504.88321
  21367397.3694   -5602746.70645  -1321377.69461
  19256380.463   -24947337.585 7 -19261240.66423
  21135061.471     2088043.164 5   1627032.06821
  18936721.213    -2200497.195 8  -1682972.21323
 91  5  7 21 56 59.9940000  0  5G15G13G 6G19G 2
  21936370.721    -3966154.023 5  -2995634.59521
  21354067.557    -5672797.629 5  -1375962.53421
  19249515.424   -24983419.124 7 -19289356.10623
  21139910.455     2113528.073 5   1646890.36221
  18934308.955    -2213173.867 8  -1692850.12123
 91  5  7 21 57 14.9940000  0  5G15G13G 6G19G 2
  21930746.596    -3995723.852 5  -3018675.92721
  21340746.2994   -5742793.30645  -1430504.38561
  19242659.236   -25019446.191 7 -19317429.09623
  21144773.908     2139074.130 5   1666796.31021
  18931906.502    -2225798.904 8  -1702687.79423
 91  5  7 21 57 29.9940000  0  5G15G13G 6G19G 2
  21925147.807    -4025186.304 5  -3041633.63921
  21327437.3694   -5812739.62245  -1485007.77061
  19235812.572   -25055424.746 7 -19345464.29323
  21149645.424     2164675.042 5   1686744.99121
  18929513.502    -2238378.667 8  -1712490.19223
 91  5  7 21 57 44.9940000  0  5G15G13G 6G19G 2
  21919563.0494   -4054533.29545  -3064501.33761
  21314137.6194   -5882628.16745  -1539466.10861
  19228977.377   -25091346.674 7 -19373455.36623
  21154528.229     2190338.702 5   1706742.57321
  18927129.479    -2250905.124 8  -1722251.05023
 91  5  7 21 57 59.9940000  0  5G15G13G 6G19G 2
  21913996.182    -4083762.640 5  -3087277.38921
  21300849.033    -5952456.725 5  -1593877.71221
  19222151.9084  -25127209.73347 -19401400.56563
  21159428.025     2216066.999 5   1726790.51621
  18924754.877    -2263376.602 8  -1731969.07323
 91  5  7 21 58 14.9940000  0  5G15G13G 6G19G 2
  21908450.4794   -4112878.47345  -3109964.98361
  21287569.3774   -6022229.38045  -1648245.74361
  19215338.236   -25163018.141 7 -19429303.17523
  21164335.2834    2241855.24745   1746885.18061
  18922391.869    -2275797.478 8  -1741647.66123
 91  5  7 21 58 29.9940000  0  5G15G13G 6G19G 2
  21902942.963    -4141887.361 5  -3132569.25621
  21274302.1904   -6091952.84545  -1702575.45361
  19208533.057   -25198778.638 7 -19457168.45623
  21169248.635     2267696.536 5   1767021.18021
  18920036.838    -2288174.615 8  -1751292.16823
 91  5  7 21 58 44.9940000  0  5G15G13G 6G19G 2
  21897441.6354   -4170783.30645  -3155085.50661
  21261047.7134   -6161620.68045  -1756861.81261
  19201738.190   -25234484.896 7 -19484991.47323
  21174179.174     2293596.761 5   1787203.08721
  18917691.650    -2300502.121 8  -1760898.00623
 91  5  7 21 58 59.9940000  0  5G15G13G 6G19G 2
  21891966.9324   -4199563.67246  -3177511.68461
  21247799.119    -6231230.228 5  -1811102.76521
  19194953.9004  -25270134.51447 -19512770.35563
  21179122.135     2319558.033 5   1807432.57521
  18915354.518    -2312778.055 8  -1770463.65323
 91  5  7 21 59 14.9940000  0  5G15G13G 6G19G 2
  21886513.447    -4228233.530 6  -3199851.75621
  21234561.5024   -6300786.45445  -1865302.17761
  19188181.3154  -25305732.74447 -19540509.19663
  21184068.252     2345574.805 5   1827705.30621
  18913027.5024   -2325007.74848  -1779993.27363
 91  5  7 21 59 29.9940000  0  5G15G13G 6G19G 2
  21881068.3934   -4256796.83745  -3222108.85761
  21221335.158    -6370293.038 5  -1919462.86721
  19181415.5494  -25341283.10647 -19568210.73763
  21189031.3074    2371643.25245   1848018.29561
  18910707.791    -2337195.195 8  -1789489.97323
 91  5  7 21 59 44.9940000  0  5G15G13G 6G19G 2
  21875650.0804   -4285244.90745  -3244276.09761
  21208120.658    -6439741.279 5  -1973578.12821
  19174660.1274  -25376777.19847 -19595868.43263
  21194002.8614    2397771.46745   1868377.86061
  18908398.1044   -2349332.13648  -1798947.31763
 91  5  7 21 59 59.9940000  0  5G15G13G 6G19G 2
  21870273.854    -4313577.283 6  -3266353.19521
  21194917.432    -6509130.758 5  -2027647.58821
  19167917.4794  -25412214.63247 -19623481.98163
  21198985.330     2423959.385 5   1888783.94721
  18906099.0254   -2361418.60948  -1808365.33663
 91  5  7 22  0 14.9940000  0  5G15G13G 6G19G 2
  21864896.4244   -4341797.79145  -3288343.14761
  21181721.346    -6578465.149 5  -2081674.12121
  19161184.1194  -25447599.25847 -19651054.37863
  21203980.447     2450202.868 5   1909233.33421
  18903808.096    -2373458.688 8  -1817747.20223
 91  5  7 22  0 29.9940000  0  5G15G13G 6G19G 2
  21859549.166    -4369911.715 5  -3310250.03921
  21168538.205    -6647749.453 5  -2135661.61521
  19154460.2994  -25482936.13847 -19678589.57163
  21208984.1114    2476496.63545   1929721.90261
  18901524.4324   -2385457.85948  -1827097.19563
 91  5  7 22  0 44.9940000  0  5G15G13G 6G19G 2
  21854224.010    -4397912.095 6  -3332068.44721
  21155362.0024   -6716976.63545  -2189604.62561
  19147746.6434  -25518218.35647 -19706082.17563
  21213998.9004    2502847.16645   1950254.69161
  18899249.9084   -2397409.29948  -1836409.99663
 91  5  7 22  0 59.9930000  0  5G15G13G 6G19G 2
  21848913.653    -4425801.194 5  -3353800.15421
  21142201.646    -6786146.088 5  -2243502.64021
  19141041.1854  -25553447.59547 -19733533.49063
  21219022.107     2529248.331 5   1970826.94121
  18896984.5364   -2409316.85048  -1845688.59763
 91  5  7 22  1 14.9930000  0  5G15G13G 6G19G 2
  21843623.950    -4453578.184 5  -3375444.52321
  21129050.255    -6855262.377 5  -2297359.23321
  19134347.0214  -25588624.29947 -19760943.87863
  21224057.521     2555707.666 5   1991444.52321
  18894726.3884   -2421177.79348  -1854930.88063
 91  5  7 22  1 29.9930000  0  5G15G13G 6G19G 2
  21838360.138    -4481241.891 5  -3397000.58621
  21115906.8414   -6924321.58446  -2351171.33961
  19127664.2084  -25623746.76147 -19788311.99563
  21229103.4194    2582222.30745   2012105.18461
  18892477.7714   -2432992.44548  -1864137.09363
 91  5  7 22  1 44.9930000  0  5G15G13G 6G19G 2
  21833120.0834   -4508797.18545  -3418472.15961
  21102774.7004   -6993328.12445  -2404942.42961
  19120989.7474  -25658819.55847 -19815641.41563
  21234158.9824    2608787.28345   2032805.07761
  18890238.2944   -2444765.59348  -1873310.96463
 91  5  7 22  1 59.9930000  0  5G15G13G 6G19G 2
  21827899.9974   -4536240.55446  -3439856.55161
  21089653.310    -7062278.457 6  -2458669.69321
  19114325.3254  -25693839.09647 -19842929.33263
  21239222.0134    2635405.98645   2053546.83661
  18888006.3724   -2456493.83148  -1882449.84463
 91  5  7 22  2 14.9930000  0  5G15G13G 6G19G 2
  21822699.2004   -4563569.85145  -3461152.03061
  21076543.9424   -7131170.45046  -2512351.50861
  19107671.8334  -25728803.57147 -19870174.34563
  21244298.583     2662079.856 5   2074331.58221
  18885783.7944   -2468175.83648  -1891552.69663
 91  5  7 22  2 29.9930000  0  5G15G13G 6G19G 2
  21817518.169    -4590772.431 5  -3482348.79721
  21063445.677    -7199991.369 5  -2565977.92021
  19101031.4504  -25763700.04947 -19897366.37363
  21249389.0674    2688821.39445   2095169.04461
  18883571.8644   -2479798.97448  -1900609.67763
 91  5  7 22  2 44.9930000  0  5G15G13G 6G19G 2
  21812361.0914   -4617861.14745  -3503456.83861
  21050360.6694   -7268753.74846  -2619558.74561
  19094402.1774  -25798541.31347 -19924515.38363
  21254489.919     2715617.487 5   2116049.01721
  18881369.2944   -2491376.29248  -1909630.95563
 91  5  7 22  2 59.9930000  0  5G15G13G 6G19G 2
  21807228.3254   -4644833.39045  -3524474.10061
  21037289.138    -7337454.818 6  -2673091.78421
  19087782.7324  -25833324.90047 -19951619.44663
  21259599.0524    2742470.38245   2136973.25861
  18879173.7784   -2502905.64248  -1918614.85663
 91  5  7 22  3 14.9930000  0  5G15G13G 6G19G 2
  21802118.607    -4671691.808 5  -3545402.68621
  21024224.4664   -7406097.20846  -2726579.10361
  19081174.1074  -25868053.34647 -19978680.54263
  21264718.9974    2769377.05145   2157939.40461
  18876988.8494   -2514390.07148  -1927563.75163
 91  5  7 22  3 29.9930000  0  5G15G13G 6G19G 2
  21797038.6924   -4698429.88146  -3566237.47161
  21011175.802    -7474674.692 6  -2780015.83521
  19074577.2394  -25902720.40547 -20005693.80863
  21269851.474     2796343.537 5   2178952.14521
  18874813.2474   -2525823.41648  -1936472.84363
 91  5  7 22  3 44.9930000  0  5G15G13G 6G19G 2
  21791964.403    -4725055.910 5  -3586984.98321
  20998134.989    -7543195.234 6  -2833408.21221
  19067990.4424  -25937334.34647 -20032665.67963
  21274992.044     2823361.134 5   2200004.70721
  18872645.5214   -2537214.19948  -1945348.76763
 91  5  7 22  3 59.9930000  0  5G15G13G 6G19G 2
  21786929.5754   -4751566.94746  -3607642.84761
  20985107.8334   -7611655.59446  -2886753.67161
  19061413.9584  -25971892.07947 -20059593.75463
  21280142.153     2850432.639 5   2221099.28921
  18870487.3804   -2548559.76848  -1954189.46363
 91  5  7 22  4 14.9930000  0  5G15G13G 6G19G 2
  21781900.802    -4777972.100 6  -3628218.22621
  20972090.724    -7680064.532 5  -2940059.09421
  19054845.4424  -26006402.53347 -20086484.98863
  21285304.0604    2877548.72745   2242228.60361
  18868334.6534   -2559869.29548  -1963002.07163
 91  5  7 22  4 29.9930000  0  5G15G13G 6G19G 2
  21776896.8574   -4804260.57146  -3648702.69061
  20959086.786    -7748411.386 6  -2993316.10821
  19048290.5364  -26040854.95447 -20113331.00463
  21290470.935     2904719.904 5   2263400.84321
  18866192.3644   -2571132.35448  -1971778.46663
 91  5  7 22  4 44.9930000  0  5G15G13G 6G19G 2
  21771918.575    -4830432.588 6  -3669096.40321
  20946090.9824   -7816696.10146  -3046524.72261
  19041745.216   -26075249.667 7 -20140132.05123
  21295657.169     2931945.593 5   2284615.55921
  18864056.966    -2582349.651 8  -1980519.20523
 91  5  7 22  4 59.9930000  0  5G15G13G 6G19G 2
  21766949.849    -4856485.108 5  -3689396.99821
  20933107.9424   -7884915.49946  -3099682.42561
  19035212.2554  -26109583.48947 -20166885.64963
  21300843.817     2959228.514 5   2305874.86721
  18861931.200    -2593518.214 8  -1989221.96723
 91  5  7 22  5 14.9930000  0  5G15G13G 6G19G 2
  21762013.716    -4882425.549 5  -3709610.27421
  20920139.0214   -7953076.86846  -3152794.91661
  19028687.5134  -26143863.65047 -20193597.43563
  21306048.786     2986561.035 5   2327172.82221
  18859814.942    -2604645.473 8  -1997892.54623
 91  5  7 22  5 29.9930000  0  5G15G13G 6G19G 2
  21757102.1854   -4908251.19745  -3729734.07661
  20907180.5994   -8021177.30446  -3205859.94861
  19022175.341   -26178087.425 7 -20220265.28723
  21311259.1854    3013945.57245   2348511.32161
  18857704.880    -2615729.016 8  -2006529.05423
 91  5  7 22  5 44.9930000  0  5G15G13G 6G19G 2
  21752207.755    -4933956.451 5  -3749764.08421
  20894231.6534   -8089211.37546  -3258873.24361
  19015674.7944  -26212249.43447 -20246885.00763
  21316481.5444    3041387.10145   2369894.20961
  18855603.958    -2626763.700 8  -2015127.49223
 91  5  7 22  5 59.9930000  0  5G15G13G 6G19G 2
  21747343.7164   -4959544.66446  -3769702.89361
  20881297.7634   -8157182.09646  -3311837.19061
  19009184.708   -26246352.904 7 -20273459.11323
  21321709.0834    3068881.96645   2391318.67461
  18853512.857    -2637753.093 8  -2023690.64523
 91  5  7 22  6 14.9930000  0  5G15G13G 6G19G 2
  21742502.833    -4985008.369 6  -3789544.68121
  20868377.239    -8225081.756 6  -3364745.76421
  19002707.3414  -26280390.27147 -20299981.71063
  21326955.364     3096437.623 5   2412790.49721
  18851433.192    -2648690.059 8  -2032212.93923
 91  5  7 22  6 29.9930000  0  5G15G13G 6G19G 2
  21737675.021    -5010349.888 5  -3809291.26121
  20855469.763    -8292912.365 6  -3417600.53321
  18996242.817   -26314363.600 7 -20326454.40723
  21332213.075     3124051.289 5   2434307.52621
  18849361.060    -2659577.090 8  -2040696.32023
 91  5  7 22  6 44.9930000  0  5G15G13G 6G19G 2
  21732879.0214   -5035563.69946  -3828938.31761
  20842575.677    -8360668.820 6  -3470397.51421
  18989791.6614  -26348267.90447 -20352873.31563
  21337476.974     3151727.879 5   2455873.58021
  18847299.521    -2670409.240 8  -2049136.94623
 91  5  7 22  6 59.9930000  0  5G15G13G 6G19G 2
  21728106.8574   -5060653.12946  -3848488.48261
  20829695.536    -8428354.262 6  -3523139.19121
  18983351.7714  -26382106.28247 -20379240.85963
  21342756.747     3179463.840 5   2477485.90821
  18845248.653    -2681189.991 8  -2057537.51123
 91  5  7 22  7 14.9930000  0  5G15G13G 6G19G 2
  21723353.4894   -5085620.53346  -3867943.53561
  20816826.1774   -8495970.64346  -3575827.03161
  18976924.849   -26415881.072 7 -20405558.84923
  21348044.5214    3207256.52845   2499142.43961
  18843206.982    -2691921.831 8  -2065899.96723
 91  5  7 22  7 29.9930000  0  5G15G13G 6G19G 2
  21718622.497    -5110466.185 5  -3887303.72921
  20803975.614    -8563518.185 6  -3628461.23621
  18970511.2784  -26449592.26647 -20431827.28463
  21353345.622     3235105.538 5   2520842.84621
  18841172.919    -2702605.165 8  -2074224.62623
 91  5  7 22  7 44.9930000  0  5G15G13G 6G19G 2
  21713921.6224   -5135191.03646  -3906569.77561
  20791132.5524   -8630997.70746  -3681042.44961
  18964107.5674  -26483240.88847 -20458046.95563
  21358657.185     3263009.530 5   2542586.11621
  18839148.435    -2713241.200 8  -2082512.42823
 91  5  7 22  7 59.9930000  0  5G15G13G 6G19G 2
  21709234.583    -5159791.093 5  -3925738.62221
  20778306.0604   -8698404.84346  -3733567.26461
  18957716.0284  -26516822.75247 -20484214.61863
  21363977.052     3290972.217 5   2564375.09121
  18837135.372    -2723826.461 8  -2090760.66423
 91  5  7 22  8 14.9930000  0  5G15G13G 6G19G 2
  21704578.692    -5184266.875 6  -3944810.59721
  20765490.669    -8765740.004 6  -3786035.97221
  18951339.0524  -26550338.32147 -20510330.61363
  21369309.286     3318992.969 5   2586209.32721
  18835129.200    -2734361.446 8  -2098969.72923
 91  5  7 22  8 29.9930000  0  5G15G13G 6G19G 2
  21699942.5364   -5208618.64946  -3963785.95461
  20752691.7714   -8833003.59346  -3838448.94561
  18944974.2474  -26583788.06547 -20536395.31363
  21374651.466     3347070.898 5   2608088.13121
  18833134.396    -2744846.959 8  -2107140.24123
 91  5  7 22  8 44.9930000  0  5G15G13G 6G19G 2
  21695335.974    -5232839.157 6  -3982659.03821
  20739905.9424   -8900187.91846  -3890800.14261
  18938622.8964  -26617164.52947 -20562402.91663
  21380005.9274    3375213.13945   2630017.03361
  18831149.653    -2755275.921 8  -2115266.68423
 91  5  7 22  8 59.9930000  0  5G15G13G 6G19G 2
  21690750.0604   -5256937.08146  -4001436.57461
  20727134.630    -8967301.736 6  -3943096.39821
  18932284.5834  -26650476.50747 -20588360.26563
  21385376.638     3403410.577 5   2651988.94621
  18829174.466    -2765657.153 8  -2123355.94423
 91  5  7 22  9 14.9930000  0  5G15G13G 6G19G 2
  21686184.200    -5280913.401 6  -4020119.37121
  20714375.591    -9034345.992 6  -3995338.45621
  18925957.1924  -26683724.81747 -20614268.00763
  21390747.739     3431661.719 5   2674002.69521
  18827207.771    -2775991.948 8  -2131409.00923
 91  5  7 22  9 29.9930000  0  5G15G13G 6G19G 2
  21681649.763    -5304756.236 6  -4038698.15521
  20701632.1924   -9101308.52946  -4047516.83761
  18919643.4744  -26716897.61447 -20640116.90263
  21396135.0674    3459978.42545   2696067.55761
  18825252.114    -2786268.738 8  -2139416.88123
 91  5  7 22  9 44.9930000  0  5G15G13G 6G19G 2
  21677137.9974   -5328465.50146  -4057172.87961
  20688906.0914   -9168188.98846  -4099631.27461
  18913344.4194  -26749994.41447 -20665906.57963
  21401541.536     3488360.672 5   2718183.49121
  18823307.528    -2796487.476 8  -2147379.51923
 91  5  7 22  9 59.9930000  0  5G15G13G 6G19G 2
  21672652.2004   -5352052.09646  -4075552.00461
  20676193.146    -9234998.068 6  -4151690.09321
  18907058.4894  -26783026.11447 -20691645.53863
  21406947.810     3516797.125 5   2740341.64621
  18821371.958    -2806659.267 8  -2155305.57623
 91  5  7 22 10 14.9930000  0  5G15G13G 6G19G 2
  21668183.3174   -5375515.37246  -4093835.03261
  20663493.8104   -9301735.14246  -4203692.78861
  18900786.8104  -26815992.42247 -20717333.53263
  21412370.3254    3545288.02545   2762542.22461
  18819445.013    -2816783.953 8  -2163194.92623
 91  5  7 22 10 29.9930000  0  5G15G13G 6G19G 2
  21663745.3884   -5398848.38946  -4112016.55361
  20650808.817    -9368392.802 6  -4255633.62221
  18894527.9504  -26848885.86547 -20742964.75363
  21417805.8254    3573840.18045   2784790.54261
  18817528.763    -2826854.681 8  -2171042.23123
 91  5  7 22 10 44.9930000  0  5G15G13G 6G19G 2
  21659326.9354   -5422055.31746  -4130099.82761
  20638140.482    -9434975.288 6  -4307515.85021
  18888279.7634  -26881710.78547 -20768542.57663
  21423250.5134    3602448.94045   2807082.97261
  18815621.825    -2836875.755 8  -2178850.84623
 91  5  7 22 10 59.9930000  0  5G15G13G 6G19G 2
  21654936.9974   -5445129.54746  -4148079.71861
  20625483.513    -9501476.063 6  -4359334.42621
  18882048.1614  -26914460.69247 -20794061.95163
  21428701.5364    3631120.53845   2829424.35061
  18813725.583    -2846841.167 8  -2186616.09023
 91  5  7 22 11 14.9930000  0  5G15G13G 6G19G 2
  21650573.653    -5468075.071 6  -4165959.29921
  20612843.2474   -9567898.78546  -4411092.19361
  18875830.2554  -26947139.18947 -20819525.68563
  21434170.177     3659850.870 5   2851811.51521
  18811839.716    -2856754.802 8  -2194340.98623
 91  5  7 22 11 29.9930000  0  5G15G13G 6G19G 2
  21646231.794    -5490897.782 6  -4183743.19621
  20600217.4034   -9634249.18046  -4462793.59961
  18869624.5834  -26979752.21347 -20844938.39663
  21439648.8174    3688633.71645   2874239.59361
  18809961.044    -2866622.848 8  -2202030.35923
 91  5  7 22 11 44.9930000  0  5G15G13G 6G19G 2
  21641912.935    -5513589.696 6  -4201425.19321
  20587606.8574   -9700518.94046  -4514432.15861
  18863432.0604  -27012291.72547 -20870293.82763
  21445137.9504    3717476.66245   2896714.48061
  18808093.294    -2876437.542 8  -2209678.16023
 91  5  7 22 11 59.9930000  0  5G15G13G 6G19G 2
  21637614.771    -5536159.499 6  -4219012.00421
  20575009.3334   -9766716.45246  -4566014.41761
  18857253.2244  -27044766.07547 -20895598.48563
  21450635.817     3746370.958 5   2919229.41021
  18806234.763    -2886207.498 8  -2217291.10023
 91  5  7 22 12 14.9930000  0  5G15G13G 6G19G 2
  21633344.310    -5558601.584 6  -4236499.32021
  20562427.794    -9832836.380 6  -4617536.24821
  18851085.2474  -27077169.79447 -20920848.10863
  21456148.9974    3775321.69445   2941788.29661
  18804385.6464   -2895927.64048  -2224865.22463
 91  5  7 22 12 29.9930000  0  5G15G13G 6G19G 2
  21629093.060    -5580916.577 6  -4253887.60721
  20549858.4744   -9898879.10646  -4668997.90761
  18844932.9114  -27109503.60347 -20946043.25263
  21461665.5524    3804328.02445   2964390.50361
  18802544.333    -2905598.960 8  -2232401.30323
 91  5  7 22 12 44.9930000  0  5G15G13G 6G19G 2
  21624875.247    -5603103.244 6  -4271175.88021
  20537307.552    -9964843.069 6  -4720398.19021
  18838794.8494  -27141766.04547 -20971182.78763
  21467199.3964    3833390.74445   2987036.66961
  18800713.755    -2915220.428 8  -2239898.53623
 91  5  7 22 12 59.9930000  0  5G15G13G 6G19G 2
  21620674.0364   -5625162.81346  -4288365.12761
  20524770.4824  -10030729.26646  -4771737.88661
  18832667.6924  -27173958.21847 -20996267.56863
  21472736.9584    3862508.29445   3009725.52961
  18798891.560    -2924793.456 8  -2247358.02523
 91  5  7 22 13 14.9930000  0  5G15G13G 6G19G 2
  21616506.286    -5647089.697 6  -4305450.97921
  20512246.7394  -10096532.34346  -4823012.79461
  18826555.8174  -27206074.77247 -21021293.42163
  21478290.2244    3891686.01945   3032461.30561
  18797080.771    -2934312.923 8  -2254775.78123
 91  5  7 22 13 29.9930000  0  5G15G13G 6G19G 2
  21612363.0214   -5668886.81546  -4322435.71461
  20499741.083   -10162254.598 6  -4874224.73421
  18820459.0834  -27238118.27447 -21046262.35563
  21483849.8024    3920920.96345   3055241.64261
  18795278.177    -2943781.469 8  -2262153.85223
 91  5  7 22 13 44.9930000  0  5G15G13G 6G19G 2
  21608228.6774   -5690558.27946  -4339322.54661
  20487247.8254  -10227900.07446  -4925376.84861
  18814373.5134  -27270092.70847 -21071177.47363
  21489424.4274    3950208.45945   3078062.96961
  18793485.263    -2953203.634 8  -2269495.78823
 91  5  7 22 13 59.9930000  0  5G15G13G 6G19G 2
  21604141.3804   -5712100.21946  -4356108.43761
  20474771.067   -10293464.982 6  -4976466.18921
  18808303.8644  -27301994.42247 -21096035.91963
  21495010.3644    3979552.17445   3100928.05161
  18791701.482    -2962575.801 8  -2276798.75523
 91  5  7 22 14 14.9930000  0  5G15G13G 6G19G 2
  21600061.388    -5733515.245 6  -4372795.45321
  20462309.9664  -10358951.86446  -5027494.71661
  18802246.3644  -27333825.84047 -21120839.59563
  21500603.8024    4008949.06645   3123834.59961
  18789928.341    -2971900.832 8  -2284065.00023
 91  5  7 22 14 29.9930000  0  5G15G13G 6G19G 2
  21596010.802    -5754800.886 6  -4389381.62521
  20449863.107   -10424357.663 6  -5078460.06821
  18796202.6074  -27365584.26947 -21145586.39463
  21506208.4274    4038401.60045   3146784.50761
  18788162.544    -2981176.514 8  -2291292.79323
 91  5  7 22 14 44.9930000  0  5G15G13G 6G19G 2
  21591977.4034   -5775958.91646  -4405868.37561
  20437431.778   -10489683.937 6  -5129363.45721
  18790173.4974  -27397271.24647 -21170277.51663
  21511823.591     4067907.976 5   3169776.36121
  18786406.474    -2990404.524 8  -2298483.43523
 91  5  7 22 14 59.9930000  0  5G15G13G 6G19G 2
  21587983.0604   -5796987.42346  -4422254.19461
  20425015.692   -10554928.692 6  -5180203.32721
  18784156.3174  -27428884.71047 -21194911.35563
  21517446.372     4097469.434 5   3192811.12621
  18784659.802    -2999583.154 8  -2305635.60223
 91  5  7 22 15 14.9930000  0  5G15G13G 6G19G 2
  21584010.247    -5817883.671 6  -4438536.93721
  20412616.372   -10620089.273 6  -5230977.59421
  18778155.8174  -27460422.12247 -21219485.93163
  21523085.6384    4127088.26145   3215890.60961
  18782922.286    -3008710.086 8  -2312747.48223
 91  5  7 22 15 29.9930000  0  5G15G13G 6G19G 2
  21580054.724    -5838657.046 6  -4454723.95921
  20400229.6384  -10685174.87846  -5281693.44861
  18772166.7474  -27491892.81247 -21244008.51763
  21528730.8104    4156754.85345   3239007.30361
  18781194.169    -3017794.804 8  -2319826.47023
 91  5  7 22 15 44.9930000  0  5G15G13G 6G19G 2
  21576119.5604   -5859304.45946  -4470812.80261
  20387859.771   -10750182.166 6  -5332348.27821
  18766191.3104  -27523293.54647 -21268476.59363
  21534389.146     4186471.811 5   3262163.23621
  18779473.630    -3026834.569 8  -2326870.42723
 91  5  7 22 15 59.9930000  0  5G15G13G 6G19G 2
  21572220.333    -5879818.485 6  -4486797.72021
  20375505.2554  -10815103.64446  -5382936.24261
  18760230.6464  -27554616.77947 -21292884.27763
  21540054.6464    4216246.33845   3285364.04961
  18777764.497    -3035822.221 8  -2333873.77923
 91  5  7 22 16 14.9930000  0  5G15G13G 6G19G 2
  21568340.4034   -5900205.96346  -4502684.01961
  20363166.911   -10879945.550 6  -5433462.19221
  18754283.0994  -27585869.02147 -21317236.64263
  21545729.4194    4246071.94545   3308604.65961
  18776061.458    -3044764.362 8  -2340841.66823
 91  5  7 22 16 29.9930000  0  5G15G13G 6G19G 2
  21564479.302    -5920472.467 6  -4518476.06021
  20350841.872   -10944713.509 6  -5483930.53321
  18748349.1384  -27617055.78547 -21341537.98863
  21551411.2864    4275942.42645   3331880.23361
  18774368.044    -3053667.021 8  -2347778.79223
 91  5  7 22 16 44.9930000  0  5G15G13G 6G19G 2
  21560654.4584   -5940610.50546  -4534168.00061
  20338532.4824  -11009399.99246  -5534335.38161
  18742428.5914  -27648169.74947 -21365782.60663
  21557102.177     4305864.987 5   3355196.38121
  18772681.396    -3062522.846 8  -2354679.42023
 91  5  7 22 16 59.9930000  0  5G15G13G 6G19G 2
  21556842.0674   -5960622.24746  -4549761.52961
  20326235.700   -11074007.267 6  -5584678.52021
  18736520.4894  -27679212.98947 -21389972.11563
  21562810.3964    4335836.90745   3378551.00461
  18771006.0214   -3071334.40848  -2361545.56263
 91  5  7 22 17 14.9930000  0  5G15G13G 6G19G 2
  21553060.9114   -5980498.83346  -4565249.73561
  20313959.2474  -11138525.98246  -5634952.64661
  18730628.9114  -27710176.52447 -21414099.51563
  21568527.255     4365867.006 5   3401950.94021
  18769339.982    -3080092.863 8  -2368370.31923
 91  5  7 22 17 29.9930000  0  5G15G13G 6G19G 2
  21549301.7784   -6000261.96346  -4580649.52961
  20301694.8024  -11202977.55246  -5685174.45761
  18724747.3964  -27741081.65947 -21438181.40963
  21574247.5524    4395933.29945   3425379.10261
  18767678.708    -3088819.989 8  -2375170.66323
 91  5  7 22 17 44.9930000  0  5G15G13G 6G19G 2
  21545559.341    -6019902.514 6  -4595953.82021
  20289445.7324  -11267352.81146  -5735336.80761
  18718879.6384  -27771919.44847 -21462210.82563
  21579977.2784    4426044.53845   3448842.28361
  18766024.700    -3097507.107 8  -2381939.83123
 91  5  7 22 17 59.9930000  0  5G15G13G 6G19G 2
  21541847.786    -6039414.002 6  -4611157.51621
  20277209.841   -11331644.967 6  -5785434.38721
  18713024.7084  -27802683.20047 -21486182.55063
  21585712.6924    4456207.04545   3472345.37761
  18764380.216    -3106147.924 8  -2388672.92123
 91  5  7 22 18 14.9930000  0  5G15G13G 6G19G 2
  21538159.841    -6058803.291 6  -4626266.00421
  20264990.114   -11395860.865 6  -5835472.56821
  18707184.1534  -27833379.62347 -21510101.81063
  21591467.114     4486413.655 5   3495882.90521
  18762744.294    -3114749.333 8  -2395375.30523
 91  5  7 22 18 29.9930000  0  5G15G13G 6G19G 2
  21534492.435    -6078067.680 6  -4641277.15721
  20252784.755   -11459997.406 6  -5885448.90121
  18701355.7634  -27864006.03347 -21533966.51663
  21597220.677     4516666.912 5   3519456.74421
  18761115.8254   -3123308.97048  -2402045.13763
 91  5  7 22 18 44.9930000  0  5G15G13G 6G19G 2
  21530853.513    -6097197.882 6  -4656183.76521
  20240596.2864  -11524045.35946  -5935356.20461
  18695543.2164  -27894553.11847 -21557769.41363
  21602991.5054    4546975.59944   3543073.77161
  18759495.669    -3131817.683 8  -2408675.29423
 91  5  7 22 18 59.9930000  0  5G15G13G 6G19G 2
  21527234.5674   -6116202.04346  -4670992.15361
  20228425.474   -11588012.405 6  -5985200.46921
  18689743.7634  -27925028.70447 -21581516.59663
  21608769.341     4577331.543 4   3566727.62221
  18757885.091    -3140283.543 8  -2415272.05423
 91  5  7 22 19 14.9930000  0  5G15G13G 6G19G 2
  21523643.114    -6135075.491 6  -4685698.67421
  20216268.005   -11651893.779 6  -6034977.98721
  18683958.442   -27955427.827 7 -21605204.19923
  21614548.567     4607739.091 4   3590421.69621
  18756282.4664   -3148702.13848  -2421831.98863
 91  5  7 22 19 29.9930000  0  5G15G13G 6G19G 2
  21520077.0524   -6153824.28646  -4700308.06761
  20204126.1384  -11715695.52446  -6084693.44761
  18678188.0364  -27985756.55647 -21628836.94863
  21620348.3724    4638191.94444   3614151.06661
  18754688.716    -3157079.795 8  -2428360.01823
 91  5  7 22 19 44.9930000  0  5G15G13G 6G19G 2
  21516531.153    -6172450.140 6  -4714821.67621
  20192001.2244  -11779419.24246  -6134348.11461
  18672429.2164  -28016016.55047 -21652416.13263
  21626154.3574    4668687.98644   3637914.06661
  18753101.4584   -3165418.55148  -2434857.73863
 91  5  7 22 19 59.9930000  0  5G15G13G 6G19G 2
  21513011.638    -6190945.674 6  -4729233.73721
  20179890.4584  -11843057.38446  -6183936.08561
  18666685.2084  -28046200.58247 -21675936.13363
  21631972.2244    4699234.31344   3661716.27761
  18751524.6224   -3173711.22248  -2441319.55163
 91  5  7 22 20 14.9930000  0  5G15G13G 6G19G 2
  21509520.560    -6209314.526 6  -4743547.06921
  20167795.8024  -11906613.52546  -6233460.18961
  18660954.974   -28076312.220 7 -21699399.72123
  21637786.200     4729826.904 4   3685554.53421
  18749954.2554   -3181961.51448  -2447748.33963
 91  5  7 22 20 29.9930000  0  5G15G13G 6G19G 2
  21506047.841    -6227552.153 6  -4757758.15021
  20155717.255   -11970082.579 6  -6282916.40421
  18655239.6694  -28106346.30447 -21722802.87663
  21643615.114     4760470.273 4   3709432.35821
  18748393.6924   -3190164.83748  -2454140.52663
 91  5  7 22 20 44.9930000  0  5G15G13G 6G19G 2
  21502598.8804   -6245663.85746  -4771871.12261
  20143656.0524  -12033469.49546  -6332308.62861
  18649538.286   -28136308.053 7 -21746149.66823
  21649457.1614    4791158.86444   3733345.42561
  18746839.8724   -3198326.83148  -2460500.51063
 91  5  7 22 20 59.9930000  0  5G15G13G 6G19G 2
  21499179.497    -6263650.414 6  -4785886.57421
  20131609.0994  -12096775.09946  -6381637.49461
  18643851.075   -28166198.338 7 -21769440.77623
  21655303.255     4821891.503 4   3757292.79721
  18745294.2784   -3206448.50548  -2466829.07663
 91  5  7 22 21 14.9930000  0  5G15G13G 6G19G 2
  21495779.622    -6281500.884 6  -4799795.97421
  20119580.0994  -12159988.22246  -6430894.29561
  18638178.599   -28196006.293 7 -21792667.72623
  21661165.9424    4852678.58744   3781282.63161
  18743758.1144   -3214519.28248  -2473117.98563
 91  5  7 22 21 29.9930000  0  5G15G13G 6G19G 2
  21492410.6534   -6299206.85046  -4813592.77061
  20107569.9194  -12223100.34946  -6480072.40461
  18632523.3334  -28225723.28347 -21815823.79863
  21667037.489     4883528.688 4   3805321.51921
  18742234.2714   -3222530.63248  -2479360.58663
 91  5  7 22 21 44.9930000  0  5G15G13G 6G19G 2
  21489067.0364   -6316781.06846  -4827286.90661
  20095575.677   -12286124.021 6  -6529181.58521
  18626883.075   -28255361.611 7 -21838918.57823
  21672914.2474    4914428.68344   3829399.30461
  18740718.028    -3230495.399 8  -2485566.88423
 91  5  7 22 21 59.9930000  0  5G15G13G 6G19G 2
  21485747.8024   -6334223.64946  -4840878.46961
  20083600.3724  -12349059.22246  -6578221.82161
  18621257.942   -28284921.660 7 -21861952.35423
  21678803.333     4945378.068 5   3853515.58421
  18739210.9744   -3238414.03348  -2491737.24063
 91  5  7 22 22 14.9930000  0  5G15G13G 6G19G 2
  21482453.0524   -6351528.84646  -4854362.99061
  20071641.8104  -12411899.80246  -6627188.32561
  18615648.497   -28314397.082 7 -21884920.19223
  21684706.427     4976382.698 5   3877674.89421
  18737714.2554   -3246280.66248  -2497867.06863
 91  5  7 22 22 29.9930000  0  5G15G13G 6G19G 2
  21479192.896    -6368692.404 6  -4867737.11821
  20059701.583   -12474641.223 6  -6676077.57721
  18610056.966   -28343783.550 7 -21907818.71123
  21690615.997     5007446.576 5   3901880.36921
  18736227.3804   -3254091.26248  -2503953.23963
 91  5  7 22 22 44.9930000  0  5G15G13G 6G19G 2
  21475953.1534   -6385712.83846  -4880999.72861
  20047782.2004  -12537282.01046  -6724888.40761
  18604481.021   -28373079.664 7 -21930646.82823
  21696539.4194    5038570.72744   3926132.80961
  18734752.8024   -3261844.56148  -2509994.76463
 91  5  7 22 22 59.9930000  0  5G15G13G 6G19G 2
  21472732.091    -6402598.505 6  -4894157.34021
  20035881.0994  -12599830.35346  -6773627.19461
  18598922.982   -28402293.615 7 -21953410.92223
  21702474.9744    5069746.44445   3950425.45261
  18733285.9274   -3269549.11348  -2515998.30363
 91  5  7 22 23 14.9930000  0  5G15G13G 6G19G 2
  21469548.489    -6419353.973 6  -4907213.48821
  20023993.5994  -12662290.43446  -6822297.21461
  18593378.857   -28431429.709 7 -21976114.34523
  21708416.810     5100968.897 4   3974754.50121
  18731828.107    -3277209.779 8  -2521967.64523
 91  5  7 22 23 29.9930000  0  5G15G13G 6G19G 2
  21466388.778    -6435969.852 6  -4920160.88821
  20012126.7394  -12724652.83746  -6870891.11661
  18587851.396   -28460478.686 7 -21998749.89023
  21714364.3104    5132247.16244   3999127.02861
  18730379.9194   -3284817.28148  -2527895.55663
 91  5  7 22 23 44.9930000  0  5G15G13G 6G19G 2
  21463251.075    -6452445.010 6  -4932998.62821
  20000278.661   -12786916.321 6  -6919407.94421
  18582340.403   -28489439.285 7 -22021316.56323
  21720335.435     5163582.220 5   4023543.80221
  18728943.8104   -3292370.56048  -2533781.21863
 91  5  7 22 23 59.9930000  0  5G15G13G 6G19G 2
  21460145.263    -6468783.170 6  -4945729.58521
  19988447.208   -12849084.193 6  -6967850.27621
  18576844.8804  -28518314.75947 -22043816.90763
  21726301.614     5194970.319 4   4048001.92521
  18727515.7714   -3299873.25948  -2539627.46563
 91  5  7 22 24 14.9930000  0  5G15G13G 6G19G 2
  21457059.263    -6484990.525 6  -4958358.64521
  19976635.6224  -12911162.65846  -7016222.93461
  18571364.880   -28547111.193 7 -22066255.66423
  21732282.4274    5226404.94344   4072496.30561
  18726096.2864   -3307332.05348  -2545439.50363
 91  5  7 22 24 29.9930000  0  5G15G13G 6G19G 2
  21453997.810    -6501074.120 6  -4970891.26821
  19964835.7004  -12973158.52846  -7064531.24361
  18565897.505   -28575835.814 7 -22088638.45623
  21738272.1464    5257878.56045   4097021.03261
  18724683.7554   -3314754.30048  -2551223.06163
 91  5  7 22 24 44.9930000  0  5G15G13G 6G19G 2
  21450960.724    -6517021.328 6  -4983317.60821
  19953059.607   -13035058.816 6  -7112765.06921
  18560448.0134  -28604475.42547 -22110955.01163
  21744273.3804    5289403.75445   4121585.99961
  18723282.2784   -3322127.07648  -2556968.07063
 91  5  7 22 24 59.9930000  0  5G15G13G 6G19G 2
  21447954.208    -6532843.650 6  -4995646.63821
  19941293.825   -13096874.691 6  -7160933.11521
  18555012.7324  -28633041.58647 -22133214.33263
  21750282.591     5320968.781 4   4146181.97721
  18721885.2554   -3329461.98348  -2562683.57063
 91  5  7 22 25 14.9930000  0  5G15G13G 6G19G 2
  21444969.8494   -6548537.69646  -5007875.70561
  19929547.653   -13158602.651 6  -7209032.66021
  18549591.857   -28661530.669 7 -22155413.59223
  21756294.388     5352576.758 4   4170811.41821
  18720497.3414   -3336755.74948  -2568367.01363
 91  5  7 22 25 29.9930000  0  5G15G13G 6G19G 2
  21442009.989    -6564101.176 6  -5020003.02221
  19917818.833   -13220240.292 6  -7257061.83721
  18544185.294   -28689940.143 7 -22177550.82023
  21762315.341     5384229.639 4   4195475.84121
  18719117.4034   -3344006.45748  -2574016.90763
 91  5  7 22 25 44.9930000  0  5G15G13G 6G19G 2
  21439069.7004   -6579527.32246  -5032023.35661
  19906107.7394  -13281780.65846  -7305015.20961
  18538794.552   -28718263.363 7 -22199620.83823
  21768348.5914    5415934.01544   4220180.41061
  18717747.1614   -3351207.45748  -2579628.06363
 91  5  7 22 25 59.9930000  0  5G15G13G 6G19G 2
  21436154.6854   -6594816.04146  -5043936.60261
  19894414.8494  -13343223.30346  -7352892.43961
  18533422.677   -28746500.117 7 -22221623.48023
  21774392.1854    5447689.63744   4244924.87961
  18716386.9824   -3358358.72948  -2585200.47663
 91  5  7 22 26 14.9930000  0  5G15G13G 6G19G 2
  21433268.458    -6609971.772 5  -5055746.21021
  19882741.8414  -13404572.72046  -7400697.02961
  18528063.849   -28774654.581 7 -22243561.99823
  21780441.2324    5479491.79144   4269705.63961
  18715034.4824   -3365464.91048  -2590737.74963
 91  5  7 22 26 29.9930000  0  5G15G13G 6G19G 2
  21430410.466    -6624993.837 5  -5067451.66421
  19871084.3884  -13465827.90246  -7448428.18361
  18522722.935   -28802725.825 7 -22265435.67223
  21786507.880     5511340.917 4   4294522.99621
  18713691.5214   -3372525.52848  -2596239.52063
 91  5  7 22 26 44.9930000  0  5G15G13G 6G19G 2
  21427584.1304   -6639882.58046  -5079053.22161
  19859445.6774  -13526989.16946  -7496086.16261
  18517397.130   -28830714.191 7 -22287244.76523
  21792576.7324    5543236.69344   4319376.67061
  18712355.8884   -3379540.99348  -2601706.10663
 91  5  7 22 26 59.9930000  0  5G15G13G 6G19G 2
  21424781.3964   -6654642.27246  -5090554.21561
  19847824.4034  -13588060.29746  -7543673.91261
  18512085.091   -28858623.580 7 -22308992.31523
  21798652.3104    5575174.60244   4344263.21161
  18711028.6074   -3386515.40448  -2607140.70263
 91  5  7 22 27 14.9930000  0  5G15G13G 6G19G 2
  21421996.2944   -6669278.45246  -5101958.97561
  19836218.8644  -13649046.71646  -7591195.64861
  18506788.583   -28886459.664 7 -22330682.74923
  21804734.4424    5607148.64744   4369177.90761
  18709707.2784   -3393454.68548  -2612547.92363
 91  5  7 22 27 29.9930000  0  5G15G13G 6G19G 2
  21419229.0214   -6683784.23146  -5113262.13861
  19824630.427   -13709941.398 6  -7638645.89921
  18501507.099   -28914215.280 7 -22352310.47823
  21810830.739     5639165.413 4   4394125.88021
  18708395.2864   -3400351.87948  -2617922.34963
 91  5  7 22 27 44.9930000  0  5G15G13G 6G19G 2
  21416490.9824   -6698151.27746  -5124457.19761
  19813060.427   -13770735.800 6  -7686018.02121
  18496241.794   -28941881.812 7 -22373868.79223
  21816934.4424    5671233.03744   4419113.48861
  18707092.341    -3407198.934 8  -2623257.70523
 91  5  7 22 27 59.9930000  0  5G15G13G 6G19G 2
  21413781.5444   -6712390.22146  -5135552.41961
  19801508.5674  -13831440.31046  -7733320.08861
  18490992.677   -28969469.613 7 -22395365.75723
  21823039.333     5703340.741 5   4444132.35321
  18705798.0524   -3414006.59348  -2628562.36263
 91  5  7 22 28 14.9930000  0  5G15G13G 6G19G 2
  21411103.177    -6726482.496 6  -5146533.36021
  19789978.8104  -13892035.96746  -7780537.33461
  18485761.185   -28996960.212 7 -22416786.98323
  21829161.692     5735506.910 4   4469196.71621
  18704513.0284   -3420756.32148  -2633821.88063
 91  5  7 22 28 29.9930000  0  5G15G13G 6G19G 2
  21408446.3174   -6740430.42445  -5157401.81561
  19778467.669   -13952525.103 6  -7827671.57921
  18480547.786   -29024355.863 7 -22438134.22023
  21835294.7324    5767728.81145   4494304.54961
  18703239.2324   -3427450.71448  -2639038.28263
 91  5  7 22 28 44.9930000  0  5G15G13G 6G19G 2
  21405821.044    -6754253.012 6  -5168172.62221
  19766974.3494  -14012926.43246  -7874737.40761
  18475348.544   -29051675.122 7 -22459421.93323
  21841435.4114    5799987.28845   4519440.87261
  18701970.6774   -3434108.69848  -2644226.31163
 91  5  7 22 28 59.9930000  0  5G15G13G 6G19G 2
  21403216.474    -6767935.309 6  -5178834.12721
  19755499.2244  -14073224.90746  -7921723.08061
  18470167.560   -29078902.968 7 -22480638.41223
  21847581.942     5832296.969 5   4544617.12321
  18700715.6774   -3440715.56548  -2649374.51163
 91  5  7 22 29 14.9930000  0  5G15G13G 6G19G 2
  21400639.560    -6781481.691 6  -5189389.70221
  19744043.903   -14133424.694 6  -7968631.87421
  18465003.122   -29106043.714 7 -22501787.02823
  21853741.9424    5864653.26944   4569829.63561
  18699465.9744   -3447275.83848  -2654486.40663
 91  5  7 22 29 29.9930000  0  5G15G13G 6G19G 2
  21398081.169    -6794898.326 6  -5199844.18121
  19732606.294   -14193531.773 6  -8015468.42521
  18459854.185   -29133103.246 7 -22522872.35923
  21859903.7944    5897050.01045   4595073.68761
  18698225.0834   -3453795.61348  -2659566.73963
 91  5  7 22 29 44.9930000  0  5G15G13G 6G19G 2
  21395558.942    -6808181.644 6  -5210194.79921
  19721185.622   -14253541.971 6  -8062229.48321
  18454720.091   -29160077.690 7 -22543891.38523
  21866080.3724    5929490.68544   4620351.99961
  18696993.3574   -3460271.32048  -2664612.73663
 91  5  7 22 29 59.9930000  0  5G15G13G 6G19G 2
  21393056.1534   -6821334.30046  -5220443.58561
  19709783.6924  -14313457.95846  -8108917.12561
  18449602.919   -29186969.512 7 -22564846.03023
  21872259.1924    5961972.33745   4645662.21161
  18695768.0134   -3466705.95448  -2669626.72963
 91  5  7 22 30 14.9920000  0  5G15G13G 6G19G 2
  21390572.1884   -6834358.27346  -5230592.10961
  19698399.539   -14373278.575 6  -8155530.46221
  18444501.477   -29213779.783 7 -22585737.13323
  21878446.633     5994489.614 4   4671000.19921
  18694551.5864   -3473101.98348  -2674610.64063
 91  5  7 22 30 29.9920000  0  5G15G13G 6G19G 2
  21388122.0634   -6847246.33246  -5240634.69961
  19687035.0554  -14433002.27446  -8202068.27761
  18439416.758   -29240502.770 7 -22606560.22123
  21884643.4304    6027055.60445   4696376.14361
  18693343.4304   -3479451.21248  -2679558.08363
 91  5  7 22 30 44.9920000  0  5G15G13G 6G19G 2
  21385698.6414   -6859995.12746  -5250568.79861
  19675690.2034  -14492622.50146  -8248525.47061
  18434347.953   -29267134.010 7 -22627311.81523
  21890854.5394    6059670.31245   4721790.03461
  18692145.6564   -3485751.08848  -2684467.07063
 91  5  7 22 30 59.9920000  0  5G15G13G 6G19G 2
  21383300.367    -6872611.890 6  -5260400.01121
  19664362.524   -14552146.195 6  -8294907.45521
  18429297.188   -29293680.785 7 -22647997.59623
  21897064.094     6092326.141 4   4747235.97821
  18690953.6094   -3492008.94848  -2689343.31963
 91  5  7 22 31 14.9920000  0  5G15G13G 6G19G 2
  21380919.828    -6885102.866 6  -5270133.19021
  19653052.149   -14611579.561 6  -8341219.03221
  18424260.399   -29320149.355 7 -22668622.43323
  21903286.024     6125016.677 4   4772708.95621
  18689769.3524   -3498231.31748  -2694191.90963
 91  5  7 22 31 29.9920000  0  5G15G13G 6G19G 2
  21378569.6254   -6897459.30846  -5279761.56461
  19641762.6644  -14670913.51846  -8387453.16761
  18419239.633   -29346530.446 7 -22689179.11023
  21909517.6494    6157750.62944   4798215.73961
  18688592.4064   -3504409.08648  -2699005.74963
 91  5  7 22 31 44.9920000  0  5G15G13G 6G19G 2
  21376239.258    -6909692.628 6  -5289293.98421
  19630487.3754  -14730159.22546  -8433618.53261
  18414235.149   -29372835.215 7 -22709676.31223
  21915752.8524    6190516.52344   4823747.46861
  18687424.6644   -3510553.75248  -2703793.79463
 91  5  7 22 31 59.9920000  0  5G15G13G 6G19G 2
  21373941.516    -6921788.036 6  -5298718.95621
  19619234.211   -14789301.621 6  -8479703.40021
  18409246.656   -29399048.646 7 -22730102.34623
  21921993.9924    6223328.52344   4849315.06961
  18686263.8364   -3516650.76948  -2708544.70963
 91  5  7 22 32 14.9920000  0  5G15G13G 6G19G 2
  21371661.508    -6933748.985 6  -5308039.14721
  19607999.4614  -14848344.16046  -8525710.45261
  18404275.258   -29425174.263 7 -22750459.95123
  21928244.891     6256182.966 4   4874915.77221
  18685112.7504   -3522703.76248  -2713261.32063
 91  5  7 22 32 29.9920000  0  5G15G13G 6G19G 2
  21369406.2114   -6945584.38646  -5317261.50461
  19596780.9534  -14907295.15346  -8571646.17661
  18399318.516   -29451220.638 7 -22770755.80623
  21934507.508     6289071.108 4   4900542.72621
  18683966.9144   -3528721.47948  -2717950.44263
 91  5  7 22 32 44.9920000  0  5G15G13G 6G19G 2
  21367180.883    -6957283.828 6  -5326377.94021
  19585581.9064  -14966143.95146  -8617502.26261
  18394378.399   -29477177.090 7 -22790981.59623
  21940777.586     6322003.010 4   4926203.77721
  18682830.6254   -3534693.67448  -2722604.09863
 91  5  7 22 32 59.9920000  0  5G15G13G 6G19G 2
  21364979.570    -6968857.641 6  -5335396.48121
  19574400.6954  -15024901.29246  -8663287.09161
  18389454.961   -29503054.021 7 -22811145.41923
  21947042.3914    6354967.83543   4951890.47061
  18681700.1494   -3540631.00448  -2727230.58463
 91  5  7 22 33 14.9920000  0  5G15G13G 6G19G 2
  21362805.0474   -6980298.99646  -5344311.79461
  19563237.906   -15083559.779 6  -8708994.88721
  18384546.711   -29528844.282 7 -22831241.70623
  21953324.5244    6387972.47944   4977608.19961
  18680580.0634   -3546526.54248  -2731824.50563
 91  5  7 22 33 29.9920000  0  5G15G13G 6G19G 2
  21360647.305    -6991600.980 6  -5353118.51821
  19552095.5084  -15142112.30746  -8754620.11561
  18379656.750   -29554540.674 7 -22851264.85023
  21959613.141     6421023.719 4   5003362.27221
  18679465.6334   -3552373.42048  -2736380.50663
 91  5  7 22 33 44.9920000  0  5G15G13G 6G19G 2
  21358523.6174   -7002764.13246  -5361817.04461
  19540973.7274  -15200559.10346  -8800162.95661
  18374783.867   -29580143.622 7 -22871215.18023
  21965916.7344    6454120.65344   5029151.90861
  18678363.0704   -3558172.31448  -2740899.11663
 91  5  7 22 33 59.9920000  0  5G15G13G 6G19G 2
  21356434.3834   -7013788.50046  -5370407.45861
  19529872.3524  -15258900.11946  -8845623.36661
  18369929.422   -29605652.983 7 -22891092.58523
  21972225.375     6487262.902 4   5054976.87121
  18677268.5084   -3563923.46048  -2745380.52663
 91  5  7 22 34 14.9920000  0  5G15G13G 6G19G 2
  21354361.664    -7024673.728 6  -5378889.42521
  19518788.5634  -15317134.81946  -8891000.94061
  18365094.055   -29631068.462 7 -22910896.83523
  21978539.9224    6520450.67744   5080837.30061
  18676183.6724   -3569626.44048  -2749824.40263
 91  5  7 22 34 29.9920000  0  5G15G13G 6G19G 2
  21352310.367    -7035425.451 6  -5387267.36921
  19507726.2504  -15375268.60346  -8936299.87561
  18360274.297   -29656395.257 7 -22930631.98023
  21984858.406     6553678.234 4   5106728.73521
  18675106.6174   -3575286.90948  -2754235.15163
 91  5  7 22 34 44.9920000  0  5G15G13G 6G19G 2
  21350298.016    -7046045.120 6  -5395542.43621
  19496683.5244  -15433302.48246  -8981520.96361
  18355472.359   -29681634.461 7 -22950298.87623
  21991192.9384    6586943.92644   5132649.89161
  18674035.5164   -3580906.41348  -2758613.98263
 91  5  7 22 34 59.9920000  0  5G15G13G 6G19G 2
  21348293.828    -7056532.208 6  -5403714.17721
  19485658.852   -15491235.619 6  -9026663.54721
  18350684.391   -29706785.307 7 -22969896.91822
  21997527.8134    6620248.10344   5158601.03561
  18672975.7814   -3586484.64048  -2762960.64863
 91  5  7 22 35 14.9920000  0  5G15G13G 6G19G 2
  21346331.797    -7066876.954 6  -5411775.01121
  19474655.3914  -15549057.99846  -9071719.83761
  18345918.242   -29731838.111 7 -22989418.56522
  22003875.8674    6653600.21044   5184589.50961
  18671923.7584   -3592011.74848  -2767267.48063
 91  5  7 22 35 29.9920000  0  5G15G13G 6G19G 2
  21344379.8134   -7077085.04246  -5419729.34261
  19463671.570   -15606775.134 6  -9116694.10621
  18341168.461   -29756798.186 7 -23008867.95623
  22010229.7504    6686994.52844   5210610.90761
  18670879.7584   -3597493.33248  -2771538.83863
 91  5  7 22 35 44.9920000  0  5G15G13G 6G19G 2
  21342463.727    -7087153.876 6  -5427575.17121
  19452709.2744  -15664384.40346  -9161584.32861
  18336436.000   -29781662.701 7 -23028242.88223
  22016590.6954    6720433.27944   5236666.90361
  18669847.6954   -3602927.04348  -2775772.89563
 91  5  7 22 35 59.9920000  0  5G15G13G 6G19G 2
  21340579.484    -7097083.662 6  -5435312.64621
  19441767.1954  -15721885.84246  -9206390.52861
  18331723.930   -29806431.774 7 -23047543.44123
  22022963.2194    6753916.03944   5262757.19561
  18668820.3054   -3608312.99648  -2779969.73563
 91  5  7 22 36 14.9920000  0  5G15G13G 6G19G 2
  21338715.4774   -7106875.94546  -5442942.98461
  19430845.5634  -15779280.65246  -9251113.64261
  18327026.836   -29831106.822 7 -23066770.73023
  22029347.1644    6787441.22444   5288880.52061
  18667805.5394   -3613652.99148  -2784130.76463
 91  5  7 22 36 29.9920000  0  5G15G13G 6G19G 2
  21336883.0164   -7116527.74446  -5450463.87461
  19419944.4924  -15836565.39046  -9295750.98361
  18322351.695   -29855684.590 7 -23085922.22023
  22035735.1724    6821011.41644   5315038.99861
  18666798.1564   -3618944.11948  -2788253.71363
 91  5  7 22 36 44.9920000  0  5G15G13G 6G19G 2
  21335066.5634   -7126044.11746  -5457879.20361
  19409063.8134  -15893745.11946  -9340306.49561
  18317690.289   -29880169.764 7 -23105001.55823
  22042128.7194    6854621.46543   5341228.46661
  18665800.1644   -3624191.35748  -2792342.46663
 91  5  7 22 36 59.9920000  0  5G15G13G 6G19G 2
  21333279.2114   -7135423.90746  -5465188.11761
  19398202.484   -15950818.418 6  -9384779.08521
  18313049.828   -29904561.195 7 -23124007.84823
  22048532.508     6888272.266 4   5367449.71621
  18664809.6494   -3629393.78048  -2796396.30163
 91  5  7 22 37 14.9920000  0  5G15G13G 6G19G 2
  21331525.7894   -7144671.94946  -5472394.37461
  19387360.8054  -16007789.85746  -9429172.29761
  18308424.656   -29928863.459 7 -23142944.65623
  22054942.250     6921958.928 3   5393698.92221
  18663827.3594   -3634555.89248  -2800418.72063
 91  5  7 22 37 29.9920000  0  4G15G13G 6G 2
  21329794.078    -7153772.330 6  -5479485.55921
  19376542.0084  -16064643.05246  -9473473.37261
  18303821.375   -29953059.995 7 -23161799.08423
  18662856.1174   -3639661.82748  -2804397.36663
 91  5  7 22 37 44.9920000  0  4G15G13G 6G 2
  21328079.6174   -7162735.20446  -5486469.61861
  19365744.000   -16121388.192 6  -9517690.24821
  18299233.984   -29977161.307 7 -23180579.31123
  18661893.7194   -3644722.00648  -2808340.36163
 91  5  7 22 37 59.9920000  0  4G15G13G 6G 2
  21326404.5394   -7171566.72446  -5493351.29861
  19354965.539   -16178031.211 6  -9561827.55221
  18294664.406   -30001173.068 7 -23199289.75823
  18660938.2274   -3649742.67048  -2812252.56463
 91  5  7 22 38 14.9920000  0  4G15G13G 6G 2
  21324753.352    -7180266.677 6  -5500130.47921
  19344204.891   -16234571.640 6  -9605884.91121
  18290113.641   -30025094.954 7 -23217930.17723
  18659988.8204   -3654723.63248  -2816133.83363
 91  5  7 22 38 29.9920000  0  4G15G13G 6G 2
  21323112.6414   -7188830.84846  -5506803.84861
  19333466.3444  -16291005.00746  -9649858.84661
  18285578.328   -30048922.539 7 -23236497.11323
  18659051.3524   -3659660.68348  -2819980.88463
 91  5  7 22 38 44.9920000  0  4G15G13G 6G 2
  21321515.234    -7197258.403 6  -5513370.75321
  19322748.555   -16347330.099 6  -9693748.41721
  18281061.508   -30072654.557 7 -23254989.57823
  18658120.7664   -3664552.91748  -2823793.01063
 91  5  7 22 38 59.9920000  0  4G15G13G 6G 2
  21319939.602    -7205554.085 6  -5519834.89621
  19312049.7114  -16403551.79747  -9737557.41561
  18276563.047   -30096295.867 7 -23273411.35823
  18657195.7744   -3669405.46648  -2827574.21563
 91  5  7 22 39 14.9920000  0  4G15G13G 6G 2
  21318387.8754   -7213714.84646  -5526193.90561
  19301370.4924  -16459666.56746  -9781283.09361
  18272082.227   -30119843.032 7 -23291759.78423
  18656280.7894   -3674215.20148  -2831322.05763
 91  5  7 22 39 29.9920000  0  4G15G13G 6G 2
  21316857.352    -7221731.024 6  -5532440.26121
  19290715.664   -16515664.470 7  -9824917.71021
  18267622.492   -30143286.229 7 -23310027.19223
  18655375.2894   -3678972.35748  -2835028.92863
 91  5  7 22 39 44.9920000  0  4G15G13G 6G 2
  21315350.094    -7229613.053 5  -5538582.09521
  19280078.727   -16571555.488 7  -9868469.03821
  18263178.984   -30166635.355 7 -23328221.30123
  18654477.7274   -3683687.04048  -2838702.70463
 91  5  7 22 39 59.9920000  0  4G15G13G 6G 2
  21313882.031    -7237364.334 6  -5544622.03021
  19269462.539   -16627342.931 7  -9911939.66221
  18258753.1954  -30189893.68547 -23346344.66563
  18653588.0394   -3688362.89348  -2842346.22563
 91  5  7 22 40 14.9920000  0  4G15G13G 6G 2
  21312437.4844   -7244973.83946  -5550551.50561
  19258868.742   -16683015.713 7  -9955320.94121
  18254346.492   -30213050.219 7 -23364388.70323
  18652707.6884   -3692989.06348  -2845951.03463
 91  5  7 22 40 29.9920000  0  4G15G13G 6G 2
  21311015.203    -7252454.946 6  -5556380.97821
  19248293.391   -16738586.715 7  -9998622.91421
  18249956.9924  -30236117.67747 -23382363.33363
  18651834.5704   -3697578.70048  -2849527.37463
 91  5  7 22 40 44.9920000  0  4G15G13G 6G 2
  21309616.250    -7259802.627 6  -5562106.43821
  19237738.539   -16794051.362 7 -10041842.01121
  18245584.680   -30259091.672 7 -23400265.13423
  18650968.5244   -3702127.47148  -2853071.86963
 91  5  7 22 40 59.9920000  0  4G15G13G 6G 2
  21308240.766    -7267013.996 6  -5567725.61821
  19227204.891   -16849405.711 7 -10084975.15921
  18241231.8444  -30281968.48647 -23418091.21163
  18650111.7894   -3706631.99248  -2856581.88663
 91  5  7 22 41 14.9920000  0  4G15G13G 6G 2
  21306891.367    -7274090.311 6  -5573239.58721
  19216692.227   -16904650.982 7 -10128023.31621
  18236897.344   -30304749.088 7 -23435842.31323
  18649263.8754   -3711093.53248  -2860058.41063
 91  5  7 22 41 29.9920000  0  4G15G13G 6G 2
  21305576.0704   -7281033.70046  -5578649.97561
  19206200.133   -16959789.351 7 -10170988.16521
  18232578.703   -30327435.596 7 -23453520.09723
  18648420.9534   -3715514.57148  -2863503.37863
 91  5  7 22 41 44.9920000  0  4G15G13G 6G 2
  21304279.5314   -7287842.87246  -5583955.82161
  19195728.758   -17014819.050 7 -10213868.34321
  18228278.727   -30350026.580 7 -23471123.45123
  18647588.8994   -3719893.67148  -2866915.66463
 91  5  7 22 41 59.9920000  0  4G15G13G 6G 2
  21303012.3054   -7294513.47246  -5589153.65861
  19185278.406   -17069735.430 7 -10256660.21721
  18223999.180   -30372517.170 7 -23488648.57123
  18646764.3754   -3724226.37748  -2870291.79863
 91  5  7 22 42 14.9920000  0  4G15G13G 6G 2
  21301767.477    -7301046.878 6  -5594244.57421
  19174848.945   -17124539.647 7 -10299364.69421
  18219739.234   -30394908.595 7 -23506096.41823
  18645948.5554   -3728514.14448  -2873632.90463
 91  5  7 22 42 29.9920000  0  4G15G13G 6G 2
  21300548.8134   -7307443.96546  -5599229.29761
  19164442.359   -17179232.460 7 -10341982.35821
  18215497.211   -30417201.588 7 -23523467.56522
  18645139.5784   -3732757.84448  -2876939.68363
 91  5  7 22 42 44.9920000  0  4G15G13G 6G 2
  21299353.3834   -7313713.19246  -5604114.38961
  19154052.9304  -17233821.77947 -10384519.37861
  18211271.141   -30439404.091 7 -23540768.20123
  18644340.3054   -3736965.75748  -2880218.57363
 91  5  7 22 42 59.9920000  0  4G15G13G 6G 2
  21298183.8594   -7319854.20646  -5608899.55061
  19143684.344   -17288306.898 7 -10426975.20721
  18207064.352   -30461515.441 7 -23557997.81022
  18643545.9064   -3741137.52148  -2883469.29463
 91  5  7 22 43 14.9920000  0  4G15G13G 6G 2
  21297043.5004   -7325857.67646  -5613577.55461
  19133337.336   -17342678.473 7 -10469342.55721
  18202876.781   -30483526.362 7 -23575149.16423
  18642760.0244   -3745263.96948  -2886684.70663
 91  5  7 22 43 29.9920000  0  4G15G13G 6G 2
  21295928.4224   -7331720.77346  -5618146.17161
  19123013.633   -17396933.384 7 -10511619.00421
  18198707.188   -30505433.567 7 -23592219.69822
  18641984.1954   -3749342.30748  -2889862.62663
 91  5  7 22 43 44.9920000  0  4G15G13G 6G 2
  21294835.063    -7337454.451 6  -5622613.95721
  19112709.609   -17451082.450 7 -10553812.97621
  18194557.133   -30527248.018 7 -23609217.95822
  18641214.8524   -3753383.50548  -2893011.61163
 91  5  7 22 43 59.9920000  0  4G15G13G 6G 2
  21293777.750    -7343039.325 6  -5626965.78821
  19102428.625   -17505106.270 7 -10595909.36121
  18190425.953   -30548950.146 7 -23626128.69522
  18640458.0864   -3757368.15548  -2896116.53363
 91  5  7 22 44 14.9920000  0  4G15G13G 6G 2
  21292733.5634   -7348488.11846  -5631211.57561
  19092170.195   -17559017.056 7 -10637917.65921
  18186316.399   -30570552.110 7 -23642961.37822
  18639706.7894   -3761308.86148  -2899187.21063
 91  5  7 22 44 29.9920000  0  4G15G13G 6G 2
  21291729.547    -7353801.673 6  -5635351.97821
  19081932.6334  -17612815.41447 -10679838.36061
  18182224.149   -30592054.709 7 -23659716.63122
  18638964.3054   -3765206.41048  -2902224.25963
 91  5  7 22 44 44.9920000  0  4G15G13G 6G 2
  21290743.1724   -7358981.10346  -5639387.87961
  19071716.086   -17666502.121 7 -10721672.05721
  18178150.391   -30613458.814 7 -23676395.13923
  18638231.9064   -3769062.01948  -2905228.62563
 91  5  7 22 44 59.9920000  0  4G15G13G 6G 2
  21289780.977    -7364027.525 6  -5643320.13621
  19061520.9304  -17720078.12847 -10763419.49561
  18174095.555   -30634765.270 7 -23692997.55822
  18637505.9534   -3772876.84448  -2908201.21363
 91  5  7 22 45 14.9920000  0  4G15G13G 6G 2
  21288846.672    -7368931.785 6  -5647141.61921
  19051347.8364  -17773533.80147 -10805073.16461
  18170062.2114  -30655964.43447 -23709516.37662
  18636791.0474   -3776641.53748  -2911134.73863
 91  5  7 22 45 29.9920000  0  4G15G13G 6G 2
  21287942.8284   -7373695.37146  -5650853.49561
  19041199.727   -17826870.503 7 -10846634.13021
  18166047.508   -30677057.824 7 -23725952.76922
  18636083.1954   -3780357.78548  -2914030.51463
 91  5  7 22 45 44.9920000  0  4G15G13G 6G 2
  21287062.344    -7378312.814 6  -5654451.48021
  19031072.7424  -17880082.60247 -10888098.01161
  18162057.344   -30698039.564 7 -23742302.16622
  18635384.9614   -3784019.99748  -2916884.18463
 91  5  7 22 45 59.9920000  0  4G15G13G 6G 2
  21286211.070    -7382785.885 6  -5657936.97121
  19020970.5864  -17933171.60447 -10929465.96561
  18158084.3754  -30718911.23847 -23758565.80062
  18634698.5004   -3787630.04448  -2919697.20563
 91  5  7 22 46 14.9920000  0  4G15G13G 6G 2
  21285387.789    -7387100.458 6  -5661298.96321
  19010893.2504  -17986123.11347 -10970726.77961
  18154135.8914  -30739658.62747 -23774732.58162
  18634023.9844   -3791173.61648  -2922458.42563
 91  5  7 22 46 29.9920000  0  4G15G13G 6G 2
  21284590.688    -7391278.646 6  -5664554.67721
  19000839.3444  -18038959.22447 -11011897.68261
  18150207.039   -30760303.523 7 -23790819.49922
  18633359.0314   -3794672.97048  -2925185.19463
 91  5  7 22 46 44.9920000  0  4G15G13G 6G 2
  21283818.445    -7395326.222 6  -5667708.59821
  18990806.4844  -18091685.39647 -11052982.91361
  18146297.047   -30780851.486 7 -23806830.88722
  18632700.2894   -3798133.93348  -2927882.04663
 91  5  7 22 46 59.9920000  0  4G15G13G 6G 2
  21283086.2584   -7399226.30146  -5670747.62161
  18980797.274   -18144284.301 7 -11093968.97421
  18142408.422   -30801285.328 7 -23822753.34922
  18632052.2664   -3801539.35748  -2930535.62663
 91  5  7 22 47 14.9920000  0  4G15G13G 6G 2
  21282366.7194   -7402984.80245  -5673676.29361
  18970810.7504  -18196761.52047 -11134860.22861
  18138539.961   -30821610.622 7 -23838591.22522
  18631413.5634   -3804895.22348  -2933150.58463
 91  5  7 22 47 29.9920000  0  4G15G13G 6G 2
  21281674.5704   -7406607.34746  -5676499.03061
  18960846.1024  -18249122.57747 -11175660.95561
  18134692.641   -30841832.634 7 -23854348.62522
  18630783.7974   -3808207.06748  -2935731.24363
 91  5  7 22 47 44.9920000  0  4G15G13G 6G 2
  21281010.149    -7410082.611 5  -5679207.01821
  18950906.2664  -18301355.79947 -11216362.06761
  18130865.672   -30861939.789 7 -23870016.52122
  18630164.1644   -3811463.33848  -2938268.59763
 91  5  7 22 47 59.9920000  0  4G15G13G 6G 2
  21280379.7194   -7413426.56246
  18940988.8594  -18353476.89247 -11256975.81161
  18127058.781   -30881947.882 7 -23885607.23222
  18629552.4844   -3814680.23148
 91  5  7 22 48 14.9920000  0  4G15G13G 6G 2
  21279768.5084   -7416634.95946
  18931092.9224  -18405481.37347 -11297498.68861
  18123271.149   -30901852.439 7 -23901117.26222
  18628947.5944   -3817853.50348
 91  5  7 22 48 29.9920000  0  4G15G13G 6G 2
  21279179.2274   -7419711.18445  -5686709.74561
  18921217.1804  -18457372.29147 -11337933.08161
  18119503.617   -30921656.548 7 -23916549.02122
  18628351.6174   -3820986.43948  -2945689.19463
 91  5  7 22 48 44.9920000  0  4G15G13G 6G 2
  21278621.9844   -7422651.74046  -5689001.06661
  18911364.2664  -18509145.93047 -11378276.08261
  18115754.109   -30941356.520 7 -23931899.63222
  18627763.0784   -3824075.53948  -2948096.28163
 91  5  7 22 48 59.9920000  0  4G15G13G 6G 2
  21278090.953    -7425457.255 6  -5691187.15921
  18901534.9454  -18560802.90847 -11418528.17861
  18112024.156   -30960952.519 7 -23947169.23122
  18627184.6414   -3827121.32748  -2950469.62663
 91  5  7 22 49 14.9920000  0  4G15G13G 6G 2
  21277583.4924   -7428133.37745  -5693272.43161
  18891726.4534  -18612348.53147 -11458693.51461
  18108314.039   -30980450.279 7 -23962362.27922
  18626611.4534   -3830129.51048  -2952813.66363
 91  5  7 22 49 29.9920000  0  4G15G13G 6G 2
  21277103.6094   -7430662.20846  -5695242.92561
  18881941.477   -18663764.575 7 -11498757.88121
  18104627.219   -30999831.484 7 -23977464.50222
  18626048.3914   -3833082.09748  -2955114.37963
 91  5  7 22 49 44.9920000  0  4G15G13G 6G 2
  21276638.5634   -7433061.35445  -5697112.37161
  18872178.7194  -18715068.26447 -11538734.69061
  18100957.156   -31019113.432 7 -23992489.38222
  18625495.4694   -3835996.40748  -2957385.26963
 91  5  7 22 49 59.9920000  0  4G15G13G 6G 2
  21276211.1804   -7435318.26145  -5698870.98761
  18862439.078   -18766247.077 7 -11578614.20121
  18097309.117   -31038283.512 7 -24007427.09522
  18624949.9924   -3838860.28648  -2959616.86063
 91  5  7 22 50 14.9920000  0  4G15G13G 6G 2
  21275809.875    -7437436.184 6  -5700521.29021
  18852724.1954  -18817303.74047 -11618398.53561
  18093681.805   -31057344.438 7 -24022279.75122
  18624413.8674   -3841676.72148  -2961811.48763
 91  5  7 22 50 29.9920000  0  4G15G13G 6G 2
  21275432.711    -7439419.771 5  -5702066.92421
  18843030.1804  -18868242.78247 -11658091.20361
  18090073.938   -31076300.812 7 -24037050.94023
  18623885.5394   -3844450.47048  -2963972.84963
 91  5  7 22 50 44.9920000  0  4G15G13G 6G 2
  21275078.086    -7441272.904 5  -5703510.90421
  18833358.617   -18919067.797 7 -11697695.03121
  18086486.9454  -31095155.98547 -24051743.27263
  18623365.9694   -3847185.21248  -2966103.81863
 91  5  7 22 50 59.9920000  0  4G15G13G 6G 2
  21274756.0784   -7442991.47746  -5704850.05161
  18823709.055   -18969774.427 7 -11737206.60721
  18082919.2424  -31113905.65147 -24066353.39162
  18622853.7424   -3849876.78648  -2968201.14963
 91  5  7 22 51 14.9920000  0  4G15G13G 6G 2
  21274458.1334   -7444551.09346  -5706065.31561
  18814088.227   -19020337.891 7 -11776606.62621
  18079375.4614  -31132525.20247 -24080862.12262
  18622354.3594   -3852500.52048  -2970245.61363
 91  5  7 22 51 29.9920000  0  4G15G13G 6G 2
  21274185.852    -7445974.477 6  -5707174.42921
  18804488.008   -19070780.999 7 -11815912.86021
  18075852.8364  -31151037.12747 -24095286.99462
  18621864.0704   -3855079.42648  -2972255.15163
 91  5  7 22 51 44.9920000  0  4G15G13G 6G 2
  21273944.899    -7447250.779 6  -5708168.94021
  18794914.961   -19121092.210 7 -11855116.32021
  18072353.1024  -31169430.19347 -24109619.24362
  18621383.6174   -3857602.35348  -2974221.06563
 91  5  7 22 51 59.9920000  0  4G15G13G 6G 2
  21273729.2194   -7448387.33545  -5709054.55261
  18785363.914   -19171278.716 7 -11894222.60721
  18068873.2114  -31187711.39547 -24123864.32862
  18620912.2894   -3860076.68448  -2976149.11463
 91  5  7 22 52 14.9920000  0  4G15G13G 6G 2
  21273535.0084   -7449396.20345  -5709840.67561
  18775836.297   -19221352.150 7 -11933240.78921
  18065413.8754  -31205892.55847 -24138031.46262
  18620448.8834   -3862514.24448  -2978048.51263
 91  5  7 22 52 29.9920000  0  4G15G13G 6G 2
  21273370.586    -7450263.023 5  -5710516.10721
  18766331.805   -19271297.940 7 -11972159.50821
  18061976.8674  -31223959.17747 -24152109.34062
  18619994.0004   -3864900.71548  -2979908.09563
 91  5  7 22 52 44.9920000  0  4G15G13G 6G 2
  21273234.242    -7450998.550 6  -5711089.24021
  18756848.649   -19321127.031 7 -12010987.29221
  18058558.8054  -31241921.89547 -24166106.25662
  18619547.5474   -3867247.07648  -2981736.43063
 91  5  7 22 52 59.9920000  0  4G15G13G 6G 2
  21273118.1954   -7451592.86446  -5711552.33361
  18747391.367   -19370828.909 7 -12049715.94921
  18055161.3204  -31259770.42247 -24180014.19362
  18619111.5084   -3869543.25948  -2983525.66363
 91  5  7 22 53 14.9920000  0  4G15G13G 6G 2
  21273032.5394   -7452054.03546  -5711911.66961
  18737955.469   -19420411.310 7 -12088351.50521
  18051785.2114  -31277512.32847 -24193839.04962
  18618682.7504   -3871796.99348  -2985281.81663
 91  5  7 22 53 29.9920000  0  4G15G13G 6G 2
  21272965.4064   -7452368.66446  -5712156.83261
  18728545.149   -19469860.608 7 -12126883.34521
  18048431.6494  -31295133.98747 -24207570.20762
  18618264.8994   -3873994.93048  -2986994.49563
 91  5  7 22 53 44.9920000  0  4G15G13G 6G 2
  21272935.586    -7452540.540 6
  18719161.297   -19519180.538 7 -12165314.37821
  18045101.0474  -31312638.86947 -24221210.36762
  18617855.4144   -3876140.78848  -2988666.58863
 91  5  7 22 53 59.9920000  0  4G15G13G 6G 2
  21272930.8994   -7452584.53146
  18709796.180   -19568385.708 7 -12203655.98421
  18041789.3444  -31330041.57947 -24234770.91462
  18617453.5394   -3878249.20248  -2990309.50963
 91  5  7 22 54 14.9920000  0  4G15G13G 6G 2
  21272946.0084   -7452494.74646
  18700456.899   -19617469.877 7 -12241903.31121
  18038499.3134  -31347335.95647 -24248247.04862
  18617061.5944   -3880314.28048  -2991918.65463
 91  5  7 22 54 29.9920000  0  4G15G13G 6G 2
  21272992.6254   -7452263.37346
  18691141.578   -19666424.749 7 -12280049.88621
  18035229.5004  -31364513.93647 -24261632.48262
  18616678.5864   -3882328.21248  -2993487.95163
 91  5  7 22 54 44.9920000  0  4G15G13G 6G 2
  21273055.4924   -7451896.81646
  18681848.930   -19715256.419 7 -12318100.45821
  18031981.9774  -31381581.79147 -24274932.10262
  18616303.1254   -3884297.39548  -2995022.37863
 91  5  7 22 54 59.9920000  0  4G15G13G 6G 2
  21273159.3754   -7451392.28546  -5711395.92661
  18672580.156   -19763961.993 7 -12356052.77121
  18028752.5474  -31398536.40747 -24288143.48862
  18615938.9304   -3886218.81148  -2996519.58263
 91  5  7 22 55 14.9920000  0  4G15G13G 6G 2
  21273279.508    -7450745.513 6  -5710891.92621
  18663336.899   -19812537.110 7 -12393903.43921
  18025551.2664  -31415373.05747 -24301262.95162
  18615581.7814   -3888088.21748  -2997976.25963
 91  5  7 22 55 29.9920000  0  4G15G13G 6G 2
  21273426.8754   -7449962.26946  -5710281.59961
  18654117.211   -19860986.961 7 -12431656.49121
  18022368.9844  -31432097.29247 -24314294.82162
  18615235.8134   -3889911.02648  -2999396.63063
 91  5  7 22 55 44.9920000  0  4G15G13G 6G 2
  21273604.024    -7449034.836 6  -5709558.90121
  18644922.117   -19909303.633 7 -12469305.76821
  18019207.9534  -31448701.07147 -24327232.82762
  18614899.2034   -3891679.59448  -3000774.73163
 91  5  7 22 55 59.9920000  0  4G15G13G 6G 2
  21273812.281    -7447972.174 6  -5708730.85721
  18635751.117   -19957496.080 7 -12506858.24821
  18016070.8594  -31465193.27947 -24340083.89662
  18614570.0704   -3893402.97548  -3002117.62263
 91  5  7 22 56 14.9920000  0  4G15G13G 6G 2
  21274037.969    -7446777.913 6  -5707800.24121
  18626602.953   -20005567.574 7 -12544316.47921
  18012953.0474  -31481577.21447 -24352850.59362
  18614250.9694   -3895084.73748  -3003428.08363
 91  5  7 22 56 29.9920000  0  4G15G13G 6G 2
  21274288.578    -7445442.812 6  -5706759.87721
  18617481.063   -20053508.452 7 -12581672.93021
  18009857.9224  -31497842.98547 -24365525.21662
  18613940.1024   -3896715.12348  -3004698.51563
 91  5  7 22 56 44.9920000  0  4G15G13G 6G 2
  21274572.3204   -7443957.07446  -5705602.15261
  18608384.656   -20101308.633 7 -12618919.74121
  18006786.8524  -31513980.64047 -24378100.00762
  18613642.0394   -3898284.40148  -3005921.32663
 91  5  7 22 56 59.9920000  0  4G15G13G 6G 2
  21274878.9774   -7442349.94846  -5704349.83661
  18599310.219   -20148997.032 7 -12656079.45521
  18003733.9384  -31530019.22647 -24390597.59962
  18613349.7974   -3899821.74948  -3007119.26063
 91  5  7 22 57 14.9920000  0  4G15G13G 6G 2
  21275205.8524   -7440613.57845  -5702996.79361
  18590257.469   -20196565.598 7 -12693145.79721
  18000703.4144  -31545950.64347 -24403011.68462
  18613064.7504   -3901319.37548  -3008286.24163
 91  5  7 22 57 29.9920000  0  4G15G13G 6G 2
  21275561.492    -7438738.784 5  -5701535.89921
  18581230.305   -20244005.089 7 -12730111.55321
  17997693.6884  -31561765.32947 -24415334.80962
  18612789.9614   -3902767.94948  -3009415.00263
 91  5  7 22 57 44.9920000  0  4G15G13G 6G 2
  21275943.586    -7436727.645 5  -5699968.75821
  18572226.227   -20291317.379 7 -12766978.19521
  17994706.3204  -31577465.26047 -24427568.51662
  18612522.0004   -3904169.43648  -3010507.06963
 91  5  7 22 57 59.9920000  0  4G15G13G 6G 2
  21276349.3444   -7434587.30545  -5698300.95161
  18563247.703   -20338509.514 7 -12803751.21021
  17991737.8054  -31593057.50447 -24439718.31262
  18612263.8674   -3905531.07848  -3011568.08863
 91  5  7 22 58 14.9920000  0  4G15G13G 6G 2
  21276784.789    -7432310.605 5  -5696526.88621
  18554290.445   -20385573.734 7 -12840424.55321
  17988793.4774  -31608534.23847 -24451778.09562
  18612012.1954   -3906845.41248  -3012592.24863
 91  5  7 22 58 29.9910000  0  4G15G13G 6G 2
  21277243.1284   -7429893.67645  -5694643.56061
  18545359.464   -20432502.611 7 -12876992.43021
  17985870.6834  -31623890.00447 -24463743.61662
  18611773.2614   -3908107.97748  -3013576.06963
 91  5  7 22 58 44.9910000  0  4G15G13G 6G 2
  21277732.534    -7427335.072 5  -5692649.84321
  18536454.730   -20479301.010 7 -12913458.63121
  17982972.4254  -31639125.58047 -24475615.48662
  18611542.3944   -3909317.81148  -3014518.79963
 91  5  7 22 58 59.9910000  0  4G15G13G 6G 2
  21278248.3864   -7424635.12745  -5690545.97161
  18527574.823   -20525965.527 7 -12949820.52521
  17980095.8944  -31654239.73747 -24487392.74062
  18611322.6984   -3910474.92748  -3015420.44963
 91  5  7 22 59 14.9910000  0  4G15G13G 6G 2
  21278785.6834   -7421793.90945  -5688332.03961
  18518719.964   -20572495.968 7 -12986077.92821
  17977243.6364  -31669232.26447 -24499075.21862
  18611111.9094   -3911579.50248  -3016281.16163
 91  5  7 22 59 29.9910000  0  4G15G13G 6G 2
  21279352.003    -7418829.336 5  -5686021.95621
  18509886.831   -20618910.037 7 -13022244.66021
  17974409.8624  -31684120.73547 -24510676.61562
  18610909.0584   -3912649.06148  -3017114.58463
 91  5  7 22 59 44.9910000  0  4G15G13G 6G 2
  21279940.620    -7415732.088 5  -5683608.51221
  18501078.730   -20665198.206 7 -13058313.28921
  17971598.6674  -31698895.75547 -24522189.60962
  18610713.3004   -3913674.37448  -3017913.52963
 91  5  7 22 59 59.9910000  0  4G15G13G 6G 2
  21280556.917    -7412500.820 5  -5681090.62621
  18492294.323   -20711358.882 7 -13094282.56921
  17968808.862   -31713555.424 7 -24533612.71622
  18610528.0894   -3914653.84248  -3018676.75863
 91  5  7 23  0 14.9910000  0  4G15G13G 6G 2
  21281195.1594   -7409132.16545  -5678465.70661
  18483534.980   -20757388.670 7 -13130149.85721
  17966041.042   -31728096.438 7 -24544943.36822
  18610349.6054   -3915584.20448  -3019401.71863
 91  5  7 23  0 29.9910000  0  4G15G13G 6G 2
  21281855.480    -7405631.424 5  -5675737.84321
  18474800.730   -20803292.299 7 -13165918.84721
  17963296.3164  -31742523.51147 -24556185.23462
  18610180.4094   -3916470.47448  -3020092.31563
 91  5  7 23  0 44.9910000  0  4G15G13G 6G 2
  21282554.550    -7401990.552 5  -5672900.79621
  18466091.5194  -20849061.71147 -13201583.24661
  17960575.1514  -31756828.32147 -24567331.83462
  18610021.2614   -3917304.49948  -3020742.20963
 91  5  7 23  0 59.9910000  0  4G15G13G 6G 2
  21283273.5194   -7398212.28145  -5669956.68561
  18457405.784   -20894699.105 7 -13237144.77721
  17957874.4014  -31771013.45347 -24578385.17062
  18609872.9254   -3918088.84248  -3021353.38863
 91  5  7 23  1 14.9910000  0  4G15G13G 6G 2
  21284018.1514   -7394292.43945  -5666902.25961
  18448747.230   -20940200.028 7 -13272599.96221
  17955198.2924  -31785074.38447 -24589341.73762
  18609733.2144   -3918819.20648  -3021922.50563
 91  5  7 23  1 29.9910000  0  4G15G13G 6G 2
  21284792.636    -7390233.184 5  -5663739.19121
  18440114.261   -20985566.754 7 -13307950.58121
  17952546.8474  -31799012.94247 -24600202.94262
  18609606.9954   -3919497.80548  -3022451.28263
 91  5  7 23  1 44.9910000  0  4G15G13G 6G 2
  21285592.0194   -7386039.42645  -5660471.33461
  18431506.808   -21030803.569 7 -13343199.97621
  17949915.9484  -31812833.72847 -24610972.37562
  18609484.8624   -3920129.07948  -3022943.18763
 91  5  7 23  1 59.9910000  0  4G15G13G 6G 2
  21286416.6444   -7381713.50445  -5657100.47061
  18422922.253   -21075912.621 7 -13378349.81521
  17947309.3004  -31826538.81747 -24621651.65962
  18609372.0894   -3920715.32348  -3023399.99763
 91  5  7 23  2 14.9910000  0  4G15G13G 6G 2
  21287267.0814   -7377248.22045  -5653621.01561
  18414364.237   -21120886.432 7 -13413394.26721
  17944723.9564  -31840120.68447 -24632234.92862
  18609272.4174   -3921249.48448  -3023816.22763
 91  5  7 23  2 29.9910000  0  4G15G13G 6G 2
  21288141.6834   -7372641.27445  -5650031.18861
  18405832.339   -21165722.605 7 -13448331.47021
  17942163.6674  -31853576.59947 -24642720.04762
  18609179.2224   -3921728.78748  -3024189.71063
 91  5  7 23  2 44.9910000  0  4G15G13G 6G 2
  21289043.292    -7367898.390 5  -5646335.42021
  18397324.948   -21210426.434 7 -13483165.54621
  17939625.5584  -31866912.08047 -24653111.32662
  18609099.9564   -3922158.85848  -3024524.83063
 91  5  7 23  2 59.9910000  0  4G15G13G 6G 2
  21289974.909    -7363020.154 5  -5642534.19221
  18388843.675   -21254998.019 7 -13517896.57921
  17937111.2844  -31880127.34447 -24663408.92762
  18609026.5034   -3922540.19848  -3024821.97663
 91  5  7 23  3 14.9910000  0  4G15G13G 6G 2
  21290922.9874   -7358009.18945  -5638629.53061
  18380386.214   -21299439.749 7 -13552526.42921
  17934619.1514  -31893224.78647 -24673614.71862
  18608960.6514   -3922875.50348  -3025083.24663
 91  5  7 23  3 29.9910000  0  4G15G13G 6G 2
  21291904.901    -7352857.672 5  -5634615.35921
  18371954.917   -21343743.687 7 -13587048.90521
  17932150.9094  -31906196.34147 -24683722.41562
  18608910.6204   -3923156.79948  -3025302.43863
 91  5  7 23  3 44.9910000  0  4G15G13G 6G 2
  21292909.6444   -7347564.78645  -5630491.02961
  18363550.7694  -21387908.90047 -13621463.28661
  17929705.9094  -31919040.75647 -24693731.04862
  18608866.4724   -3923382.87448  -3025478.59863
 91  5  7 23  3 59.9910000  0  4G15G13G 6G 2
  21293944.8864   -7342126.97445  -5626253.77761
  18355173.206   -21431931.764 7 -13655766.74521
  17927286.7614  -31931754.34647 -24703637.73462
  18608835.3704   -3923550.11648
 91  5  7 23  4 14.9910000  0  4G15G13G 6G 2
  21295011.4804   -7336554.35045  -5621911.46561
  18346821.6444  -21475822.00447 -13689966.86161
  17924891.4334  -31944346.95547 -24713450.14962
  18608809.9564   -3923668.72648
 91  5  7 23  4 29.9910000  0  4G15G13G 6G 2
  21296094.7374   -7330850.40445  -5617466.81761
  18338495.3554  -21519582.37547 -13724065.78361
  17922517.4724  -31956821.39747 -24723170.48762
  18608799.5034   -3923741.72748
 91  5  7 23  4 44.9910000  0  4G15G13G 6G 2
  21297200.9644   -7325019.32545  -5612923.12961
  18330190.050   -21563217.083 7 -13758066.78221
  17920164.5264  -31969181.85047 -24732802.00262
  18608792.7614   -3923773.26848
 91  5  7 23  4 59.9910000  0  4G15G13G 6G 2
  21298336.7764   -7319047.66845  -5608269.86361
  18321913.0194  -21606712.20947 -13791959.02261
  17917836.9564  -31981414.59047 -24742334.00062
  18608797.4484   -3923749.87948
 91  5  7 23  5 14.9910000  0  4G15G13G 6G 2
  21299498.855    -7312952.608 5  -5603520.46621
  18313660.4014  -21650084.91547 -13825755.86461
  17915530.3234  -31993536.34647 -24751779.51862
  18608808.1914   -3923688.53648
 91  5  7 23  5 29.9910000  0  4G15G13G 6G 2
  21300682.972    -7306720.403 5  -5598664.18421
  18305433.4094  -21693321.09247 -13859446.32461
  17913247.2614  -32005533.08647 -24761127.61862
  18608831.1124   -3923575.28748
 91  5  7 23  5 44.9910000  0  4G15G13G 6G 2
  21301894.7614   -7300351.71845  -5593701.57061
  18297231.0584  -21736421.19947 -13893030.75861
  17910987.9954  -32017405.12447 -24770378.54762
  18608859.980    -3923410.523 8
 91  5  7 23  5 59.9910000  0  4G15G13G 6G 2
  21303131.151    -7293853.080 5  -5588637.66921
  18289053.4414  -21779391.35347 -13926513.93261
  17908751.7694  -32029158.77347 -24779537.23062
  18608900.5194   -3923200.75148
 91  5  7 23  6 14.9910000  0  4G15G13G 6G 2
  21304395.511    -7287222.822 5  -5583471.24421
  18280902.3554  -21822229.83147 -13959894.49761
  17906537.4874  -32040792.09447 -24788602.14462
  18608950.8004   -3922944.17148  -3025136.75263
 91  5  7 23  6 29.9910000  0  4G15G13G 6G 2
  21305684.480    -7280446.870 5  -5578191.25421
  18272778.6364  -21864922.23047 -13993161.23761
  17904349.4174  -32052290.62347 -24797562.03062
  18609008.4414   -3922626.43748  -3024889.16663
 91  5  7 23  6 44.9910000  0  4G15G13G 6G 2
  21306997.112    -7273550.445 5  -5572817.41621
  18264676.9484  -21907493.34047 -14026333.47261
  17902182.2374  -32063679.36547 -24806436.36662
  18609075.0034   -3922272.64547  -3024613.48163
 91  5  7 23  6 59.9910000  0  4G15G13G 6G 2
  21308332.230    -7266520.986 5  -5567339.89621
  18256600.620   -21949930.313 7 -14059401.17221
  17900038.7144  -32074945.31547 -24815215.02262
  18609153.6834   -3921869.87748  -3024299.63663
 91  5  7 23  7 14.9910000  0  4G15G13G 6G 2
  21309698.339    -7259355.007 5  -5561756.01121
  18248551.2924  -21992229.39747 -14092361.43661
  17897917.9804  -32086084.46447 -24823894.87262
  18609241.8554   -3921414.67448  -3023944.93663
 91  5  7 23  7 29.9910000  0  4G15G13G 6G 2
  21311090.1364   -7252042.57645  -5556058.00261
  18240530.5264  -22034380.46547 -14125206.35461
  17895825.2924  -32097086.92047 -24832468.20762
  18609338.7144   -3920897.20548  -3023541.71263
 91  5  7 23  7 44.9910000  0  4G15G13G 6G 2
  21312503.909    -7244594.693 5  -5550254.44321
  18232536.1754  -22076394.52947 -14157944.51961
  17893755.2374  -32107963.38047 -24840943.36162
  18609447.2224   -3920328.19048  -3023098.32563
 91  5  7 23  7 59.9910000  0  4G15G13G 6G 2
  21313947.316    -7237022.511 5  -5544354.03321
  18224563.8314  -22118282.15647 -14190584.16961
  17891707.5664  -32118724.50047 -24849328.64562
  18609564.7764   -3919718.33348  -3022623.11263
 91  5  7 23  8 14.9910000  0  4G15G13G 6G 2
  21315414.3784   -7229325.99845  -5538356.75061
  18216617.9804  -22160043.14247 -14223125.13261
  17889682.7374  -32129370.07747 -24857623.89162
  18609686.3474   -3919067.58047  -3022116.03563
 91  5  7 23  8 29.9910000  0  4G15G13G 6G 2
  21316905.261    -7221489.921 5  -5532250.69321
  18208698.4564  -22201661.92247 -14255555.28461
  17887680.2844  -32139884.41847 -24865816.87862
  18609823.6514   -3918360.51748  -3021565.08063
 91  5  7 23  8 44.9910000  0  4G15G13G 6G 2
  21318423.7454   -7213524.14045  -5526043.59261
  18200803.675   -22243148.034 7 -14287882.05821
  17885702.7534  -32150277.09947 -24873915.06362
  18609965.8704   -3917606.77947  -3020977.75463
 91  5  7 23  8 59.9910000  0  4G15G13G 6G 2
  21319961.1674   -7205420.27245  -5519728.88361
  18192935.4484  -22284492.72747 -14320098.63661
  17883750.3394  -32160539.31247 -24881911.58162
  18610120.0344   -3916797.57348  -3020347.20863
 91  5  7 23  9 14.9910000  0  4G15G13G 6G 2
  21321532.9644   -7197175.80745  -5513304.59961
  18185095.0424  -22325693.45847 -14352203.03761
  17881823.7694  -32170668.48547 -24889804.43562
  18610283.4564   -3915930.54548  -3019671.60363
 91  5  7 23  9 29.9910000  0  4G15G13G 6G 2
  21323122.409    -7188799.106 5  -5506777.28521
  18177280.8234  -22366758.18747 -14384201.46562
  17879919.4484  -32180672.73247 -24897599.94362
  18610458.1834   -3915013.86047  -3018957.30863
 91  5  7 23  9 44.9910000  0  4G15G13G 6G 2
  21324736.4874   -7180303.72345  -5500157.51561
  18169489.6284  -22407700.45047 -14416104.45961
  17878036.8784  -32190565.24247 -24905308.38662
  18610638.6834   -3914060.96147  -3018214.78863
 91  5  7 23  9 59.9910000  0  4G15G13G 6G 2
  21326382.464    -7171672.775 5  -5493432.09421
  18161725.3234  -22448503.17347 -14447898.72961
  17876178.5734  -32200328.98447 -24912916.48962
  18610831.6364   -3913054.97847  -3017430.91163
 91  5  7 23 10 14.9910000  0  4G15G13G 6G 2
  21328049.6204   -7162913.85945  -5486606.94961
  18153986.1124  -22489173.62047 -14479589.91961
  17874344.5664  -32209970.87647 -24920429.64662
  18611031.3084   -3912003.18547  -3016611.33863
 91  5  7 23 10 29.9910000  0  4G15G13G 6G 2
  21329744.4014   -7154019.56445  -5479676.32961
  18146273.4874  -22529704.03547 -14511171.99261
  17872534.0114  -32219483.27347 -24927841.90162
  18611241.9564   -3910897.68347  -3015749.91063
 91  5  7 23 10 44.9910000  0  4G15G13G 6G 2
  21331458.5584   -7145003.06845  -5472650.48861
  18138584.2224  -22570107.28647 -14542654.98161
  17870746.1834  -32228879.04347 -24935163.27562
  18611459.7614   -3909751.62647  -3014856.88663
 91  5  7 23 10 59.9910000  0  4G15G13G 6G 2
  21333196.7374   -7135860.52245  -5465526.39161
  18130921.1754  -22610378.96447 -14574035.44761
  17868981.0814  -32238153.86547 -24942390.40762
  18611688.1984   -3908560.73747  -3013928.92263
 91  5  7 23 11 14.9910000  0  4G15G13G 6G 2
  21334962.8474   -7126592.08145  -5458304.26261
  18123282.370   -22650518.939 7 -14605313.27721
  17867239.3944  -32247307.56147 -24949523.15562
  18611922.0974   -3907324.93647  -3012965.96363
 91  5  7 23 11 29.9910000  0  4G15G13G 6G 2
  21336753.816    -7117194.724 5  -5450981.62921
  18115670.9014  -22690524.31147 -14636486.23061
  17865522.2764  -32256337.07647 -24956559.14162
  18612165.7614   -3906041.46447  -3011965.86163
 91  5  7 23 11 44.9910000  0  4G15G13G 6G 2
  21338562.0114   -7107668.94045  -5443558.94061
  18108082.6674  -22730395.20847 -14667554.39961
  17863826.1444  -32265242.59047 -24963498.50362
  18612419.7304   -3904710.57747  -3010928.81163
 91  5  7 23 11 59.9910000  0  4G15G13G 6G 2
  21340400.409    -7098019.232 5  -5436039.66821
  18100519.8314  -22770135.99747 -14698521.18561
  17862154.3004  -32274028.46247 -24970344.63662
  18612682.4644   -3903336.74047  -3009858.29063
 91  5  7 23 12 14.9910000  0  4G15G13G 6G 2
  21342259.628    -7088239.695 5  -5428419.24821
  18092984.9564  -22809740.13647 -14729381.48561
  17860506.9874  -32282688.22447 -24977092.50062
  18612950.2844   -3901913.44147  -3008749.23363
 91  5  7 23 12 29.9910000  0  4G15G13G 6G 2
  21344146.3864   -7078325.97645  -5420694.27861
  18085474.5504  -22849203.18247 -14760131.85261
  17858882.0194  -32291217.08747 -24983738.36662
  18613232.5584   -3900436.30247  -3007598.21963
 91  5  7 23 12 44.9910000  0  4G15G13G 6G 2
  21346059.1594   -7068285.00845  -5412870.14761
  18077990.4094  -22888531.70747 -14790777.39562
  17857284.0424  -32299621.69247 -24990287.40862
  18613522.3474   -3898911.93947  -3006410.40663
 91  5  7 23 12 59.9910000  0  4G15G13G 6G 2
  21347992.183    -7058111.805 5  -5404942.96621
  18070532.4254  -22927720.76447 -14821314.26061
  17855708.7924  -32307896.79847 -24996735.54662
  18613822.6514   -3897335.15447  -3005181.74363
 91  5  7 23 13 14.9910000  0  4G15G13G 6G 2
  21349951.331    -7047808.264 5  -5396914.23521
  18063101.9174  -22966771.76447 -14851743.54861
  17854157.3084  -32316043.85347 -25003083.89862
  18614133.2844   -3895707.53947  -3003913.47563
 91  5  7 23 13 29.9910000  0  4G15G13G 6G 2
  21351938.120    -7037379.270 5  -5388787.73121
  18055695.8164  -23005689.32847 -14882068.86761
  17852632.5814  -32324067.44447 -25009336.04162
  18614450.3864   -3894033.84347  -3002609.30463
 91  5  7 23 13 44.9910000  0  4G15G13G 6G 2
  21353945.659    -7026820.057 5  -5380559.76421
  18048316.0974  -23044468.48647 -14912286.32962
  17851131.0664  -32331962.58547 -25015488.09962
  18614778.6284   -3892309.19347  -3001265.42263
 91  5  7 23 13 59.9910000  0  4G15G13G 6G 2
  21355977.917    -7016131.388 5  -5372230.92821
  18040962.8704  -23083109.59047 -14942396.22462
  17849651.3394  -32339729.74847 -25021540.43162
  18615117.3554   -3890534.08947  -2999882.23263
 91  5  7 23 14 14.9910000  0  4G15G13G 6G 2
  21358039.7144   -7005317.84545  -5363804.81361
  18033634.7924  -23121617.05947 -14972401.98762
  17848197.0894  -32347373.20147 -25027496.36662
  18615463.9174   -3888713.01947  -2998463.22163
 91  5  7 23 14 29.9910000  0  4G15G13G 6G 2
  21360122.941    -6994378.629 5  -5355280.74921
  18026332.5664  -23159990.15347 -15002303.03862
  17846765.8474  -32354892.17447 -25033355.30762
  18615821.2844   -3886845.31347  -2997007.87363
 91  5  7 23 14 44.9910000  0  4G15G13G 6G 2
  21362229.1124   -6983307.62445  -5346653.97561
  18019057.7844  -23198222.03647 -15032094.05662
  17845360.4414  -32362279.60147 -25039111.74262
  18616185.0034   -3884923.96747  -2995510.72363
 91  5  7 23 14 59.9910000  0  4G15G13G 6G 2
  21364360.5894   -6972109.79945  -5337928.42361
  18011808.0344  -23236317.46947 -15061778.75062
  17843978.7304  -32369540.49247 -25044769.57762
  18616561.0114   -3882954.14747  -2993975.80263
 91  5  7 23 15 14.9910000  0  4G15G13G 6G 2
  21366514.9334   -6960782.47845  -5329101.92961
  18004584.5814  -23274273.49947 -15091354.81562
  17842621.5664  -32376671.55847 -25050326.25062
  18616944.6984   -3880932.66047  -2992400.62263
 91  5  7 23 15 29.9910000  0  4G15G13G 6G 2
  21368695.5664   -6949326.53145  -5320175.22261
  17997388.1364  -23312091.03747 -15120822.97262
  17841288.7694  -32383673.68347 -25055782.45262
  18617338.5194   -3878860.53047  -2990785.98063
 91  5  7 23 15 44.9910000  0  4G15G13G 6G 2
  21370899.339    -6937737.909 5  -5311145.11921
  17990219.4414  -23349765.50447 -15150179.64262
  17839982.4174  -32390542.37247 -25061134.67662
  18617743.7064   -3876733.37647  -2989128.46263
 91  5  7 23 15 59.9910000  0  4G15G13G 6G 2
  21373126.6594   -6926014.93845  -5302010.34961
  17983077.261   -23387295.128 7 -15179423.44822
  17838701.8164  -32397275.81147 -25066381.50762
  18618157.7454   -3874549.35147  -2987426.62763
 91  5  7 23 16 14.9910000  0  4G15G13G 6G 2
  21375384.7144   -6914162.03745  -5292774.32961
  17975963.737   -23424684.151 7 -15208557.70022
  17837445.8624  -32403878.07347 -25071526.12662
  18618584.6124   -3872312.68447  -2985683.77563
 91  5  7 23 16 29.9910000  0  4G15G13G 6G 2
  21377667.9484   -6902176.52345  -5283434.95361
  17968875.5194  -23461929.41247 -15237579.92262
  17836213.3864  -32410345.91447 -25076566.00162
  18619021.7844   -3870020.44547  -2983897.61263
 91  5  7 23 16 44.9910000  0  4G15G13G 6G 2
  21379975.698    -6890052.480 5  -5273987.66921
  17961816.847   -23499024.667 7 -15266485.26322
  17835011.2144  -32416673.27747 -25081496.41062
  18619467.9724   -3867666.50247  -2982063.37563
